GFSWCAN_700_spd_000.txt.gz
Wind_Speed
39 39 40 41 41 42 34 26 23 23 17 15 10 8 12 13 10 15 15 16 20 23 15 24 18 14 12 16 13 11 12 8 8 12 11 10 10 9 8 8 4 5 3 4 4 4 2 4 1 2 9 8 12 12
37 38 38 40 40 40 37 26 22 22 20 17 13 8 13 13 15 17 20 19 18 15 12 13 15 16 16 14 13 14 10 11 6 13 9 10 7 6 9 4 8 5 9 2 5 2 2 5 4 5 4 4 8 15
36 36 36 38 39 40 37 29 23 21 21 18 15 10 12 17 19 20 17 17 19 16 16 14 13 17 15 15 12 12 14 11 13 15 10 12 6 6 5 7 9 6 9 9 5 4 5 5 5 5 1 4 8 14
35 35 36 37 38 39 40 33 25 21 20 18 16 12 12 21 21 23 25 20 17 13 10 6 12 12 13 12 10 11 11 12 12 17 16 15 13 9 10 8 6 7 8 7 8 10 8 7 7 7 2 3 6 10
34 34 35 36 37 38 40 38 32 25 21 20 17 13 11 23 24 27 24 24 19 13 8 9 8 10 12 12 11 9 9 9 13 15 18 30 23 15 15 19 23 14 12 9 5 6 12 9 9 7 5 4 5 5
33 33 34 35 36 35 37 38 34 28 23 21 20 14 16 22 28 26 25 23 23 19 11 5 7 10 10 8 6 7 6 12 13 15 14 18 26 25 13 16 20 18 13 11 8 3 13 10 12 11 8 4 5 6
32 33 34 35 36 35 35 36 33 28 24 23 18 16 18 25 31 30 26 28 23 18 17 5 9 10 12 9 6 5 6 14 9 19 9 24 28 22 28 33 26 14 12 14 13 9 11 13 8 12 14 9 6 5
30 32 34 35 37 36 35 35 32 26 26 24 19 17 16 25 32 31 28 21 24 19 14 7 7 7 3 3 8 6 6 7 7 14 8 7 16 21 24 18 17 21 20 14 14 14 12 12 16 11 10 9 8 9
28 30 33 34 37 38 36 35 31 24 28 21 15 10 12 22 25 29 24 24 24 23 13 11 13 3 3 5 7 7 5 7 6 9 17 10 17 17 6 9 7 7 14 16 20 15 14 11 12 12 10 10 11 12
26 28 31 33 36 38 38 35 28 24 28 19 9 5 10 19 29 26 17 20 22 29 22 23 16 14 7 4 2 4 5 4 5 5 9 19 29 21 18 10 7 8 8 6 14 18 17 13 11 10 11 12 13 12
24 26 29 31 33 36 38 36 26 24 26 13 2 6 10 30 28 17 15 17 18 14 22 31 26 19 10 7 3 2 3 4 4 5 6 7 16 9 12 16 13 10 11 11 13 15 15 12 5 12 14 17 17 15
23 25 28 30 32 34 37 37 25 26 24 13 5 7 15 20 9 8 15 11 9 12 11 19 23 26 18 12 6 4 5 4 5 5 5 6 10 11 12 16 16 14 10 11 12 13 14 16 15 12 12 12 13 12
21 23 26 29 31 33 35 36 23 24 19 5 6 10 11 7 5 6 9 7 8 6 13 15 13 16 19 14 8 6 5 6 5 6 6 7 7 8 16 14 20 25 22 17 13 13 13 15 17 15 13 14 13 14
20 22 25 27 29 31 33 36 22 18 14 3 3 3 1 1 4 3 2 6 8 7 5 3 15 18 17 12 8 6 7 5 5 6 5 5 5 8 10 11 15 20 20 23 20 16 15 15 17 18 17 13 12 11
18 20 23 24 27 28 30 34 23 12 11 2 1 2 3 7 7 5 1 10 12 13 11 12 14 16 17 8 8 8 6 6 7 4 1 2 2 5 11 12 13 13 17 20 22 20 17 16 18 18 18 16 15 13
17 18 22 22 24 26 27 30 22 9 7 4 3 1 3 7 6 3 6 11 15 14 13 19 14 8 11 8 10 13 7 7 4 6 4 4 4 4 4 9 13 14 15 18 20 20 19 19 18 18 18 17 16 14
17 18 20 22 22 24 25 24 22 8 2 1 9 11 11 11 7 3 6 15 15 19 27 16 12 10 10 11 16 16 24 19 7 4 6 6 5 6 6 6 9 12 14 17 19 19 20 20 21 20 16 15 15 15
17 17 20 22 21 22 21 19 20 7 7 7 7 12 13 15 16 13 9 15 23 26 32 25 19 20 13 16 23 23 26 26 22 14 14 13 12 10 6 6 9 11 14 17 18 19 22 22 23 19 16 13 14 14
18 16 19 21 20 21 22 15 18 12 10 10 11 14 17 17 17 17 15 16 15 29 36 40 22 28 35 23 16 15 16 13 13 15 14 11 7 8 9 9 9 12 15 18 20 20 22 21 17 15 15 16 15 12
18 17 19 20 19 19 17 11 18 12 13 18 14 14 18 21 21 20 18 19 24 20 30 33 41 32 18 25 33 23 16 12 10 10 12 13 14 15 14 13 10 15 19 20 22 22 24 23 21 19 19 18 14 12
17 18 19 20 18 16 16 14 15 10 17 16 20 20 20 19 21 21 20 19 21 27 28 35 41 40 37 16 17 25 27 25 16 14 14 16 16 17 15 13 15 20 22 23 25 26 24 21 20 22 20 18 15 14
18 19 19 20 20 21 21 19 13 13 17 18 21 22 23 22 18 18 20 19 22 26 28 29 30 31 35 40 36 26 20 20 22 21 18 16 18 20 16 14 17 24 26 28 25 22 22 23 21 21 19 16 16 14
18 20 21 20 20 13 12 13 13 15 14 18 22 24 22 22 22 20 18 16 16 18 24 29 31 30 31 29 40 42 34 29 28 28 28 26 23 21 21 18 18 26 28 30 27 24 23 24 23 21 19 18 16 13
19 19 18 9 8 9 12 13 15 15 18 18 20 23 22 23 22 21 21 21 21 20 22 25 27 32 32 33 37 28 33 41 37 33 27 26 24 23 23 21 21 27 31 30 29 28 27 24 23 22 20 18 16 13
16 13 8 11 11 11 15 17 15 15 18 18 21 20 16 17 21 25 23 21 20 22 23 25 25 27 27 27 27 30 36 36 34 35 32 26 23 22 25 23 24 30 36 36 34 32 29 26 23 22 22 20 15 7
8 8 9 9 11 12 13 14 14 16 18 20 15 13 18 20 20 13 19 18 15 20 20 21 24 24 26 25 24 25 25 27 34 34 29 26 24 21 24 26 29 38 41 39 35 33 28 25 25 24 22 16 14 16
12 13 17 19 19 16 16 17 18 18 18 18 17 16 12 6 9 10 13 24 27 27 27 25 22 24 25 25 25 25 26 25 26 27 26 26 27 25 24 30 35 41 43 40 32 28 28 26 26 23 19 19 15 13
17 21 19 15 14 15 19 19 18 18 12 11 13 12 8 11 23 28 28 29 28 26 27 27 24 23 25 26 26 27 27 25 25 26 26 27 28 27 27 30 33 40 40 37 33 30 29 29 25 23 18 13 12 11
21 18 17 15 15 17 18 17 16 15 16 17 18 18 22 23 26 28 26 24 23 23 25 26 22 21 21 23 24 26 26 24 23 25 25 24 24 27 31 32 37 39 37 39 34 29 25 25 23 19 15 13 11 10
24 20 19 16 15 15 15 16 15 15 16 18 20 22 23 24 25 25 24 24 20 19 21 20 17 17 17 18 21 22 23 22 23 24 22 20 22 25 30 33 36 38 35 32 31 27 23 20 18 16 14 11 9 8
21 19 20 18 17 15 14 15 15 17 19 19 19 21 22 24 22 22 22 17 14 13 13 13 11 12 15 17 18 17 18 20 21 21 19 21 26 31 33 32 32 31 30 27 25 21 19 18 16 13 11 10 9 7
18 20 17 17 17 15 15 16 15 17 17 17 18 19 19 20 21 19 15 10 6 5 4 3 8 11 16 18 19 21 23 26 29 27 27 27 28 31 32 32 32 30 26 21 21 22 20 16 14 13 11 9 7 7
16 18 18 18 16 15 12 14 15 16 16 17 17 18 18 16 16 15 9 3 2 2 6 12 15 15 16 18 19 20 24 26 28 28 28 29 30 29 28 26 24 23 23 23 20 17 15 15 13 11 9 9 8 6

GFSWCAN_700_spd_003.txt.gz
Wind_Speed
29 31 34 37 40 42 42 44 43 33 25 21 18 13 13 11 9 16 14 10 8 13 19 22 19 22 17 11 10 10 7 5 5 7 6 7 10 8 7 7 4 3 4 4 4 5 5 11 7 8 13 12 11 10
28 30 32 35 38 40 40 42 45 40 28 23 17 15 13 15 15 19 17 16 16 14 15 23 21 18 16 13 9 9 9 9 4 6 8 6 7 5 7 3 5 5 7 2 3 5 10 7 7 9 12 11 9 12
27 29 30 33 36 39 39 39 42 44 36 26 21 17 15 18 19 21 27 21 14 16 14 20 19 15 15 15 12 12 9 11 15 12 11 11 7 7 4 2 5 4 6 7 10 5 6 7 5 5 8 9 7 12
25 27 29 32 35 37 38 38 39 42 36 31 26 19 17 19 24 23 25 22 14 13 12 15 16 16 13 17 13 12 11 13 19 14 16 12 12 8 8 7 6 3 5 8 11 9 11 7 4 1 3 7 8 10
25 26 28 31 34 36 37 38 38 38 34 28 27 26 16 20 23 21 22 21 22 19 15 14 13 14 14 12 11 11 10 10 8 15 14 18 20 20 17 16 18 12 16 12 8 7 5 4 5 4 1 3 6 7
24 25 27 30 33 34 36 38 39 37 29 25 26 25 19 16 22 21 25 29 22 17 11 9 12 11 12 11 10 11 10 6 13 12 15 17 20 22 11 20 22 18 11 16 13 7 6 6 7 7 5 5 5 8
24 25 27 29 33 34 36 39 39 34 25 25 28 21 16 14 23 26 22 30 28 23 14 8 5 10 10 11 10 11 6 10 10 11 18 18 12 15 27 33 22 16 16 11 14 9 9 8 8 9 6 3 4 5
24 24 27 29 32 34 36 39 40 29 22 30 26 17 11 11 22 28 18 24 28 21 19 6 5 7 6 3 11 11 7 9 9 9 9 15 13 21 25 24 16 15 17 16 15 14 11 13 10 9 10 9 6 6
23 23 26 28 32 34 35 39 39 27 27 30 23 12 6 7 17 26 19 20 28 19 11 9 11 3 2 3 4 6 9 9 7 9 11 15 17 17 6 4 8 11 11 20 20 19 16 13 13 14 10 9 8 8
21 22 24 26 30 33 35 38 40 29 34 28 13 4 2 10 19 25 18 14 23 19 16 19 12 10 4 5 2 4 5 6 5 6 8 12 27 25 17 13 5 1 3 10 17 21 16 16 14 16 12 8 10 5
19 21 22 24 28 31 33 36 41 30 32 16 7 4 1 17 25 18 10 14 12 12 16 26 21 13 8 5 3 4 4 5 4 4 5 7 11 4 10 15 13 9 7 6 9 16 14 14 11 13 11 16 16 13
18 20 21 22 26 28 31 35 38 27 26 17 11 7 12 21 12 6 11 9 7 11 8 13 16 20 19 11 6 5 6 5 5 5 5 5 5 4 8 9 12 15 11 10 10 14 19 20 16 15 16 18 19 18
19 19 19 21 23 25 28 32 35 21 17 10 10 8 9 4 3 3 3 5 8 4 7 9 9 10 17 16 7 6 5 7 5 5 5 7 8 8 9 13 17 16 15 12 11 12 13 17 18 17 16 18 18 16
19 19 19 20 22 23 25 28 31 17 13 4 7 4 5 5 6 6 3 6 11 9 4 11 11 10 13 12 8 5 8 6 5 6 5 9 8 6 5 12 12 21 20 16 13 12 13 15 18 18 19 16 15 14
19 17 18 20 20 21 22 24 27 17 8 1 3 1 4 5 5 1 3 7 8 8 10 14 17 11 11 7 7 8 5 6 6 4 2 1 3 3 7 10 11 14 21 24 22 18 16 15 17 18 20 19 17 16
19 16 17 19 20 19 19 20 23 16 4 4 2 2 3 5 4 1 3 9 14 19 17 19 9 7 10 8 9 10 6 7 4 5 0 2 2 2 2 5 10 12 13 18 22 22 20 18 17 20 20 21 19 16
18 16 15 17 19 19 18 17 18 10 5 3 5 8 8 6 4 5 6 8 12 16 22 19 10 9 9 9 14 16 27 17 10 9 1 3 6 4 3 4 5 9 11 15 19 22 22 21 21 23 22 22 19 17
17 16 15 16 18 18 17 15 12 6 9 8 9 10 12 13 11 9 9 13 14 19 26 25 14 20 12 13 19 18 16 16 21 17 13 10 12 11 6 4 5 7 10 15 19 21 22 22 23 24 24 17 15 16
16 15 16 16 17 16 18 14 8 9 8 8 11 12 11 14 18 17 16 15 17 21 24 29 18 21 31 23 14 11 13 13 11 13 19 23 19 13 7 5 5 8 9 14 18 20 20 22 23 25 22 18 16 17
16 17 16 17 16 15 12 8 15 8 7 11 14 13 15 15 15 18 22 22 22 25 29 34 38 32 18 25 29 31 27 16 16 16 15 14 14 13 12 10 9 10 12 16 20 22 23 26 26 23 20 19 19 18
17 17 17 18 15 15 14 11 11 10 13 11 13 18 21 21 20 20 21 23 26 29 32 36 40 37 37 34 22 23 23 28 24 19 18 19 20 20 21 18 12 11 13 15 22 24 25 23 24 25 23 23 23 20
18 18 17 18 17 18 19 20 17 15 12 16 16 20 25 22 21 22 22 21 25 27 27 30 34 35 39 35 34 31 27 31 30 24 24 21 18 18 19 17 14 12 13 20 23 23 24 27 25 24 25 24 21 18
18 17 17 17 17 11 13 17 14 13 12 16 19 22 21 24 25 24 19 20 19 18 21 22 24 28 31 33 31 32 34 28 31 30 25 23 20 20 19 19 18 16 16 23 27 26 26 29 27 27 24 23 21 19
17 15 14 9 11 9 12 12 12 14 17 19 21 24 23 24 24 25 28 25 20 19 21 24 26 28 29 29 35 34 34 31 33 36 33 28 27 23 20 21 20 20 21 26 30 31 30 32 31 29 24 22 21 20
12 11 8 11 11 11 14 15 14 15 19 19 21 22 19 19 23 29 29 14 11 13 14 16 19 24 26 29 31 36 39 35 31 29 33 38 33 27 24 22 21 23 25 31 37 38 35 34 33 26 24 23 21 20
8 9 10 9 10 12 12 12 12 14 16 19 15 15 20 21 23 13 16 14 13 20 23 24 22 21 22 25 28 31 33 37 32 33 30 25 25 25 25 24 23 26 30 33 37 41 40 37 32 29 28 26 24 21
13 11 14 17 18 17 16 16 16 17 20 21 21 21 16 7 8 7 15 25 29 29 28 28 28 25 24 23 23 28 30 30 30 30 31 29 27 25 25 25 24 28 33 37 43 44 40 37 34 31 27 27 25 22
17 20 18 16 17 17 20 19 19 23 20 19 17 16 11 11 20 25 28 29 30 28 27 28 26 26 25 25 22 24 29 29 29 31 31 31 30 28 27 28 25 27 29 36 44 41 37 32 29 28 30 26 24 21
24 21 17 16 16 19 21 20 19 21 20 20 21 22 26 26 24 26 28 31 31 32 32 29 27 24 25 25 22 20 26 30 30 30 30 26 25 25 26 29 29 31 31 37 39 31 34 33 31 29 27 26 20 15
24 23 24 23 22 21 22 20 18 17 17 20 23 24 25 24 24 24 27 30 33 33 28 25 23 21 21 21 19 19 21 27 28 27 27 26 23 21 22 25 31 32 36 43 42 42 39 33 32 30 27 21 18 13
21 21 22 23 22 20 19 18 18 18 19 20 22 23 22 25 23 21 24 28 28 23 20 19 18 16 15 14 13 16 19 24 26 25 25 25 22 20 21 25 30 37 41 40 35 31 30 32 31 27 23 19 15 13
17 18 20 21 18 16 18 19 19 19 19 19 18 18 20 23 22 20 21 23 18 16 15 12 10 8 6 5 8 12 15 20 23 23 25 26 24 25 28 33 35 34 34 33 33 33 30 24 21 21 19 16 14 12
14 16 17 19 19 19 17 17 17 18 18 17 17 17 18 17 15 14 18 14 10 10 8 9 10 9 7 8 11 15 19 23 27 30 31 32 31 33 36 37 37 36 36 35 31 27 22 22 23 20 17 15 13 10

GFSWCAN_700_spd_006.txt.gz
Wind_Speed
22 22 24 27 29 31 32 33 35 39 43 37 27 15 13 14 14 15 13 13 11 11 12 14 17 18 15 8 5 5 6 3 4 7 5 6 7 6 6 8 4 6 7 9 6 6 5 12 8 11 13 10 6 5
22 21 23 26 28 29 30 31 33 37 40 39 28 21 14 16 17 16 17 16 14 12 12 19 18 20 19 16 11 8 7 6 3 4 4 5 6 5 6 4 8 7 10 4 7 6 13 9 6 9 13 7 8 11
23 21 23 24 27 29 30 30 32 36 39 37 27 20 18 15 19 20 19 18 19 16 11 16 24 19 18 15 16 10 10 9 10 13 11 9 10 6 5 7 8 8 9 8 8 6 11 6 4 5 10 7 9 11
23 21 23 23 26 29 30 30 32 35 38 35 22 20 22 14 18 23 21 24 21 13 15 16 19 23 20 16 15 12 13 12 12 15 17 12 11 10 10 10 10 7 6 6 11 8 11 5 3 0 5 6 6 3
22 21 23 22 26 28 30 31 32 37 36 30 19 22 24 17 13 22 22 27 25 17 12 15 19 19 16 13 14 13 11 10 9 12 12 17 15 18 21 21 24 14 14 15 8 8 8 4 4 3 3 6 6 5
22 22 22 21 25 27 29 31 33 38 33 23 23 26 24 16 10 16 18 21 26 21 9 14 13 12 13 14 13 12 11 11 8 12 20 18 16 15 12 24 25 16 12 9 11 13 7 5 7 6 6 7 7 8
22 23 22 21 24 27 28 30 33 38 32 24 28 29 20 14 10 20 21 27 24 22 12 11 7 13 12 11 12 11 12 10 10 16 16 16 18 11 29 32 18 18 16 16 13 10 8 8 7 7 7 7 7 8
22 22 22 22 23 26 28 31 34 39 33 31 31 22 13 8 12 23 25 23 26 22 16 6 5 11 10 9 11 11 10 10 13 16 18 13 12 18 22 14 10 14 17 15 11 14 12 12 9 11 8 8 5 5
21 21 22 22 23 25 27 30 35 39 34 31 20 8 2 6 15 22 26 18 24 17 13 11 8 6 8 3 5 3 6 10 15 17 17 12 18 17 3 3 6 9 12 15 16 20 18 14 13 10 9 8 6 4
20 20 21 21 22 25 26 30 34 35 30 24 15 11 6 6 18 26 17 13 24 14 15 12 13 6 4 1 1 2 4 6 8 11 11 15 26 13 20 15 9 4 5 7 17 22 20 15 12 14 12 10 8 7
21 18 21 19 20 22 24 28 33 30 23 21 13 7 7 17 24 14 6 7 9 7 15 18 15 7 4 3 1 2 3 5 5 5 6 7 7 3 8 22 24 12 8 6 11 18 18 15 11 14 17 14 10 11
21 18 19 18 19 20 21 24 28 27 19 17 14 21 20 9 7 4 7 6 5 7 5 11 14 16 14 10 5 5 5 5 5 7 6 6 3 6 5 9 15 17 14 9 8 11 21 20 16 16 18 12 14 15
22 20 18 16 16 17 18 20 24 22 13 10 12 7 5 5 5 2 2 7 8 9 9 8 9 13 15 16 8 6 6 7 6 5 6 7 7 8 5 9 11 19 16 11 11 11 12 16 17 17 19 18 18 17
19 18 16 15 14 16 16 17 19 20 6 6 2 4 3 3 4 4 6 12 13 8 10 18 14 9 8 10 8 5 7 6 5 6 11 12 10 8 5 8 12 15 15 13 13 12 13 15 18 18 19 17 17 18
19 18 16 15 13 13 14 14 14 16 2 4 3 1 1 3 5 4 4 7 12 14 7 12 16 10 8 6 6 7 5 6 7 5 7 5 6 6 3 6 7 9 15 15 13 12 11 12 16 18 18 20 19 17
19 18 16 15 13 12 12 13 12 12 3 5 5 4 4 3 2 3 4 6 9 10 9 15 8 7 9 6 7 7 6 7 2 4 4 4 5 7 6 3 8 11 12 17 20 18 15 14 15 18 19 22 21 18
20 17 15 14 12 12 11 12 11 7 1 2 6 10 8 6 4 2 6 7 10 11 14 14 9 9 7 9 10 11 9 8 5 5 5 4 3 6 8 7 4 8 14 16 13 16 20 18 19 21 23 23 23 23
20 16 13 13 12 12 11 11 9 5 3 0 2 5 10 13 11 12 10 10 11 13 18 24 18 16 13 12 14 16 16 14 13 16 14 12 13 15 14 12 8 5 8 14 18 22 22 21 22 23 24 25 24 22
21 15 13 13 12 11 12 10 5 6 7 7 3 3 2 4 7 9 13 16 16 16 17 22 19 26 25 24 19 16 16 17 15 16 20 21 20 20 20 16 13 8 6 9 14 19 23 24 23 24 26 26 22 18
20 17 15 14 13 11 9 6 9 11 8 7 8 8 7 7 10 13 15 15 15 21 26 28 32 33 31 22 25 30 32 27 20 15 17 20 20 15 14 14 12 10 10 9 11 18 22 24 26 27 27 25 22 18
21 19 17 14 14 12 11 10 9 8 10 13 13 11 12 13 17 17 17 18 20 23 25 28 34 37 37 36 36 42 36 34 38 35 33 26 22 18 17 15 14 16 15 13 12 18 24 25 24 27 26 25 24 22
23 20 16 15 14 13 15 17 17 16 14 16 14 14 15 17 18 17 19 20 24 21 22 24 27 32 37 39 40 39 36 41 44 36 31 30 28 25 21 20 19 19 17 17 16 20 23 24 25 25 26 29 26 24
21 18 16 14 12 10 12 15 16 17 13 12 11 15 16 19 21 18 15 19 22 22 23 23 25 28 30 33 35 35 38 39 41 38 41 35 35 32 29 25 22 19 18 19 20 24 27 25 25 28 32 29 27 25
20 17 14 8 12 12 14 14 13 12 13 15 15 18 20 21 23 22 24 24 23 21 21 22 24 24 25 27 32 33 34 37 39 37 38 39 41 35 34 30 25 22 20 21 23 27 31 30 30 32 32 29 26 24
16 13 10 13 13 13 16 16 16 16 17 16 17 19 19 18 20 25 25 16 14 15 16 19 23 27 28 26 24 25 29 33 37 40 39 32 44 39 36 35 30 24 23 23 26 30 35 36 33 34 34 32 27 25
14 12 12 12 14 14 12 12 12 14 15 14 12 14 18 22 19 14 22 12 17 24 27 28 30 31 31 32 31 27 27 29 32 38 38 41 35 36 36 36 31 26 24 23 27 31 38 41 36 40 37 34 30 27
15 10 15 17 14 12 14 15 15 15 14 15 19 21 17 7 8 8 15 26 29 30 31 32 32 32 31 28 31 31 28 28 29 31 34 37 37 35 36 38 36 31 29 25 28 33 40 45 44 43 38 35 31 29
19 19 18 15 17 17 20 20 20 21 18 17 17 15 10 10 19 27 27 30 31 31 32 33 34 37 36 33 31 30 29 28 27 28 31 34 35 34 37 37 35 35 33 29 27 35 41 45 44 40 38 35 34 34
23 21 18 17 17 18 20 20 20 20 19 19 21 20 24 25 25 26 27 29 31 33 34 35 35 34 28 27 25 27 27 26 26 25 29 32 30 27 33 37 36 32 29 29 29 31 41 39 38 40 38 36 32 27
25 23 20 19 19 21 21 20 19 17 19 20 21 21 22 24 23 24 26 28 30 32 34 33 30 29 26 25 23 24 24 23 23 25 27 30 30 29 31 33 34 33 33 32 33 37 43 43 41 39 38 31 29 29
26 21 20 20 21 19 19 18 18 18 20 19 19 21 22 24 22 21 23 25 26 28 27 27 27 25 21 19 18 18 19 20 22 24 25 26 28 29 31 30 30 32 34 35 37 41 44 43 40 34 32 33 31 22
18 20 19 19 17 15 15 16 17 19 19 19 19 20 21 22 22 22 19 20 22 21 21 20 21 21 19 16 14 14 15 17 19 21 23 24 26 29 30 28 29 33 35 41 43 42 39 35 34 37 33 30 24 22
17 17 15 15 13 13 13 14 15 18 18 17 17 19 19 20 19 18 16 17 15 14 14 15 17 16 12 10 9 9 10 13 15 18 20 21 24 27 27 26 32 39 44 41 39 37 37 37 35 31 29 24 23 20

GFSWCAN_700_spd_009.txt.gz
Wind_Speed
14 17 18 18 20 23 25 25 26 29 32 35 34 28 20 14 14 15 17 16 18 21 18 17 19 14 13 9 2 2 5 2 3 7 3 4 5 4 5 5 4 6 7 7 10 6 7 11 17 9 12 10 2 2
15 16 17 18 19 22 24 25 27 29 33 35 34 27 21 17 17 20 22 22 20 18 14 20 18 18 18 17 11 7 5 3 2 2 3 4 7 6 5 5 9 7 11 5 9 6 12 14 11 11 12 7 5 2
16 17 17 18 19 22 23 24 28 29 32 35 33 24 18 18 18 20 24 24 23 18 17 17 20 21 20 18 15 9 8 8 8 8 13 7 9 12 8 9 9 10 12 10 8 5 14 16 11 8 9 4 8 6
15 17 18 18 20 24 24 24 27 30 33 36 32 22 18 19 20 17 22 24 24 20 16 12 18 22 20 16 16 14 14 10 11 12 14 16 15 10 10 13 12 9 9 9 11 11 9 11 8 6 5 3 6 4
17 18 18 18 19 24 24 25 28 32 35 38 32 23 21 21 21 16 21 24 25 23 11 14 14 17 24 17 14 14 16 14 10 15 17 19 18 15 18 21 23 18 12 13 8 13 12 13 8 5 3 2 5 8
19 18 19 17 19 23 25 26 29 33 36 40 32 26 26 22 17 13 18 25 27 25 6 12 13 16 18 17 16 14 13 13 14 15 16 16 17 14 11 17 20 18 17 19 17 13 13 10 7 5 4 3 5 6
20 18 18 17 19 22 24 25 29 33 38 39 31 27 23 17 14 12 18 22 25 25 12 8 5 16 16 17 16 15 14 15 16 18 20 19 17 16 22 29 13 10 11 16 16 15 11 9 7 7 6 6 6 6
18 17 18 17 17 22 24 25 29 34 40 33 27 20 9 6 7 15 17 17 23 23 15 6 6 11 14 12 11 11 12 12 16 17 21 21 20 17 17 15 9 11 15 18 19 17 13 12 11 11 9 8 7 8
17 17 18 15 16 20 21 24 28 33 36 26 16 13 9 4 6 19 18 23 26 16 12 8 7 8 12 8 7 3 7 11 12 18 19 16 18 16 2 3 4 8 12 14 15 16 16 16 14 13 13 11 9 7
14 16 17 14 17 18 18 21 26 31 28 20 12 7 6 1 14 20 15 12 22 10 14 11 10 9 10 6 4 4 4 6 7 9 12 12 20 8 12 20 13 9 9 11 15 18 20 19 15 15 12 13 11 9
16 14 14 14 14 16 16 18 22 26 20 16 10 11 14 20 21 8 6 6 8 7 13 14 13 10 8 5 4 1 2 5 4 5 6 6 10 10 8 8 21 17 11 8 6 11 19 18 16 13 16 17 14 9
16 15 14 14 13 14 13 16 18 20 9 14 17 13 8 4 5 4 6 6 5 6 8 15 16 12 9 6 3 4 4 4 5 6 5 5 9 12 12 13 10 21 19 11 6 8 16 17 18 16 16 16 13 11
16 16 12 12 13 12 11 13 15 15 1 6 4 5 3 1 3 5 5 7 8 13 10 13 16 18 15 10 6 4 4 6 6 5 5 6 10 15 15 8 10 7 18 18 11 9 10 16 19 15 17 18 11 14
15 16 12 11 11 10 9 10 13 11 3 10 5 2 1 2 2 4 9 12 13 17 14 10 10 9 8 6 6 4 6 5 4 6 5 9 10 12 13 9 7 11 10 16 11 10 11 12 12 12 13 18 15 15
17 16 13 14 12 10 9 9 11 10 7 8 6 4 2 2 4 5 6 11 14 11 8 10 12 9 7 6 4 5 4 6 6 3 7 6 7 9 11 8 4 5 10 11 12 11 10 11 14 17 16 19 19 19
20 19 15 17 14 10 10 7 9 11 7 8 8 6 8 6 4 4 6 7 7 11 7 10 8 6 8 6 7 7 5 4 4 7 6 5 6 7 10 10 5 6 7 10 11 12 12 10 10 14 17 19 21 20
21 19 16 16 15 11 10 8 8 10 5 5 7 12 11 10 8 7 6 6 8 11 14 9 8 8 7 8 10 11 13 11 6 7 8 8 6 5 7 10 10 7 8 13 10 11 14 14 12 14 18 19 20 21
19 18 16 18 15 12 11 10 8 7 9 7 6 9 15 15 13 12 11 9 10 11 15 21 12 14 11 13 17 17 17 17 17 16 15 16 17 17 17 17 15 13 9 9 13 17 16 12 14 18 19 21 22 24
18 16 18 21 14 12 12 10 10 8 10 10 10 5 7 8 10 13 15 18 18 16 17 22 16 22 29 30 23 22 23 24 22 22 22 19 20 22 24 24 22 17 14 10 10 15 20 23 20 19 21 24 25 25
17 17 21 21 16 14 10 9 11 11 10 11 13 11 10 9 8 8 9 11 15 19 24 28 30 30 27 26 29 34 35 34 32 29 25 22 22 18 18 20 20 18 15 12 11 12 17 20 23 24 25 25 27 28
20 19 21 23 19 17 12 9 11 10 12 12 12 13 14 14 12 13 16 17 17 19 19 22 25 29 34 38 40 41 40 40 34 36 38 41 34 28 23 22 23 22 18 15 14 14 16 19 22 23 25 28 28 24
19 21 23 24 22 17 15 17 15 16 17 18 16 15 16 16 15 17 19 21 23 20 18 21 23 25 27 30 34 38 40 42 44 45 44 47 45 38 33 32 31 29 25 20 19 18 18 19 24 26 26 26 27 25
21 21 21 23 19 14 13 17 19 20 18 17 13 13 15 16 17 18 18 16 18 20 24 26 26 26 27 28 29 31 34 36 37 38 40 43 46 44 43 36 35 35 31 27 24 21 22 23 26 27 27 29 28 28
22 21 21 15 16 13 16 16 17 17 16 16 15 15 15 18 18 23 25 21 19 21 20 19 19 19 21 23 26 28 31 33 34 33 34 37 39 42 40 41 39 40 35 30 30 28 26 24 29 31 31 29 27 30
22 14 11 14 15 17 20 20 20 17 17 15 15 16 14 17 19 24 28 15 14 18 15 18 22 23 25 25 27 29 31 33 35 34 29 33 36 38 39 36 35 45 41 35 34 31 28 28 30 34 33 32 31 34
16 13 12 13 18 16 15 14 14 15 15 15 12 13 15 17 19 13 19 12 12 22 25 25 26 27 28 32 32 31 32 34 34 34 31 33 34 36 36 38 32 42 45 40 37 33 29 29 32 37 38 36 40 35
17 10 18 21 17 16 16 16 13 13 12 11 16 17 16 8 8 8 9 20 27 29 28 28 29 30 32 34 33 35 37 39 39 36 34 33 32 33 33 36 38 34 38 46 43 36 32 31 33 37 41 42 39 34
18 19 21 14 18 19 18 17 17 16 16 19 20 18 10 7 14 25 25 28 29 28 27 30 32 34 34 35 37 37 35 34 35 34 33 32 30 30 32 34 36 36 35 36 41 38 33 31 35 39 43 42 39 37
27 23 18 19 19 19 20 22 21 23 20 20 21 21 25 24 21 23 25 27 27 27 29 31 33 35 37 37 37 37 36 34 31 29 29 29 29 28 31 33 36 38 35 32 36 39 36 33 36 36 41 40 39 38
25 21 21 19 19 20 20 19 19 18 20 21 22 23 23 21 20 22 25 25 24 27 30 30 32 34 34 33 33 32 32 31 27 25 26 28 28 27 29 30 34 33 30 30 32 36 39 36 34 38 40 42 42 39
27 26 25 23 20 18 19 19 20 21 23 23 22 22 22 22 19 19 21 24 24 25 26 27 28 30 31 32 32 29 23 26 24 23 24 26 26 26 27 27 29 29 27 26 29 34 39 36 37 42 44 42 39 31
24 23 21 20 20 18 18 19 20 21 21 20 19 20 21 21 21 24 23 21 20 22 22 22 23 25 27 28 27 24 21 20 21 21 22 21 22 23 24 25 26 27 28 27 26 29 33 40 43 41 37 32 31 33
22 20 19 20 20 19 16 16 17 18 17 16 16 17 18 18 20 23 17 15 16 17 16 17 20 22 24 25 25 22 18 15 14 15 16 17 19 21 21 22 22 24 27 25 26 32 38 38 36 35 35 36 33 29

GFSWCAN_700_spd_012.txt.gz
Wind_Speed
30 23 16 16 17 17 18 19 21 21 22 23 25 25 28 31 20 22 22 21 19 21 18 22 21 16 11 8 4 4 0 3 4 6 3 3 3 3 6 8 5 9 9 7 12 7 9 3 16 12 16 16 14 9
28 22 15 15 17 17 18 19 21 23 24 26 27 26 27 28 27 21 26 26 24 25 20 26 24 21 16 16 10 5 3 3 3 3 2 3 4 6 6 5 10 8 9 6 9 6 5 15 18 15 15 16 9 2
28 27 17 13 17 17 17 19 21 23 26 28 30 29 29 26 26 24 19 26 26 24 21 21 23 22 22 22 18 7 6 6 7 5 7 6 6 9 9 12 15 10 13 18 12 4 7 15 13 11 10 11 4 2
28 26 19 13 17 17 17 19 21 24 27 31 33 33 32 25 25 26 22 19 25 20 18 12 21 23 25 25 20 13 11 10 9 9 10 11 11 11 11 13 16 14 13 9 15 9 7 9 13 10 7 5 4 8
24 24 19 16 18 17 17 19 21 24 28 33 36 37 32 28 28 28 24 19 22 23 13 18 15 22 24 25 19 15 12 13 12 11 12 13 14 20 19 19 26 20 22 18 13 10 13 15 14 9 6 3 4 6
20 23 22 19 18 18 18 18 21 25 29 34 38 35 32 32 28 25 19 16 23 31 7 19 11 15 19 23 18 14 12 13 14 14 15 18 13 16 12 17 21 11 15 16 19 21 17 16 13 8 5 4 4 9
22 21 20 18 19 18 18 18 21 25 31 35 36 31 29 22 14 11 7 6 22 30 10 9 9 13 14 18 20 15 14 14 14 15 19 21 18 20 26 33 20 15 18 20 22 20 17 15 10 8 6 5 4 6
22 18 18 17 18 16 17 16 21 25 30 34 30 23 18 14 5 3 13 11 16 22 9 6 7 9 15 15 15 13 14 12 13 14 17 19 19 21 19 11 4 11 19 22 19 18 18 16 13 10 9 7 6 5
19 17 18 20 17 14 16 15 20 24 29 29 25 16 13 10 5 10 12 14 17 14 7 7 7 9 16 11 9 8 9 6 8 13 12 13 16 12 8 8 7 6 11 13 17 19 19 16 15 13 11 9 8 7
16 16 18 19 16 13 14 14 17 21 25 22 16 9 6 8 14 11 9 7 16 4 8 13 10 7 14 10 9 5 4 6 4 6 9 10 8 7 11 10 15 15 10 8 10 14 17 17 16 16 16 15 11 9
14 15 19 18 15 12 11 12 14 16 13 12 19 21 19 16 12 8 6 5 5 5 10 13 10 13 13 11 9 6 2 3 3 2 4 5 6 8 10 12 15 14 17 12 8 11 12 16 19 16 14 14 15 13
12 12 17 17 16 15 10 11 11 11 2 2 5 8 7 4 4 4 4 5 5 5 13 15 14 12 11 9 4 3 3 3 4 4 5 2 3 10 13 13 10 13 11 16 8 4 7 12 16 17 15 14 16 17
12 13 16 16 16 15 11 11 9 8 5 10 8 6 4 2 2 6 7 7 6 12 15 20 17 13 10 7 3 3 4 4 5 5 3 2 9 13 14 12 9 9 8 15 12 8 10 14 19 18 15 17 19 15
11 14 15 15 14 14 12 11 9 7 7 11 8 5 3 4 4 4 8 12 13 14 11 13 16 12 14 8 5 4 5 5 3 3 1 6 8 10 13 12 7 6 4 6 16 11 9 11 8 17 16 21 21 10
13 15 15 16 16 16 12 12 11 8 7 8 7 6 7 5 4 4 7 10 11 13 9 13 13 8 10 5 4 5 4 4 4 2 5 6 5 8 11 12 9 2 14 7 7 7 7 6 8 8 3 5 11 11
16 18 17 17 18 17 14 13 13 11 11 9 11 8 8 7 7 6 6 9 11 11 9 11 10 6 9 6 7 8 5 5 4 3 5 3 4 4 8 12 13 8 4 6 8 3 4 4 6 8 11 11 13 16
20 21 15 17 17 17 17 13 14 14 6 8 8 13 11 11 10 7 7 7 8 9 15 9 8 8 7 8 10 10 12 8 6 7 11 12 10 9 10 11 12 13 11 7 9 8 11 9 10 10 10 12 15 17
24 19 16 17 18 17 17 13 13 9 11 12 11 8 12 15 13 12 10 10 10 11 16 16 12 13 8 10 15 15 15 18 18 17 18 17 17 17 17 18 20 20 16 14 11 13 17 15 11 11 14 15 18 21
22 18 17 17 17 19 18 14 14 12 15 13 12 11 9 13 17 18 17 16 15 14 15 20 14 17 23 26 19 18 21 23 24 23 23 25 23 23 22 19 18 19 22 20 16 14 13 18 19 18 17 16 16 22
21 18 18 18 18 20 18 13 14 12 14 13 13 15 13 10 10 10 12 13 15 18 22 27 28 26 25 24 25 27 30 34 36 37 33 31 29 28 26 24 21 17 16 16 15 15 16 14 16 20 22 21 22 24
23 21 20 18 20 21 23 12 13 11 12 16 15 12 16 15 15 16 14 14 16 17 19 21 24 25 29 32 33 34 36 39 41 42 42 40 41 41 39 37 33 28 22 18 19 18 16 17 16 17 18 21 24 25
24 21 18 22 23 20 24 22 17 17 16 17 12 12 16 18 18 19 18 19 21 19 19 18 20 22 24 27 30 32 34 35 37 38 39 41 43 45 45 44 39 38 39 32 26 25 23 21 20 18 18 20 23 26
23 21 23 25 22 15 16 21 23 23 18 19 19 17 20 21 21 20 21 21 16 17 22 22 23 25 26 27 27 28 30 31 31 31 31 32 32 34 37 40 45 45 39 37 37 31 29 27 25 22 20 22 27 28
24 23 24 15 14 15 18 18 20 22 21 20 21 19 16 16 17 20 24 24 18 20 22 21 20 21 21 22 23 25 27 28 29 28 30 32 32 31 33 33 36 39 38 37 39 37 33 32 28 27 25 25 28 26
24 20 16 17 16 17 21 21 21 18 17 16 17 16 13 14 16 22 27 23 15 14 16 13 17 23 26 27 27 27 28 30 31 31 29 34 35 35 34 33 32 33 35 34 37 39 38 35 33 30 30 29 29 28
26 18 11 13 19 18 17 17 20 21 21 19 14 15 16 16 17 11 20 17 13 11 18 21 24 25 22 22 23 24 29 33 36 36 33 36 37 37 36 35 34 29 31 32 35 38 41 40 38 32 34 32 32 33
23 14 23 23 18 17 20 19 18 13 13 11 15 16 13 9 9 10 7 12 19 23 23 25 26 25 23 23 27 30 33 37 39 38 36 36 34 34 34 34 34 29 29 32 36 35 37 40 42 38 34 35 34 37
26 26 22 13 22 23 18 15 15 15 15 17 19 16 9 7 7 15 22 24 24 24 24 26 27 27 27 29 31 35 37 39 39 40 39 36 35 33 32 33 32 29 28 31 37 34 32 36 38 38 36 36 36 37
31 26 23 21 20 18 19 21 22 22 22 21 21 20 23 23 21 23 25 25 24 24 25 26 26 28 28 31 34 36 36 38 40 41 39 34 30 29 32 29 28 28 27 29 33 34 29 27 31 33 35 36 36 36
30 28 27 24 21 20 20 20 18 15 16 18 20 23 24 23 23 23 24 23 24 25 28 28 26 27 29 31 31 32 35 36 39 39 35 29 26 25 25 25 25 26 25 27 29 31 31 29 31 33 34 33 36 37
32 28 25 23 22 20 18 18 19 20 22 23 23 23 24 25 21 19 20 20 23 27 27 23 24 26 26 28 31 34 34 35 37 36 33 27 23 22 23 24 24 22 22 24 24 27 28 26 29 32 33 37 39 40
25 26 26 26 24 21 20 21 21 22 21 20 21 23 23 22 21 17 13 19 23 20 18 19 20 21 25 29 33 35 37 36 31 29 26 23 20 21 22 21 20 19 21 21 24 25 23 25 28 30 36 40 41 40
29 27 25 23 20 19 17 17 19 21 20 19 19 18 19 21 20 16 16 19 17 15 16 17 18 21 25 29 31 32 34 32 25 20 18 17 16 16 16 16 16 17 18 20 20 20 23 26 29 38 41 39 35 32

GFSWCAN_700_spd_015.txt.gz
Wind_Speed
44 40 37 28 23 15 18 17 13 15 16 16 17 18 19 20 25 26 17 17 23 27 23 26 21 18 17 13 9 6 6 5 11 10 6 4 4 5 5 7 6 10 10 9 15 8 9 2 12 12 21 18 17 12
42 37 31 20 21 14 16 19 15 16 17 19 20 21 22 22 23 22 23 21 21 25 21 31 30 26 20 16 11 11 7 8 6 8 6 5 3 3 4 4 8 10 11 6 11 5 4 8 16 19 17 15 15 6
29 27 21 19 21 20 12 17 15 17 19 21 24 26 28 29 29 25 21 21 21 22 26 30 30 30 25 19 18 15 9 8 7 6 7 5 5 7 6 6 13 13 12 17 13 3 1 10 15 13 16 12 10 5
25 20 17 19 21 18 13 16 15 18 20 23 26 30 32 36 30 27 23 22 19 19 22 20 31 33 29 26 25 18 11 10 7 8 9 10 9 8 10 12 19 18 15 12 18 17 16 9 11 17 13 9 7 6
15 15 15 20 22 20 16 15 17 19 21 24 28 32 35 33 28 28 23 20 18 13 11 25 22 29 28 29 29 25 17 14 11 12 11 10 12 14 17 20 20 13 18 23 23 12 11 13 15 17 11 8 6 6
14 14 13 16 20 19 18 17 18 21 23 25 30 35 32 27 21 18 15 10 15 15 23 22 16 20 25 28 29 24 19 18 14 12 13 14 11 14 12 19 18 6 8 9 17 20 20 20 18 16 10 7 6 6
14 15 12 15 17 16 15 15 16 22 24 27 32 31 26 18 13 5 3 2 9 20 20 8 14 18 22 25 26 23 19 14 13 12 15 16 14 16 23 25 16 11 17 15 17 18 21 19 17 13 10 8 6 7
13 11 12 14 15 17 16 14 16 20 23 28 29 25 16 11 8 1 9 7 5 10 13 4 12 18 19 21 23 23 17 14 12 12 12 12 10 10 6 11 7 6 12 19 20 23 20 19 16 14 11 9 9 7
9 9 12 14 13 15 16 14 15 19 21 23 20 14 11 9 9 10 6 6 6 12 4 7 16 17 20 17 17 16 14 8 9 11 9 7 8 5 12 10 12 12 10 10 18 21 20 20 19 17 13 10 8 7
8 9 12 12 12 14 15 13 13 13 15 11 14 19 17 16 14 14 10 6 9 3 4 11 9 14 21 15 13 9 8 10 6 7 7 5 3 2 7 10 13 8 11 13 12 9 10 14 16 14 13 16 15 10
9 10 12 13 12 14 14 12 10 8 3 5 8 10 9 8 7 5 5 3 1 3 7 13 9 17 16 14 17 9 6 6 5 5 5 5 6 4 9 14 13 11 9 10 14 9 8 11 15 18 17 19 22 19
10 11 11 12 12 14 13 13 9 7 5 10 8 12 7 2 1 2 4 5 4 2 10 12 12 14 16 13 8 7 5 6 4 7 4 4 3 8 12 14 12 9 11 11 13 9 2 8 8 14 17 15 13 16
11 13 12 12 14 14 14 14 10 8 9 10 13 8 4 4 4 5 5 5 5 9 16 16 13 12 12 7 4 4 4 4 3 4 3 3 4 9 12 12 9 5 11 16 15 10 7 9 13 12 22 18 15 15
11 14 13 13 13 14 13 14 10 9 9 9 10 6 4 5 5 5 7 8 9 11 13 18 17 13 10 9 4 3 5 4 4 4 4 2 3 6 10 12 7 4 7 7 14 9 7 9 8 11 14 20 17 18
12 14 15 13 13 15 15 15 14 10 9 8 6 6 9 9 7 6 8 11 10 10 11 10 15 13 9 6 6 7 4 5 5 5 4 2 1 2 7 11 11 6 6 8 12 7 2 6 6 8 2 15 19 14
10 15 14 15 16 17 17 16 18 12 11 10 10 8 6 9 8 6 7 8 11 13 11 13 11 6 9 6 7 8 4 5 7 10 4 2 2 4 6 7 9 12 13 7 5 4 1 2 4 5 5 5 7 10
12 14 14 17 17 16 17 17 20 18 6 7 9 12 16 11 11 8 7 7 13 16 14 11 8 8 6 6 8 9 11 7 11 11 8 6 8 9 10 12 14 14 12 11 10 8 10 12 11 9 8 6 10 14
17 12 16 18 18 17 17 16 19 14 10 13 15 12 10 12 16 14 10 9 9 11 18 17 11 13 8 8 14 13 13 12 13 14 15 15 14 14 14 13 13 14 16 15 13 10 9 14 14 8 9 12 13 16
15 14 18 18 19 17 16 16 18 11 14 14 13 12 12 10 14 17 15 13 12 12 16 23 13 18 25 26 22 17 17 19 19 19 19 21 23 22 22 24 22 20 18 17 16 14 12 10 12 17 19 17 12 12
15 17 19 20 19 17 16 11 15 17 16 16 17 13 12 12 10 13 17 18 19 20 21 24 25 23 23 21 21 20 21 24 27 29 31 33 34 34 34 34 32 29 24 20 18 16 15 14 13 13 16 20 22 20
25 22 21 20 19 18 16 11 13 12 16 19 18 16 16 15 17 15 14 15 17 20 19 18 19 21 23 26 28 29 29 30 32 34 36 37 37 40 40 39 39 38 38 35 31 27 21 20 19 17 15 16 20 21
26 22 22 22 20 19 22 20 16 18 19 16 15 14 12 13 14 18 19 23 25 21 18 19 20 22 23 24 25 26 27 28 30 31 33 34 33 34 35 36 37 37 38 40 41 39 36 31 26 23 20 19 20 21
26 24 23 22 20 17 18 20 19 21 22 22 19 20 19 20 20 21 24 27 24 17 16 19 22 21 20 22 24 25 26 26 26 25 26 26 26 27 27 27 29 31 32 32 37 40 40 37 34 29 26 24 23 24
28 27 27 15 15 17 19 18 19 20 22 23 24 23 19 19 20 21 23 22 15 16 20 22 25 24 21 21 21 23 27 28 29 29 29 29 28 26 29 29 29 28 29 30 32 33 36 38 36 33 31 28 27 26
30 23 18 19 20 21 24 23 21 22 21 20 19 16 12 12 15 21 23 19 17 21 22 18 17 16 18 21 23 25 26 26 26 23 22 30 33 33 32 33 32 31 32 32 31 32 32 36 37 33 31 31 29 27
32 23 13 15 21 24 24 23 23 23 25 23 13 12 14 16 19 11 20 17 16 14 11 12 18 20 19 21 21 22 23 24 27 26 25 32 35 37 35 32 28 25 31 35 34 32 31 32 36 33 32 31 29 30
28 19 28 30 21 17 20 23 23 21 18 15 17 16 14 9 9 12 11 9 8 15 20 21 20 21 20 22 23 23 24 26 29 32 33 32 33 35 37 36 31 29 32 32 33 33 31 31 33 34 32 32 31 31
41 43 34 20 19 25 20 21 22 22 17 16 16 12 8 8 9 9 12 21 24 25 24 22 22 23 23 25 24 23 25 30 33 34 34 32 32 34 36 36 33 31 31 31 31 32 32 31 32 35 33 35 33 32
45 40 36 31 23 18 24 30 24 19 17 16 16 16 20 20 19 22 25 26 27 26 24 24 24 25 27 26 23 25 28 31 33 33 34 34 33 33 38 34 31 30 29 30 29 30 30 29 30 32 32 33 33 35
51 42 32 27 26 29 28 24 19 16 18 20 21 21 21 20 21 23 25 26 27 25 25 25 25 28 26 22 22 24 29 33 35 37 38 38 37 36 35 32 29 25 25 25 25 26 27 28 28 32 29 31 33 35
40 35 31 29 30 28 25 23 20 19 20 20 22 23 23 24 21 21 23 24 24 23 22 24 27 24 20 22 24 25 27 32 35 39 41 42 37 33 29 26 23 21 20 21 22 23 24 25 26 26 25 27 32 33
32 28 29 29 28 25 23 21 20 21 22 22 22 22 21 22 23 20 15 18 19 18 21 22 21 21 22 23 25 29 31 33 37 40 41 40 33 25 21 19 19 19 19 20 20 21 21 21 22 23 23 25 30 35
30 26 25 24 24 25 23 21 21 21 21 21 21 20 21 24 23 18 16 15 15 18 18 18 18 19 21 23 25 29 32 34 37 37 36 30 22 17 14 14 15 16 18 18 19 19 19 20 21 22 23 29 37 41

GFSWCAN_700_spd_018.txt.gz
Wind_Speed
26 29 32 35 33 28 19 19 13 16 18 16 14 15 15 18 18 19 26 25 23 23 20 27 24 22 21 18 15 10 11 13 15 14 9 8 7 10 7 8 8 14 11 11 13 7 10 2 4 8 15 17 19 19
26 30 35 35 27 18 17 18 16 17 18 18 18 19 18 20 21 24 24 29 31 34 19 32 35 31 26 26 21 16 13 11 10 12 10 6 7 7 8 4 11 10 13 5 11 5 6 10 14 14 16 19 18 15
25 30 26 25 19 13 17 19 16 14 18 20 21 22 23 24 27 30 29 28 32 36 36 31 39 34 34 29 23 21 15 15 10 10 8 8 7 9 8 10 12 12 14 17 13 7 7 7 11 15 14 19 16 10
18 20 20 16 13 12 17 19 16 13 18 19 21 24 28 30 33 34 33 27 29 32 35 28 30 49 40 32 27 20 19 15 11 9 9 7 7 8 9 10 12 13 16 20 22 20 19 16 11 11 14 15 12 8
20 18 15 12 12 13 19 22 19 16 19 19 22 26 31 34 33 30 24 21 20 24 19 12 25 40 43 36 24 26 19 15 13 10 9 10 11 11 14 15 10 8 6 13 25 19 19 16 14 13 15 13 11 8
20 18 16 15 13 14 16 16 16 17 18 21 25 29 33 33 26 18 15 11 13 15 21 19 22 34 37 39 31 27 25 18 13 11 12 14 12 14 9 13 18 11 13 17 20 21 26 22 20 17 15 12 11 9
18 17 14 15 14 15 17 15 14 17 16 21 26 31 27 21 14 9 5 5 5 9 13 9 6 28 29 31 33 29 27 22 16 15 15 14 13 16 17 19 7 6 7 16 19 20 20 18 19 17 15 12 11 9
16 13 11 12 12 14 16 15 14 12 16 21 23 18 15 10 7 2 2 4 6 4 2 6 2 31 29 28 28 29 26 20 16 16 15 11 10 10 10 8 13 15 11 5 18 19 19 20 19 17 15 13 11 9
12 12 12 13 14 14 12 11 11 9 13 13 11 16 13 13 14 9 8 5 10 4 5 8 6 27 27 24 22 25 21 17 14 15 14 10 10 11 11 10 8 12 13 14 12 21 20 21 20 20 17 17 14 14
9 10 11 11 12 11 10 10 8 6 8 1 6 8 9 9 13 10 10 4 5 8 8 6 10 22 23 23 21 17 17 16 9 7 6 12 15 16 12 12 13 14 11 12 12 13 15 16 15 17 17 16 18 17
9 8 11 12 13 13 11 9 7 6 7 7 5 7 9 8 5 1 2 1 1 3 5 9 12 18 21 21 19 10 9 7 5 6 9 6 7 14 10 13 16 17 13 11 11 12 11 9 10 12 16 17 19 19
8 9 10 12 13 12 11 10 8 9 9 9 15 14 12 10 3 4 3 3 1 2 5 8 15 13 18 17 8 9 7 7 5 10 5 5 8 6 7 10 13 12 9 15 10 10 12 6 5 8 10 16 19 21
11 10 12 13 13 12 12 11 9 10 11 10 11 11 8 6 6 5 3 3 3 5 11 8 11 13 16 10 5 7 5 5 5 6 5 6 5 1 4 9 9 8 11 14 15 15 14 10 10 9 12 17 20 20
13 10 13 14 13 12 10 10 10 11 9 11 7 7 6 6 6 7 9 9 8 7 12 13 11 9 11 9 4 3 4 5 5 6 6 11 5 2 4 8 6 5 8 16 10 14 14 8 8 7 14 15 21 23
14 11 14 13 13 13 11 11 11 11 12 7 6 6 10 12 8 8 8 11 11 9 10 16 15 12 10 5 5 6 4 6 7 7 12 10 8 5 1 3 8 11 9 8 10 13 9 6 3 6 11 9 16 23
14 15 13 13 13 13 14 14 13 13 15 16 10 10 9 9 10 10 5 8 13 14 12 10 8 7 8 5 6 7 4 6 6 12 10 10 8 5 5 6 8 8 8 9 9 8 8 3 3 7 9 9 7 15
17 18 11 13 14 15 15 15 14 14 10 10 12 13 14 16 17 10 7 8 11 17 16 11 9 8 7 6 8 9 12 6 7 14 12 9 6 6 8 9 9 9 10 9 9 8 7 10 11 9 11 10 5 6
17 15 11 12 15 16 17 16 15 12 14 19 22 18 13 14 11 14 11 9 12 19 20 13 15 13 8 10 16 15 14 11 11 13 15 13 13 14 14 13 14 15 16 16 14 11 10 10 12 14 8 5 5 12
17 14 12 15 18 17 17 20 15 14 17 17 20 19 12 12 11 13 16 14 13 13 21 23 12 17 23 20 17 19 18 15 15 15 17 19 19 20 22 22 23 25 26 25 22 19 15 13 13 14 16 20 17 15
17 15 16 17 19 17 16 12 16 14 12 14 19 18 19 13 12 13 16 19 18 19 20 24 25 21 17 14 15 18 20 20 20 21 23 25 27 29 31 33 34 33 33 32 30 28 25 23 18 16 17 17 20 22
18 19 21 19 20 19 18 15 14 11 11 14 16 17 17 15 14 16 17 17 20 25 25 23 21 21 22 23 25 26 26 26 27 28 29 30 32 32 33 34 34 35 34 33 33 34 33 32 31 27 21 19 19 22
19 22 25 26 23 22 23 22 19 19 18 20 19 17 18 19 19 16 19 23 24 18 18 17 17 18 20 22 23 24 25 25 26 26 27 27 28 29 29 29 28 27 28 29 31 31 32 35 36 36 32 28 24 22
22 24 36 29 23 20 20 20 19 20 19 21 20 18 19 20 20 19 21 23 22 18 19 20 21 21 20 21 20 21 23 23 23 23 25 25 26 27 27 26 27 26 24 25 29 29 29 31 34 36 37 35 30 27
22 28 36 20 18 20 22 19 17 18 19 19 21 20 20 21 21 23 28 28 20 14 14 16 18 19 21 24 23 22 22 23 24 25 27 27 25 23 22 22 25 27 30 27 27 28 30 30 31 32 34 35 34 32
18 28 24 20 24 25 27 27 24 23 24 22 20 18 14 15 15 20 22 19 16 14 16 18 18 21 19 18 19 22 25 26 25 24 22 26 27 25 24 27 29 31 33 33 32 30 28 30 31 30 31 34 34 33
25 20 15 20 27 30 29 24 25 25 25 24 19 18 17 15 16 11 15 13 14 14 14 13 11 11 16 21 22 23 25 26 28 27 24 27 28 31 32 32 29 25 31 35 33 31 29 28 30 30 29 30 35 35
24 21 24 36 34 27 21 21 21 22 18 17 21 20 17 9 9 12 10 10 8 6 7 13 18 19 19 20 21 22 23 27 29 28 25 25 27 30 32 33 31 27 29 30 34 34 32 30 29 29 30 31 30 34
28 28 34 35 33 30 27 26 24 22 21 22 22 14 7 7 7 6 8 8 12 17 20 21 22 21 20 20 21 23 27 30 28 26 26 26 26 29 33 35 34 34 33 32 33 34 34 32 31 29 30 31 30 33
40 38 36 37 32 27 25 22 22 25 26 24 19 17 21 19 16 16 18 21 24 26 25 25 24 23 22 22 24 28 29 27 27 28 29 28 28 30 35 38 38 37 37 36 35 33 33 32 30 29 30 32 31 33
45 42 39 37 37 40 38 33 31 28 27 23 22 23 22 22 22 21 21 23 24 25 27 26 25 24 23 25 27 27 26 27 29 31 33 32 34 36 39 41 42 41 39 36 31 31 30 29 29 30 31 31 29 32
42 42 40 38 37 36 33 32 30 26 25 23 23 23 22 23 21 22 23 23 24 27 25 23 22 22 24 27 25 24 24 28 31 33 36 37 39 41 42 43 41 37 31 27 25 24 23 23 24 24 25 25 26 28
37 44 41 39 37 34 36 34 29 28 28 28 25 24 23 23 24 23 18 19 22 21 20 19 20 23 24 24 24 25 26 27 30 33 36 39 41 42 42 36 29 23 20 19 19 19 19 19 21 21 21 23 26 25
32 33 34 35 34 32 28 26 26 27 26 24 24 23 23 24 25 23 22 19 17 17 16 17 20 22 21 21 23 24 27 29 32 34 37 38 40 35 26 20 16 14 14 15 16 17 17 17 18 20 21 23 23 23

GFSWCAN_700_spd_021.txt.gz
Wind_Speed
28 26 26 27 29 26 27 24 17 16 18 14 17 18 19 19 19 21 24 25 25 25 19 20 25 26 24 21 20 14 14 17 16 16 11 8 8 12 8 9 7 13 11 11 14 8 11 3 3 3 9 13 16 17
24 25 23 26 23 21 22 17 13 16 18 16 16 19 18 20 22 25 26 29 34 36 33 27 23 31 31 26 25 22 17 9 16 13 14 9 8 7 12 7 16 11 16 6 12 5 6 5 12 10 13 13 17 14
15 14 17 20 22 21 15 13 13 17 21 18 13 18 19 21 24 28 29 33 38 43 43 41 32 31 41 34 27 29 21 16 16 16 12 10 8 11 12 15 14 13 13 20 17 10 14 18 11 11 11 12 16 11
14 15 18 21 21 14 11 12 14 16 19 20 14 18 22 25 27 32 35 33 34 37 43 42 36 30 44 43 39 31 22 22 17 14 14 11 11 8 11 11 12 15 15 17 23 24 20 19 18 17 17 14 15 11
17 17 19 22 20 14 14 15 16 18 19 21 17 18 25 29 33 36 31 26 25 24 35 38 26 21 30 49 40 30 26 22 20 16 13 12 11 9 9 14 18 8 12 16 20 20 26 20 16 16 17 15 15 12
17 17 19 21 19 16 15 14 15 15 18 21 16 23 27 31 29 24 19 14 12 14 22 28 13 12 27 48 43 38 27 19 24 20 12 11 10 11 8 10 9 12 16 19 24 22 21 23 21 22 21 20 16 13
18 18 19 20 17 16 16 16 18 18 17 14 19 23 21 19 14 10 10 8 10 10 13 14 9 6 26 43 45 33 29 24 17 13 14 11 11 13 16 22 16 12 13 15 13 19 20 18 18 18 18 17 14 12
18 18 18 17 15 15 15 15 16 14 14 13 14 13 13 11 5 3 4 4 7 9 11 11 12 11 24 25 32 23 26 19 16 16 15 13 13 13 13 12 10 11 12 15 15 15 14 16 20 19 17 16 15 12
19 17 15 16 15 16 16 14 12 11 9 10 6 9 12 12 10 5 5 5 7 9 10 9 11 9 9 24 25 24 19 19 16 17 17 12 14 11 13 13 13 15 12 10 14 16 16 18 19 19 18 17 17 15
21 17 13 13 15 14 14 14 11 9 7 8 7 7 7 13 13 11 6 7 9 9 12 16 13 8 18 23 20 20 16 13 6 15 13 15 20 20 21 19 16 14 17 17 14 14 17 18 21 20 18 19 19 17
20 16 14 12 13 12 11 12 11 10 8 9 12 11 13 15 16 8 5 2 4 4 7 5 10 17 16 18 17 14 10 10 6 9 11 7 14 17 18 13 14 16 17 12 11 12 13 13 11 11 14 17 19 18
19 14 13 13 13 11 9 9 9 9 11 9 14 15 16 14 6 4 4 2 2 2 3 2 7 17 15 21 15 9 6 6 3 7 8 7 15 13 8 9 13 14 10 9 13 17 16 12 11 9 7 10 15 18
15 16 15 13 13 12 10 11 8 10 11 10 12 12 6 6 6 4 3 2 2 2 2 4 4 12 13 13 6 5 7 7 6 7 6 12 9 10 6 6 7 3 4 9 21 15 12 17 13 11 10 9 10 19
15 15 18 14 12 12 11 11 10 10 11 9 7 8 7 5 6 7 8 7 8 5 8 7 4 4 7 9 3 3 6 5 5 7 8 10 13 8 5 2 4 6 7 10 14 16 7 13 12 9 10 13 17 18
16 16 19 15 12 12 11 11 12 11 11 10 6 7 9 10 8 9 10 10 11 9 9 12 11 7 6 4 4 4 4 5 6 6 8 15 13 10 7 3 2 6 8 10 9 11 14 8 5 6 10 13 13 16
16 19 17 15 12 12 12 12 13 13 14 14 13 11 10 9 11 11 11 11 13 13 10 13 11 6 8 5 6 6 4 5 4 6 13 14 13 11 9 6 4 5 6 7 9 10 10 8 8 8 8 13 16 9
18 19 14 14 13 12 13 14 15 16 9 8 12 14 23 23 13 13 12 8 12 16 14 10 8 8 6 7 9 8 11 8 7 8 14 12 12 10 8 7 7 7 7 8 9 11 12 12 11 12 11 10 11 10
18 15 15 14 14 14 15 16 17 16 17 20 19 20 21 20 15 12 12 12 15 17 22 15 12 13 8 9 12 12 12 9 9 9 14 15 14 12 11 13 14 14 14 14 15 17 16 15 14 13 12 11 7 5
21 15 17 15 15 16 18 21 17 16 21 21 19 20 20 19 19 13 13 16 16 20 24 24 13 19 26 23 16 14 16 17 14 13 11 13 16 19 20 20 21 23 24 25 25 24 23 21 19 17 16 15 15 19
22 19 19 16 17 18 19 17 20 18 17 18 17 19 19 16 18 14 14 17 21 22 23 29 32 26 14 13 13 14 15 17 17 18 19 20 22 23 25 27 28 30 30 31 32 32 30 28 26 23 22 19 18 18
22 23 24 23 19 19 20 18 19 14 15 17 17 18 18 17 15 21 16 16 20 27 29 28 24 22 22 23 24 25 25 25 25 24 24 25 25 26 27 28 28 29 30 30 30 29 29 29 28 28 28 27 25 22
17 18 23 22 23 25 27 28 24 24 22 24 22 21 20 18 16 14 20 24 23 22 21 15 14 17 18 19 20 19 21 22 22 22 22 23 24 25 27 27 27 28 29 30 29 28 27 28 27 27 29 30 30 29
18 18 21 21 25 30 28 28 23 22 20 23 21 21 20 19 19 18 20 20 23 19 14 15 19 22 24 25 24 20 20 22 23 24 24 23 24 25 25 27 28 28 26 27 28 27 27 27 28 27 27 28 30 32
20 21 17 18 23 25 27 23 25 23 21 20 22 23 23 21 22 24 25 23 16 17 20 18 20 21 23 23 21 23 24 23 21 19 21 22 23 24 23 24 25 25 26 24 26 26 26 26 27 28 27 27 27 30
13 14 14 21 29 31 34 34 30 27 26 25 26 26 25 26 25 27 23 15 10 12 14 16 20 17 18 20 22 23 20 19 20 21 22 23 23 23 24 26 26 27 31 33 32 30 27 26 25 25 26 28 28 28
18 13 14 17 26 29 31 28 29 28 24 22 22 22 22 22 23 16 20 13 9 9 12 13 14 14 13 13 16 20 22 22 22 21 21 25 26 29 28 28 27 25 31 34 34 32 29 28 27 28 27 27 29 30
23 16 19 27 30 27 24 25 24 22 18 18 19 20 17 8 9 11 10 6 8 8 5 4 5 9 12 15 17 19 20 22 23 23 24 26 27 29 30 31 30 29 30 31 31 32 32 31 31 31 30 29 28 29
30 33 33 31 26 26 28 28 26 23 22 21 17 17 9 7 6 5 5 6 5 9 14 18 20 19 18 19 19 20 21 22 24 26 28 27 25 27 30 32 32 32 32 32 32 32 34 35 35 34 32 30 30 29
38 37 35 36 34 31 32 33 31 28 26 22 22 25 26 22 20 21 20 18 17 19 20 22 23 21 22 23 21 21 22 23 27 28 28 25 25 28 33 35 36 37 38 37 37 38 38 38 38 37 35 32 31 31
41 40 38 38 38 42 41 35 29 26 26 27 30 32 31 27 22 20 21 22 22 22 24 26 25 25 25 23 22 22 24 27 28 29 30 29 30 31 32 35 37 39 42 42 42 43 44 41 39 37 35 33 31 31
34 36 38 39 40 37 38 37 29 27 29 31 32 33 32 27 22 21 22 23 23 25 26 25 26 26 24 22 22 24 27 28 28 30 31 32 33 33 36 38 41 43 44 45 44 40 36 35 32 30 29 27 27 28
32 32 34 38 39 37 33 32 30 28 27 29 33 34 31 30 29 24 19 20 22 24 24 24 21 20 21 22 24 25 24 25 28 30 31 33 35 36 38 41 42 43 40 34 27 23 22 20 19 18 19 21 23 24
25 27 28 33 35 33 32 30 27 27 29 33 33 30 28 27 27 26 22 21 22 23 21 18 18 18 20 21 22 22 23 24 27 29 32 34 36 38 39 39 35 28 24 19 15 13 12 13 14 15 16 18 19 20

GFSWCAN_700_spd_027.txt.gz
Wind_Speed
21 21 22 24 21 19 19 24 23 19 15 13 13 14 17 17 22 12 14 14 16 18 16 20 21 22 20 19 20 18 16 21 19 18 12 9 10 13 11 9 11 14 12 10 12 7 9 10 12 10 7 5 5 6
22 22 22 23 21 17 18 25 22 16 13 11 11 14 14 19 20 23 21 18 18 21 19 22 24 24 22 19 25 24 24 13 19 14 18 12 12 10 15 7 17 13 13 7 10 3 5 7 12 10 8 7 7 5
24 24 23 24 21 16 20 23 24 16 15 15 16 15 16 19 23 24 23 27 32 32 29 18 15 17 20 31 33 34 29 25 21 25 16 16 10 14 15 17 13 21 16 16 12 14 11 12 14 14 14 11 10 9
20 21 23 22 20 18 21 23 24 18 17 17 16 17 17 18 23 22 21 20 24 30 35 11 16 18 25 24 35 39 33 31 22 25 25 19 16 13 14 15 13 17 16 18 22 19 14 18 20 20 18 19 16 15
17 18 20 22 20 21 22 23 23 18 19 20 19 20 21 22 18 18 21 20 20 16 22 17 18 17 20 23 24 37 43 37 37 20 24 24 25 18 14 15 19 16 18 19 21 17 17 19 18 23 24 23 22 19
17 16 17 21 22 22 23 26 23 19 19 19 20 18 16 16 19 15 8 5 7 11 17 15 10 11 17 20 22 26 39 50 39 29 23 26 22 19 11 20 20 15 16 15 15 15 17 15 17 19 22 25 26 21
21 17 17 19 22 22 25 25 21 20 21 17 18 13 10 13 15 10 7 10 11 14 17 14 10 14 12 12 15 17 32 45 43 35 21 28 26 20 22 24 15 9 11 15 15 16 16 14 14 13 15 16 20 22
26 23 17 18 20 23 21 21 19 19 18 17 17 11 10 12 12 15 14 13 12 13 10 7 10 11 12 12 1 9 25 38 19 30 16 22 21 21 19 17 12 13 15 14 13 11 12 9 14 16 15 16 18 19
23 27 19 16 18 19 19 18 19 20 18 17 17 8 11 11 12 17 20 12 6 8 7 8 12 10 8 4 4 10 18 21 12 22 20 26 25 15 9 10 9 9 11 13 13 15 19 22 18 17 19 18 18 20
22 24 22 15 15 16 17 16 18 19 19 18 17 12 8 13 16 18 16 4 5 5 8 15 15 5 3 4 6 13 4 17 10 12 20 23 22 23 18 16 14 13 14 15 16 17 19 19 16 15 16 19 20 20
22 23 23 18 14 15 17 16 17 18 20 18 17 14 11 14 18 13 4 3 3 3 8 15 14 9 10 6 7 1 3 7 5 9 10 6 18 16 16 17 16 15 14 13 14 13 12 16 21 21 16 15 16 18
24 24 24 21 15 15 16 16 17 18 19 18 18 18 14 10 5 3 3 3 3 3 7 11 13 7 1 2 4 1 2 5 3 9 7 6 11 12 10 7 8 9 9 11 9 8 15 21 20 20 16 11 11 12
24 24 23 20 15 13 15 16 16 17 19 19 14 7 5 3 4 4 5 4 4 6 9 9 7 4 3 5 3 2 2 3 4 8 5 9 10 11 11 10 9 7 5 4 7 7 17 22 10 6 12 13 14 14
21 23 23 22 16 13 13 15 15 16 17 16 10 6 3 4 6 8 10 11 11 12 13 13 8 5 3 4 4 4 5 5 4 5 7 8 6 7 8 9 6 5 4 3 3 5 15 22 5 6 10 13 10 5
18 19 21 21 17 11 13 14 14 15 16 13 8 4 4 6 8 14 14 15 16 16 15 13 12 9 7 4 4 4 3 4 5 3 5 6 7 12 13 11 8 5 3 3 2 5 8 14 16 14 10 7 7 8
18 16 16 17 17 10 10 13 14 15 15 8 4 13 17 17 17 19 21 22 20 19 14 9 7 5 6 5 5 6 4 3 2 6 8 5 10 14 13 11 8 5 4 2 1 3 5 7 8 8 8 9 10 10
18 17 14 14 13 9 9 12 15 16 11 10 18 19 17 18 19 20 21 21 18 17 12 7 6 7 5 5 7 7 5 3 6 9 10 2 10 11 12 11 10 9 8 8 8 8 10 11 12 13 13 13 13 13
18 19 15 11 12 11 11 12 14 14 17 17 20 16 15 19 19 19 20 20 19 18 14 17 11 12 7 6 7 7 8 9 9 8 6 4 8 11 12 13 13 12 12 12 13 15 17 19 21 21 20 20 18 17
19 17 18 12 10 10 12 20 16 19 20 18 17 14 17 19 20 22 20 18 18 19 19 20 15 18 24 22 14 7 7 6 10 11 8 5 5 9 13 14 16 18 19 21 22 23 24 25 25 25 24 23 22 21
20 17 16 15 14 8 21 22 24 22 22 17 17 19 20 20 19 19 20 19 19 21 27 30 29 26 16 13 16 15 16 12 9 8 9 9 11 12 14 17 19 21 23 24 25 25 25 25 24 23 22 20 20 21
27 21 15 17 19 17 24 24 22 20 22 23 21 23 25 24 22 19 22 22 22 26 28 28 28 22 23 27 25 20 15 17 21 21 20 19 19 19 20 20 20 21 21 21 22 22 22 22 22 22 22 22 21 20
29 21 17 17 21 22 24 29 31 33 28 31 31 28 30 26 23 24 27 26 22 15 16 17 20 24 20 20 23 25 25 25 23 22 23 22 20 19 20 20 20 21 21 21 21 22 22 22 21 21 21 21 21 21
25 23 21 21 21 22 25 28 28 30 28 30 29 24 23 25 26 26 23 27 18 8 15 19 19 20 25 21 22 22 24 24 22 20 21 20 20 20 21 23 23 23 22 23 23 22 21 21 21 21 21 20 20 21
30 23 22 16 22 22 27 27 31 31 28 25 24 22 24 26 26 27 27 22 11 11 14 18 20 19 23 25 20 20 20 23 24 24 22 23 24 25 24 23 23 23 23 22 22 23 22 22 22 21 22 22 21 20
17 14 15 19 24 29 34 36 36 35 32 26 27 27 26 23 22 25 18 15 14 15 14 12 14 17 19 22 19 17 16 18 20 20 21 21 24 25 24 24 23 24 23 22 23 23 23 22 22 21 21 22 21 20
19 14 15 18 26 31 35 32 27 22 18 17 17 19 16 16 17 10 11 19 19 16 14 13 13 10 9 11 16 17 15 15 16 16 19 21 24 25 25 24 23 24 26 25 24 24 24 24 24 25 25 26 26 25
24 20 22 28 29 25 21 22 23 20 17 17 18 16 13 8 7 6 12 21 21 17 8 7 6 5 3 4 6 8 11 13 15 17 20 22 24 25 25 25 24 24 26 26 25 25 25 26 28 29 29 29 30 31
30 32 32 29 26 28 28 28 27 23 22 22 22 22 11 9 10 16 23 24 22 22 18 16 15 15 17 16 12 12 14 15 17 19 20 20 22 23 23 24 26 27 27 27 28 29 29 30 31 32 33 33 32 34
39 39 36 34 32 31 31 30 29 27 24 24 26 28 30 32 28 24 23 23 23 21 20 20 18 19 20 18 18 19 19 19 21 22 22 22 21 23 25 27 28 28 29 30 31 32 33 33 34 35 36 36 35 36
36 31 30 28 28 30 31 30 31 30 30 30 32 34 33 28 24 26 27 26 26 24 21 21 23 23 22 23 24 24 23 24 25 25 25 24 23 25 27 28 29 30 32 32 33 34 36 37 38 39 40 40 39 39
34 31 28 29 31 30 29 29 31 32 33 35 36 39 38 36 30 26 28 25 25 25 24 24 25 25 25 23 24 25 25 26 26 26 25 25 26 27 28 29 30 32 33 34 35 37 39 40 42 42 42 41 39 37
32 32 31 30 26 22 20 22 24 27 29 32 34 35 36 36 33 27 20 20 19 21 22 24 25 25 25 24 25 26 27 26 24 23 24 25 26 27 29 31 33 35 36 38 40 41 41 39 34 29 25 23 22 21
38 35 31 28 26 27 26 25 26 27 30 31 32 33 34 33 33 27 20 18 18 18 19 22 24 25 25 25 24 21 19 20 21 23 23 25 27 29 30 32 35 37 39 39 37 32 26 21 17 14 12 11 11 11

GFSWCAN_700_spd_033.txt.gz
Wind_Speed
12 15 17 19 22 25 25 22 22 23 23 22 17 17 17 17 15 13 12 11 12 25 15 16 15 14 14 13 14 17 14 18 17 16 10 10 9 9 9 8 9 14 9 10 13 8 9 9 15 12 10 8 12 14
13 15 17 17 20 23 24 24 22 21 22 21 16 16 18 19 20 18 16 13 15 15 18 21 16 15 14 15 17 20 21 13 15 13 16 11 13 8 11 9 15 12 14 9 11 7 12 7 18 24 13 11 12 11
15 16 16 18 18 21 23 23 24 23 21 19 18 18 19 18 19 18 20 23 22 19 16 19 28 26 24 24 25 27 23 25 23 25 22 16 14 13 13 16 13 16 16 18 11 10 13 10 12 19 19 18 14 14
17 17 17 18 17 19 22 24 23 25 23 20 19 20 17 18 17 16 19 19 17 16 15 13 14 17 24 24 23 24 25 31 34 32 27 32 27 18 16 19 16 15 14 19 23 20 11 16 14 14 14 16 17 19
15 18 17 18 19 21 23 24 21 23 23 24 22 18 16 16 10 14 13 6 5 6 6 6 11 11 8 8 11 15 21 26 33 38 38 30 37 27 24 25 25 26 23 20 14 12 13 13 16 19 20 22 23 25
15 17 17 19 18 21 22 23 25 24 22 24 23 20 16 9 11 12 8 12 14 12 10 0 2 1 3 4 8 12 17 23 31 36 43 49 18 28 22 29 26 22 19 18 18 20 17 19 18 19 21 24 26 26
13 15 15 19 19 23 24 23 23 24 23 22 21 19 17 6 9 10 13 17 19 11 6 3 1 4 6 10 10 18 21 20 25 27 35 45 46 31 30 24 18 22 22 23 22 19 19 18 18 17 20 21 20 20
11 13 15 18 20 21 22 22 22 22 23 22 21 18 16 7 8 12 16 21 12 7 4 5 7 10 10 14 15 18 15 15 21 25 23 29 42 47 14 34 29 21 16 16 15 15 18 16 16 13 13 15 18 19
8 11 12 18 21 23 24 23 21 21 23 22 21 20 16 8 8 13 20 15 6 4 4 8 16 9 18 14 13 13 10 12 8 18 22 14 22 17 16 14 21 19 18 20 18 19 20 17 16 17 17 18 18 19
7 10 12 16 18 21 24 24 21 20 21 23 24 21 14 16 13 11 14 7 5 5 6 9 17 23 18 14 11 10 9 7 8 6 7 13 27 35 23 13 18 18 15 12 11 12 13 15 16 18 19 18 19 18
4 8 12 15 18 19 21 23 23 21 20 21 23 20 16 13 8 5 5 6 8 5 10 15 20 22 17 15 13 8 6 5 5 5 8 9 24 25 15 18 16 15 13 13 13 14 15 14 14 18 21 23 22 24
5 9 11 13 15 16 18 21 22 23 23 22 21 16 12 9 7 7 8 6 7 7 18 21 23 21 16 11 6 7 7 4 4 3 7 4 13 16 14 20 23 22 21 19 19 16 12 10 14 18 19 20 23 22
5 6 8 11 14 16 17 18 19 21 22 22 18 11 8 6 7 7 11 10 11 14 20 22 24 20 8 6 7 6 4 4 8 3 3 7 6 5 11 16 19 19 18 17 14 11 7 4 12 17 10 10 9 8
10 7 5 9 12 14 16 17 17 17 20 19 13 7 5 5 7 13 16 17 19 21 22 23 22 17 13 8 6 5 5 6 3 3 4 8 7 7 9 11 12 12 12 11 9 11 5 5 10 12 16 10 7 11
12 9 7 8 10 12 14 15 17 17 16 16 8 4 5 14 16 15 16 18 19 19 22 22 19 16 12 7 5 5 4 4 4 3 8 12 8 8 8 10 11 11 10 10 11 10 4 7 6 11 15 19 19 17
13 11 9 10 11 11 13 15 15 16 14 11 5 10 16 15 13 14 16 17 19 21 21 17 9 6 7 5 5 5 4 3 4 6 7 12 9 7 11 12 12 13 13 12 10 6 4 5 4 7 11 12 14 12
17 14 13 12 13 14 15 16 16 17 12 7 10 12 13 16 16 15 16 16 18 20 20 14 5 5 7 7 7 6 8 11 10 9 6 7 6 6 11 12 12 13 13 12 10 8 10 10 12 12 13 15 17 16
19 17 16 15 13 18 20 19 17 15 18 19 15 14 16 15 16 16 17 17 19 19 19 15 15 17 13 12 15 15 14 13 14 13 5 5 7 8 12 13 13 13 13 13 13 13 15 16 17 19 20 21 20 19
21 19 18 18 17 21 22 24 20 22 26 24 21 18 18 17 16 19 22 23 25 24 23 21 11 19 23 19 22 27 30 31 28 19 7 6 7 9 12 14 15 16 16 17 18 19 20 21 22 23 23 23 22 22
24 22 20 21 20 21 21 25 24 25 27 26 25 22 21 23 19 22 25 28 31 30 29 30 30 23 25 23 25 26 22 20 20 23 19 11 10 11 12 12 13 14 16 18 19 21 22 23 23 23 23 23 23 21
30 26 25 27 23 21 25 26 28 25 26 26 29 27 28 30 30 26 26 24 27 29 29 25 26 28 27 27 28 30 32 33 28 20 24 24 21 19 16 17 18 18 20 21 21 22 22 22 23 23 22 22 21 20
33 33 37 29 29 29 29 29 29 30 32 35 36 34 35 34 29 25 26 26 28 23 24 24 22 23 23 22 24 27 25 28 31 28 28 25 24 23 20 20 21 22 23 22 21 21 21 21 21 22 22 22 22 21
45 36 29 30 26 27 28 31 30 33 32 32 34 33 31 29 28 26 28 26 23 17 17 18 19 21 25 25 27 27 26 25 30 30 26 26 27 28 26 24 24 23 22 22 22 22 22 22 22 22 23 23 23 22
23 28 30 31 34 27 28 28 32 33 35 37 35 31 31 30 31 32 32 26 12 11 14 14 15 16 18 20 21 22 24 23 24 27 23 23 24 24 25 26 24 23 24 24 24 24 24 23 22 22 22 22 22 22
26 26 30 27 22 22 29 32 33 33 34 31 31 28 24 24 27 29 31 21 8 7 8 10 15 20 21 19 17 15 18 19 20 24 21 21 21 22 22 24 25 25 24 23 24 24 24 24 23 22 22 22 22 22
24 22 20 19 23 25 28 27 28 27 25 20 21 21 24 23 23 19 19 5 10 7 7 12 15 16 20 20 17 15 11 8 14 17 15 14 17 19 19 20 20 20 23 25 25 24 24 23 23 23 23 24 23 23
31 25 21 21 28 31 25 28 26 22 21 21 22 23 24 20 14 17 14 14 18 13 14 19 21 23 23 23 20 18 12 8 8 9 11 13 14 15 18 19 20 21 22 23 23 23 23 23 24 25 25 26 26 27
32 34 36 37 33 29 27 26 25 26 24 24 25 24 17 15 14 14 16 18 25 30 31 30 30 32 29 26 25 25 20 16 15 13 12 12 14 17 19 21 22 22 23 23 23 23 24 26 27 27 28 29 30 31
35 35 32 30 29 28 28 27 28 30 28 25 26 26 31 29 26 25 26 32 36 39 38 37 34 32 31 30 27 26 26 24 21 19 19 19 20 21 25 25 26 27 28 28 27 26 27 28 30 30 31 32 32 33
39 34 33 32 27 27 27 25 18 14 18 21 23 27 29 30 29 30 33 33 34 34 32 33 30 29 29 29 28 26 25 26 27 27 27 25 25 26 27 27 29 30 30 29 29 29 30 31 31 32 33 34 34 36
31 29 27 27 28 23 20 20 22 23 24 25 26 31 34 35 32 30 29 28 27 25 27 26 28 27 26 25 27 26 25 26 27 26 26 25 25 26 28 29 30 30 29 30 30 31 32 33 34 34 35 36 38 40
30 27 22 21 22 21 22 24 25 27 28 28 30 32 32 34 39 37 33 27 20 18 20 24 24 22 23 24 26 28 27 26 24 24 25 27 29 29 28 27 28 30 31 31 32 33 33 34 35 36 38 38 39 38
25 25 24 24 26 27 26 24 27 30 33 35 35 33 32 34 39 39 32 26 23 19 17 20 20 20 21 21 22 23 22 21 22 23 23 23 23 24 26 27 29 30 31 31 32 34 36 37 37 37 36 32 28 25

GFSWCAN_700_spd_036.txt.gz
Wind_Speed
11 11 11 11 14 17 19 22 25 27 29 29 26 24 22 21 19 16 15 13 11 11 14 21 14 13 12 11 13 15 11 10 10 11 8 10 10 8 8 9 9 14 12 10 14 6 9 8 8 10 6 4 7 12
11 11 13 12 14 15 17 18 21 23 26 26 26 25 25 23 20 18 16 15 14 15 14 16 23 19 18 16 15 16 13 8 12 9 10 9 10 8 11 7 14 12 15 8 11 8 10 10 8 14 10 8 7 10
12 12 14 16 13 13 14 16 18 21 23 24 26 25 22 20 21 19 18 20 22 18 11 13 16 21 20 17 16 16 15 18 21 20 18 14 16 11 16 16 15 17 14 21 15 14 18 14 12 13 15 17 12 10
13 13 14 16 15 13 11 14 17 18 21 23 25 26 21 19 18 18 19 17 15 14 7 5 9 11 17 23 20 17 20 20 24 27 27 26 26 17 21 21 18 18 17 20 25 21 16 12 11 11 10 14 16 16
12 12 14 15 15 14 13 16 18 19 21 23 25 25 23 20 13 16 16 14 19 17 13 7 5 3 4 2 9 14 15 18 20 26 34 40 40 35 31 27 32 26 27 21 17 10 11 11 10 14 13 15 17 17
10 10 11 14 15 15 15 19 20 20 21 23 25 25 24 19 12 15 15 17 23 19 11 4 5 5 3 4 5 6 9 15 22 28 32 36 36 30 23 42 39 32 31 27 21 18 18 17 13 14 16 17 19 21
10 10 10 11 13 14 15 19 19 20 22 23 25 25 24 20 13 13 17 21 22 14 8 5 4 5 7 7 10 8 11 15 17 21 26 29 30 28 47 30 11 14 23 23 23 20 19 19 19 17 17 18 18 20
9 7 8 9 11 14 16 17 17 19 21 21 24 26 23 19 14 13 15 22 12 9 7 9 7 6 14 16 16 13 16 18 20 18 22 22 17 24 31 37 20 12 19 21 16 15 18 21 19 16 15 14 13 14
7 5 5 6 9 13 16 18 19 19 21 21 22 24 22 21 17 14 13 13 9 8 5 10 18 14 21 18 17 16 17 20 17 19 14 9 16 19 21 39 34 14 21 21 17 17 18 19 19 20 17 17 16 17
7 5 2 4 7 11 14 16 19 21 22 23 23 22 19 21 18 12 10 11 8 8 11 18 21 25 21 19 14 13 10 9 10 10 9 11 18 10 14 18 32 7 17 16 14 13 14 15 16 16 17 18 17 17
7 4 1 6 9 11 12 14 16 18 20 22 23 19 18 16 15 10 12 11 12 7 14 22 25 27 23 16 14 7 7 6 5 6 6 6 8 3 18 27 17 11 14 13 10 8 9 12 15 16 17 19 20 22
8 5 4 7 10 11 11 11 13 15 18 20 21 17 12 12 8 9 12 9 9 9 23 24 24 26 20 10 6 7 6 4 4 11 5 5 9 12 10 12 12 13 11 12 10 11 12 12 11 13 16 20 23 23
10 7 6 8 11 12 12 11 11 13 15 17 17 13 6 6 8 7 10 11 15 22 25 26 26 23 15 11 8 6 4 5 14 4 6 9 18 14 7 6 9 15 17 17 15 14 10 8 4 9 12 13 12 9
14 12 10 11 12 15 14 12 11 10 11 12 10 6 4 5 8 11 13 15 17 19 22 24 23 17 15 11 6 6 6 7 3 3 4 14 18 14 8 5 8 12 14 13 11 9 13 5 4 5 11 15 16 9
19 17 14 13 13 16 15 13 13 12 11 8 6 3 3 11 13 13 13 16 19 19 22 23 21 14 11 7 5 7 5 3 3 4 13 16 17 13 7 5 6 7 8 9 9 15 11 5 2 3 8 9 11 13
19 16 15 14 14 15 17 15 15 16 16 13 6 6 9 10 11 13 13 14 17 20 23 23 13 6 6 6 5 5 5 3 4 13 16 14 13 11 3 3 4 6 9 10 13 15 12 4 5 3 5 9 13 13
17 16 16 15 15 15 18 18 19 23 18 8 8 11 13 12 14 16 16 16 17 18 21 21 8 5 10 8 8 6 5 11 14 16 18 18 12 8 6 8 10 11 13 14 15 14 12 9 8 10 11 13 16 20
18 17 16 17 17 17 20 22 25 27 25 21 17 15 14 14 16 17 19 18 20 22 23 21 23 26 11 12 22 25 30 32 33 31 31 25 12 9 11 11 12 13 14 14 14 13 12 12 13 15 18 19 20 20
22 20 19 19 17 19 22 26 28 29 28 26 23 19 17 16 13 15 18 20 23 25 27 30 19 23 29 28 29 28 27 30 29 23 24 23 19 13 9 12 14 14 14 14 14 14 15 17 19 20 21 21 20 20
24 23 23 22 21 24 26 26 34 30 30 26 24 21 18 17 17 20 23 27 27 29 30 32 33 25 27 28 30 31 30 28 27 29 25 22 19 18 15 12 12 13 13 15 15 15 16 18 19 20 20 20 20 20
27 26 25 25 25 28 32 33 34 27 27 29 26 25 27 30 28 26 28 27 29 31 33 32 28 25 25 27 27 27 25 26 26 26 27 29 25 21 21 20 18 17 17 17 18 19 19 19 20 20 20 20 20 19
26 24 24 27 29 32 38 40 40 37 33 34 30 29 31 32 33 33 30 29 30 29 25 23 22 23 23 23 24 26 28 28 28 28 27 28 28 28 25 25 25 21 18 19 21 21 21 20 20 21 21 21 21 21
33 35 30 32 34 36 36 37 33 33 26 32 31 31 33 34 35 35 34 32 31 27 23 20 17 18 20 21 23 24 26 28 28 27 26 26 27 27 26 27 28 24 23 22 23 23 23 22 23 23 23 22 22 22
31 30 32 34 34 29 31 26 23 25 32 31 32 33 32 31 31 33 34 31 25 22 16 14 12 14 17 19 20 22 23 24 24 23 23 24 24 25 24 24 26 28 27 25 24 24 25 25 24 25 24 24 24 23
19 18 18 16 17 20 28 31 28 25 26 31 33 29 31 31 29 31 31 26 19 21 18 15 14 15 16 18 21 24 25 26 25 19 20 22 23 24 23 22 21 21 22 23 25 26 26 26 26 26 26 25 24 22
19 14 15 12 20 27 31 30 28 26 26 22 23 25 27 27 26 24 28 13 8 15 15 13 13 12 15 22 26 29 28 26 25 21 13 14 14 14 17 19 19 19 20 21 22 23 25 26 27 26 25 24 23 22
26 19 18 23 26 23 25 29 28 24 22 24 24 21 19 19 19 23 16 14 15 20 23 24 24 22 23 29 31 32 31 31 28 23 19 14 14 17 15 14 13 15 17 19 21 22 22 23 24 24 24 23 24 24
27 29 29 29 30 28 25 25 27 27 29 28 25 26 20 21 25 13 13 20 27 31 32 33 33 35 38 39 37 36 35 31 29 27 21 19 17 15 15 15 16 18 19 21 23 24 25 25 26 26 26 25 26 27
30 30 30 30 28 27 30 31 29 28 27 27 30 32 34 34 31 26 21 25 29 32 34 34 34 35 36 37 37 36 34 32 29 27 24 20 17 16 20 21 22 23 23 25 27 27 28 29 28 28 27 28 28 29
33 34 33 33 30 30 29 31 31 25 21 24 25 27 28 27 24 23 26 27 28 27 27 32 32 32 32 32 30 28 27 28 27 26 24 23 22 21 23 24 25 25 26 28 29 30 31 30 29 29 29 30 30 31
28 23 24 27 29 26 24 22 24 26 27 29 29 31 33 34 32 30 29 28 27 27 28 31 28 28 30 28 27 23 19 19 21 24 26 25 23 23 23 25 26 27 28 30 31 30 30 30 30 30 31 32 33 35
29 30 28 28 28 23 21 22 24 27 30 31 33 34 35 36 40 38 36 34 30 30 33 35 29 25 24 25 24 23 21 21 22 23 22 21 22 23 24 26 28 27 27 27 28 28 29 30 31 32 33 34 35 36
27 27 25 22 23 24 23 25 26 25 26 29 30 29 29 31 36 37 36 31 27 27 30 31 27 23 20 19 20 20 18 18 18 17 17 18 19 20 21 23 24 25 26 27 28 29 30 32 33 35 36 36 35 34

GFSWCAN_700_spd_039.txt.gz
Wind_Speed
14 13 11 12 15 16 16 17 18 19 21 22 24 26 25 23 21 19 17 13 10 10 11 14 22 13 11 10 11 14 10 9 9 8 6 8 8 8 11 10 8 7 9 12 14 6 9 3 4 7 5 3 1 5
15 14 11 12 13 13 13 15 16 18 18 21 24 25 26 23 22 20 19 19 15 11 13 13 13 21 17 13 13 12 9 6 8 8 8 6 8 7 10 8 12 10 12 6 11 5 5 5 7 8 8 3 3 5
17 14 12 12 10 10 11 12 14 16 18 18 21 24 25 24 22 18 20 18 22 14 4 5 8 12 18 18 17 15 14 13 14 14 13 12 13 12 15 17 18 19 15 15 11 12 16 13 11 11 8 10 6 6
18 15 13 11 9 10 12 11 13 15 15 17 20 22 24 24 18 18 18 17 22 13 8 6 4 6 11 20 20 16 14 13 14 18 23 25 26 19 25 25 22 17 17 23 26 23 19 14 10 8 9 10 13 13
18 16 13 11 10 11 11 11 14 15 17 18 21 22 24 23 16 16 17 19 21 13 9 10 13 13 11 8 13 22 19 19 19 18 19 24 30 34 38 38 38 31 27 22 25 17 14 11 12 13 12 10 10 11
18 15 12 9 10 11 11 12 14 17 20 21 21 21 21 20 16 16 18 20 19 14 12 9 13 12 10 9 7 1 4 8 12 16 19 20 20 25 24 39 40 41 32 28 28 25 24 17 12 11 11 12 14 17
19 15 11 10 10 10 11 13 15 17 19 21 23 22 22 21 18 15 15 19 13 10 5 5 6 13 15 12 10 6 7 12 16 18 19 18 20 22 36 45 34 20 35 39 35 24 28 22 20 15 16 18 18 19
19 15 11 7 7 9 11 13 15 16 19 21 21 22 23 23 19 16 15 17 14 8 10 13 9 8 19 15 13 8 10 13 16 15 16 19 19 23 28 31 27 30 15 19 26 26 22 22 22 21 20 19 17 16
19 15 10 7 6 6 8 10 13 15 18 21 22 21 22 21 20 18 16 17 16 14 12 16 22 14 24 18 15 16 15 13 11 11 11 14 18 11 23 15 12 18 34 14 23 31 18 17 17 16 17 18 17 17
19 15 10 6 4 2 5 9 11 14 16 19 21 21 19 18 16 19 17 14 10 12 19 22 19 23 24 20 14 15 9 9 9 8 14 10 13 20 18 6 8 15 22 6 7 8 10 13 15 17 18 20 18 18
19 16 11 6 3 1 4 5 7 11 15 16 19 17 14 11 13 10 11 10 11 9 15 23 23 22 20 20 15 5 7 7 5 6 9 5 8 22 10 10 8 13 22 19 8 11 8 9 9 11 13 16 17 18
19 15 10 5 2 2 5 6 8 9 12 14 16 15 11 10 8 7 9 9 7 9 21 24 25 24 16 13 9 6 6 5 4 9 6 4 19 24 18 11 14 15 12 7 10 10 10 7 8 7 8 11 14 17
18 13 9 5 2 4 6 9 11 12 14 13 12 8 5 4 6 6 8 8 11 17 21 23 26 24 14 9 7 5 5 6 11 4 4 7 21 24 15 12 6 9 7 10 10 9 7 5 4 1 4 5 9 11
19 15 10 5 6 7 8 11 13 14 15 13 9 5 2 0 3 6 9 10 13 15 18 21 23 24 15 10 5 6 7 8 4 3 4 19 24 20 16 9 8 8 8 11 11 9 7 13 9 5 5 5 7 10
21 17 10 9 12 11 10 11 14 13 15 13 7 4 3 6 10 9 10 11 13 16 18 20 22 18 12 6 6 8 5 5 1 18 23 22 23 21 17 9 6 6 6 7 9 10 16 16 11 5 1 3 6 4
23 19 16 15 14 14 14 13 14 14 14 18 8 7 7 10 12 13 14 13 14 16 18 20 13 6 5 11 8 7 11 3 29 33 28 23 25 26 17 10 6 6 7 9 10 15 20 18 13 8 5 5 8 11
21 20 18 16 15 18 17 15 16 18 19 11 12 10 10 14 16 16 16 15 16 17 17 17 7 4 8 7 9 9 21 33 34 32 28 28 27 25 22 17 13 10 10 11 12 14 18 15 11 13 9 9 11 14
19 19 17 16 15 18 17 16 19 22 22 23 22 13 16 18 18 18 19 16 17 17 18 17 19 22 12 13 22 23 29 35 33 31 29 26 21 21 19 19 16 15 12 9 10 11 13 14 14 12 11 13 15 16
19 19 19 17 17 18 19 20 21 26 26 27 25 14 14 16 18 18 19 19 20 22 23 27 16 24 27 28 29 30 30 31 33 32 28 25 22 19 17 18 15 11 8 12 13 13 14 12 11 11 13 15 16 18
22 20 19 19 19 20 21 24 25 27 26 23 26 24 21 19 17 16 20 25 27 26 27 29 30 31 32 33 31 32 31 30 32 31 27 22 22 24 24 19 16 18 14 12 11 11 10 10 11 13 15 16 16 17
23 21 22 21 21 22 25 24 25 23 29 29 31 33 29 27 22 22 23 25 25 28 29 30 30 22 24 28 27 28 27 29 30 32 32 29 23 23 23 26 22 17 19 16 15 14 14 14 15 15 16 17 17 18
22 22 22 21 23 28 32 34 32 33 33 36 36 35 30 26 27 27 29 32 35 35 35 29 26 28 30 26 24 25 24 24 27 29 31 33 30 26 25 25 30 26 22 21 22 19 16 16 17 17 18 18 19 20
24 22 21 24 29 33 30 31 32 31 30 35 34 28 24 29 30 30 32 34 36 33 31 25 21 20 19 16 17 19 19 21 23 25 27 27 27 26 24 24 26 28 27 22 23 21 19 20 21 20 20 21 21 22
24 27 30 34 39 34 33 26 26 26 30 28 24 28 28 28 31 32 35 37 34 30 24 23 25 20 14 14 16 17 18 20 23 26 30 29 22 20 23 22 24 24 23 25 25 24 24 24 23 23 24 24 23 24
26 28 30 24 18 20 28 29 30 30 29 31 32 29 28 26 27 31 35 33 21 17 22 23 16 16 19 16 13 14 22 26 28 28 28 30 26 23 22 22 23 23 23 23 22 23 23 23 23 24 25 25 25 25
17 13 14 13 17 17 20 22 23 21 21 24 25 24 24 23 26 26 29 24 20 17 13 13 18 20 20 19 22 22 25 31 34 34 29 30 28 22 21 16 17 16 20 20 20 20 21 22 22 22 23 25 25 24
25 18 15 17 15 17 18 17 19 20 22 22 21 20 20 19 26 26 16 18 19 11 17 21 23 22 25 28 31 35 38 39 39 38 34 27 29 23 18 19 15 15 16 16 17 17 18 19 19 20 20 22 23 24
25 25 23 21 22 21 21 21 24 25 24 22 23 23 16 19 28 24 23 27 24 26 29 32 33 32 33 34 36 39 39 37 35 34 33 27 23 25 21 16 17 19 22 24 23 22 21 21 22 23 24 24 26 26
30 28 27 26 24 24 24 26 26 24 21 21 24 29 34 35 34 32 27 25 24 26 27 27 27 27 29 32 34 34 34 32 32 30 28 25 21 19 24 19 17 17 18 20 21 21 22 24 26 27 27 28 28 27
32 30 29 28 28 29 28 28 26 24 23 25 26 29 32 30 27 27 28 28 29 29 28 28 26 26 29 32 33 29 26 26 25 25 23 19 18 18 20 23 25 24 24 23 23 23 25 26 28 29 30 29 28 27
27 22 23 26 28 25 20 20 22 23 24 25 27 30 32 34 33 32 32 30 30 29 27 25 24 26 28 30 29 25 21 21 22 22 21 20 21 22 23 24 25 25 25 26 27 28 29 30 30 29 28 29 29 30
25 26 27 27 27 24 22 21 21 25 28 30 33 34 34 37 40 37 35 27 21 26 22 21 23 23 25 26 25 23 20 19 20 21 20 21 21 20 20 20 21 22 24 25 25 25 25 27 28 28 29 30 31 32
18 17 18 19 21 23 24 24 27 26 25 26 26 26 28 33 35 32 27 24 28 28 24 24 25 24 24 25 24 23 22 20 19 18 17 16 16 15 15 16 17 19 20 22 24 25 27 28 29 30 32 32 33 34

GFSWCAN_700_spd_042.txt.gz
Wind_Speed
27 20 16 15 13 11 12 14 14 13 14 15 17 18 20 23 20 17 16 14 10 8 11 10 10 18 11 13 15 14 10 11 9 8 6 6 6 6 9 10 8 7 8 10 13 8 10 5 7 7 6 8 8 7
28 21 18 16 13 12 12 14 14 15 15 15 16 17 20 22 19 17 18 16 18 8 6 7 9 10 18 14 13 12 12 8 11 9 9 7 7 6 8 8 11 10 13 5 11 6 5 5 8 7 6 5 5 3
27 23 20 16 13 12 9 11 13 14 15 17 18 19 19 19 14 16 19 18 17 10 7 3 3 7 10 21 16 14 13 12 10 8 9 11 11 12 13 15 18 17 15 20 18 10 12 14 14 11 12 7 6 4
29 25 21 16 14 12 9 8 11 12 14 16 18 18 18 16 13 16 17 19 18 9 11 9 3 2 3 9 20 18 14 14 13 12 15 17 20 18 23 23 25 23 19 24 28 27 23 18 18 9 10 9 13 13
31 27 22 19 16 13 10 7 9 11 14 17 19 18 15 14 13 14 14 17 19 19 18 18 17 15 14 12 2 20 15 12 12 14 17 17 21 22 29 33 36 32 35 33 32 20 18 16 12 14 16 14 11 13
32 28 24 19 16 13 9 7 9 12 15 17 19 20 17 14 13 9 14 16 11 12 14 13 16 20 18 10 6 6 5 16 19 17 15 14 13 14 15 24 26 27 22 34 41 33 28 22 22 15 12 12 13 15
33 30 24 20 16 13 9 7 7 11 15 17 18 19 18 14 15 15 15 14 13 11 11 7 8 15 21 13 9 2 5 10 14 16 17 14 13 19 27 29 21 21 24 26 36 45 32 28 24 19 18 17 17 17
33 29 25 21 17 12 9 6 6 9 13 18 18 17 18 17 15 15 17 16 12 17 13 11 8 9 19 17 11 7 8 8 9 8 7 9 12 17 9 27 24 19 22 32 32 30 37 27 21 19 20 19 19 19
33 29 24 19 15 11 8 6 6 7 9 14 16 15 15 16 15 15 15 17 18 20 15 15 19 11 18 17 13 13 9 7 4 6 7 9 5 7 25 27 21 17 18 18 21 15 26 32 29 24 22 25 25 23
34 29 24 20 15 11 7 4 2 5 8 10 12 13 13 12 12 9 9 9 10 15 20 22 21 22 18 16 13 12 7 7 5 3 11 6 1 21 27 25 21 13 9 11 11 4 15 25 32 19 20 20 21 21
33 29 25 20 15 10 6 2 0 2 5 7 9 10 11 10 11 8 9 6 10 8 16 21 24 23 20 18 14 5 6 5 4 3 8 5 4 27 29 23 16 13 17 20 16 12 5 15 11 14 16 17 18 18
33 29 25 20 14 10 5 2 1 4 5 7 8 8 7 7 5 6 9 7 6 8 15 20 23 25 19 17 9 6 4 3 3 8 5 2 26 25 26 20 18 8 12 12 9 5 10 12 11 9 9 11 12 13
32 28 23 18 14 11 5 1 3 6 8 8 9 4 3 2 2 3 5 5 7 13 17 19 20 20 17 14 8 6 4 4 9 5 1 25 25 23 24 23 15 15 8 8 7 8 10 11 12 11 6 3 1 4
30 25 21 18 14 9 6 2 4 8 12 12 8 7 4 3 2 5 9 10 11 13 15 17 18 15 17 9 7 5 6 8 4 6 19 33 30 28 26 23 21 15 11 7 10 13 14 15 14 11 7 4 2 3
29 25 22 18 13 8 4 2 7 10 13 14 7 5 4 6 8 11 11 12 14 15 16 17 16 13 8 4 5 7 7 4 6 22 35 35 36 33 27 25 21 20 16 11 8 10 12 17 18 12 9 7 5 2
30 25 23 18 13 9 7 7 8 11 11 12 10 9 14 15 14 14 16 17 16 16 18 17 12 6 5 8 6 4 6 6 19 30 33 29 27 32 28 25 24 20 20 17 13 10 11 17 18 17 13 10 8 7
29 26 23 21 16 14 13 13 12 10 9 7 13 19 18 16 16 18 18 19 18 16 14 11 5 3 10 8 6 6 12 24 35 38 33 29 30 29 29 25 22 22 18 18 18 12 9 18 20 20 18 13 10 11
28 27 23 19 17 16 13 12 11 8 10 14 17 21 19 17 19 20 21 21 21 17 15 12 16 19 15 19 22 23 31 35 35 37 35 32 30 28 27 26 22 20 16 11 11 12 11 12 11 13 12 15 13 13
25 22 20 19 17 16 15 15 13 14 16 17 20 19 19 16 16 19 21 23 21 17 19 23 14 19 25 28 28 31 38 40 39 37 36 31 29 28 27 26 24 21 17 14 15 14 15 14 13 11 11 10 11 12
26 24 21 19 17 16 17 16 17 16 15 19 22 25 26 23 21 19 20 23 24 23 22 27 30 28 27 28 32 35 37 38 35 35 32 30 30 28 27 27 26 24 24 17 18 17 13 12 11 10 9 10 12 14
25 22 20 19 19 19 21 19 16 14 16 24 29 31 33 27 26 28 22 22 28 28 29 31 29 26 25 24 29 34 35 33 27 27 29 28 26 27 26 26 29 27 25 25 20 21 19 15 12 11 12 14 15 15
20 20 20 22 23 24 28 26 23 23 28 31 29 29 29 28 29 27 23 27 32 28 29 32 29 27 28 29 28 27 24 17 18 18 20 23 25 26 26 24 25 26 26 25 26 24 22 19 18 15 15 16 17 18
24 24 24 23 25 27 22 21 22 26 28 33 32 28 29 31 26 23 29 29 32 30 31 31 28 26 28 26 21 16 14 18 18 16 19 22 24 27 27 23 22 23 23 23 27 29 25 22 21 20 19 19 20 20
22 22 22 18 21 19 20 24 31 32 33 29 27 29 27 25 28 31 33 32 32 24 25 25 25 25 21 17 13 14 16 23 21 18 20 27 29 30 30 28 22 22 24 23 27 26 24 24 25 25 24 23 23 23
22 20 20 22 23 23 28 31 28 24 25 25 26 25 26 26 28 30 30 29 24 19 20 22 22 15 12 18 22 24 24 26 26 27 25 34 35 33 32 28 27 22 21 23 23 24 23 24 24 24 24 23 24 24
20 16 19 17 17 19 21 21 20 18 16 16 19 20 22 24 26 27 29 21 16 17 22 16 13 16 18 19 24 23 24 29 33 36 32 35 34 33 31 27 25 19 20 18 20 20 20 21 21 22 22 22 23 22
25 17 17 21 18 14 12 14 15 15 16 17 20 19 19 21 24 22 16 15 23 24 25 29 30 29 28 30 31 30 30 32 36 38 36 32 28 28 29 26 21 21 19 18 18 18 19 20 21 21 20 20 20 21
25 26 21 18 20 17 17 19 20 21 20 21 20 22 15 17 24 22 28 28 27 28 29 24 23 25 26 26 28 30 31 33 36 36 33 27 26 26 24 22 22 20 19 18 19 22 23 23 23 24 24 24 24 24
24 22 20 22 22 24 25 24 24 21 20 21 23 26 30 31 31 32 30 28 26 27 27 27 25 24 25 26 27 29 31 34 38 33 27 23 20 20 22 21 21 22 20 19 19 20 21 23 24 25 25 25 25 27
30 27 27 25 25 27 25 26 24 23 25 25 26 29 31 31 28 27 29 29 31 31 31 30 29 28 27 28 30 29 28 29 30 29 25 20 18 17 17 19 20 21 22 23 24 25 24 23 24 24 25 26 27 29
31 29 26 25 25 22 19 20 22 22 23 24 25 28 30 32 32 31 30 25 23 22 22 21 22 23 25 26 29 27 25 24 25 24 21 18 19 19 20 21 23 24 26 27 28 29 29 29 29 30 31 32 33 32
17 19 20 23 23 24 25 22 19 21 24 26 28 29 31 32 33 33 28 27 28 22 16 20 25 24 24 27 28 27 26 24 24 21 18 17 17 18 17 17 17 18 20 22 23 25 27 28 29 29 28 29 29 31
16 17 17 18 16 15 13 15 22 28 33 33 31 28 26 31 34 33 33 33 26 21 22 25 26 29 27 31 32 29 24 22 21 19 17 16 16 17 18 18 19 19 20 21 22 24 25 26 27 28 29 30 31 32

GFSWCAN_700_spd_045.txt.gz
Wind_Speed
30 30 28 22 15 13 9 12 11 12 14 15 14 15 18 18 15 17 15 14 14 6 6 8 9 15 11 12 15 12 8 10 12 10 5 4 4 5 6 7 4 6 6 7 9 7 9 5 5 6 8 14 13 13
37 36 30 24 19 15 13 13 11 15 15 16 18 18 17 16 15 18 19 19 14 8 1 4 6 7 14 14 11 14 14 7 12 10 10 6 6 5 6 4 7 8 12 5 8 5 6 8 8 13 11 9 10 10
41 39 33 27 22 18 16 14 14 14 15 18 20 19 18 16 14 17 21 19 15 12 9 5 1 5 7 11 16 13 12 12 8 10 10 10 9 9 10 12 16 17 14 19 19 16 11 6 13 14 15 16 12 9
43 39 34 29 24 21 17 14 14 15 16 17 19 20 17 12 11 15 18 21 13 23 20 16 12 8 2 5 11 19 13 13 12 11 12 13 11 12 16 18 23 22 23 24 27 28 27 24 21 15 15 14 14 12
45 39 35 31 26 23 19 15 13 15 15 16 19 19 16 11 8 11 13 15 17 16 19 20 18 12 9 11 3 12 20 14 13 13 13 15 16 15 19 18 19 12 13 21 31 34 32 29 21 14 11 12 16 15
46 40 38 33 28 25 21 17 15 14 12 13 16 18 16 11 9 6 9 9 10 9 9 8 15 19 13 11 4 10 5 19 15 13 17 17 14 12 11 13 12 17 24 30 32 33 38 37 24 19 18 13 14 16
47 43 39 35 30 26 22 18 13 11 11 11 13 16 15 14 10 9 8 10 9 8 6 4 6 12 18 13 7 3 3 4 10 14 18 20 17 14 17 21 15 26 25 24 26 35 40 36 41 30 26 18 18 17
48 44 40 35 31 27 22 18 14 11 9 9 11 12 13 14 15 15 15 14 9 13 10 13 8 8 17 15 8 6 6 6 7 10 7 5 8 6 3 21 26 23 25 22 25 25 30 34 29 35 27 22 19 21
49 45 40 36 32 27 22 19 14 11 9 7 6 9 9 10 11 12 11 12 19 21 12 16 20 12 18 15 14 12 4 2 1 2 2 5 1 5 24 26 29 23 22 19 12 12 11 20 25 35 26 22 19 21
46 44 40 36 32 26 22 18 14 10 8 7 6 4 6 6 7 7 6 7 9 16 20 21 20 22 17 15 12 11 5 5 3 1 5 2 1 13 26 25 24 25 24 19 20 18 20 20 28 29 34 21 23 23
48 45 40 35 30 26 21 16 13 10 6 4 3 3 2 5 3 2 4 4 8 6 15 19 20 22 18 17 11 5 5 4 2 2 5 2 16 23 22 24 24 20 25 21 19 19 17 14 17 24 29 30 19 20
48 44 39 34 30 25 20 16 12 8 5 3 1 1 1 2 1 1 2 3 3 5 12 16 20 21 21 20 9 7 4 3 2 5 1 6 30 31 29 28 26 21 20 22 16 14 12 6 11 16 15 15 16 17
47 42 38 34 27 22 19 16 12 8 4 2 1 2 1 3 3 3 1 2 4 7 11 13 16 19 18 14 8 6 3 3 12 2 3 21 30 33 36 34 31 28 21 22 17 11 10 10 10 12 13 14 12 9
44 40 35 30 27 24 21 18 14 11 6 5 2 2 4 4 4 2 6 9 10 12 13 14 15 16 16 10 7 6 5 5 4 2 11 22 26 28 29 32 32 31 29 22 20 14 14 13 14 14 14 15 10 7
43 39 35 31 27 24 20 16 11 5 3 4 2 0 1 4 9 12 14 14 14 14 15 16 15 15 13 7 5 7 4 4 5 6 20 27 28 28 29 30 31 30 29 29 22 17 17 15 18 19 13 14 13 9
44 39 34 31 27 22 17 12 8 5 3 2 3 3 8 12 14 16 17 17 17 17 17 18 13 8 8 5 6 7 5 7 13 24 32 34 32 29 28 30 32 31 28 27 28 18 13 15 12 23 21 19 15 12
40 37 35 30 25 20 16 13 11 9 5 6 3 7 13 15 15 15 18 19 18 17 15 11 5 5 7 9 6 7 17 22 26 35 40 40 38 34 31 29 31 31 29 25 25 23 13 10 12 13 19 23 17 14
38 35 31 28 24 20 18 15 13 11 12 10 8 12 17 16 15 14 16 19 19 19 18 16 18 19 14 17 24 24 24 33 39 40 39 38 38 36 32 30 30 32 29 25 22 22 20 17 14 12 14 18 20 20
36 32 28 26 21 19 18 16 15 12 13 11 11 13 18 19 18 17 17 18 19 19 20 22 15 24 23 22 30 33 35 39 40 40 40 36 33 32 31 30 30 32 31 25 21 22 19 19 19 18 17 18 18 19
34 29 26 23 21 20 17 15 16 14 12 12 13 17 23 23 22 18 18 18 19 22 25 30 33 31 29 30 30 34 38 40 41 40 35 31 27 27 26 26 27 28 28 26 22 22 21 19 19 18 17 12 10 10
33 30 26 22 21 20 19 16 14 12 12 15 18 23 25 23 23 21 19 22 26 27 27 27 29 28 28 31 31 33 36 39 39 33 27 25 19 19 19 21 23 25 25 24 23 23 22 22 22 20 16 12 11 11
29 27 24 22 20 20 22 21 17 16 18 23 23 27 28 28 24 20 22 25 27 24 25 27 28 30 32 32 33 37 36 32 25 19 22 27 24 16 17 22 26 25 24 21 21 24 22 21 23 23 21 17 14 15
24 21 20 20 20 19 17 19 17 18 19 25 29 28 28 25 23 24 24 23 28 22 21 26 26 24 27 26 25 26 25 23 22 26 27 28 27 21 25 27 29 31 28 23 23 24 24 23 25 26 22 21 21 19
23 21 21 16 19 18 19 15 16 18 25 29 28 27 24 23 25 27 30 29 23 19 19 22 22 24 26 22 22 21 22 26 30 32 29 30 31 31 34 32 30 29 31 28 24 22 24 24 25 25 25 23 22 22
22 18 18 22 24 18 19 21 23 27 28 25 22 22 24 22 23 27 29 16 11 12 13 17 24 21 14 15 17 20 20 27 29 30 30 32 32 33 33 33 31 28 27 28 24 20 20 23 23 24 26 26 25 25
22 15 16 16 15 15 20 26 27 23 19 16 13 15 16 19 20 17 21 17 12 13 18 22 21 25 28 26 27 25 26 25 26 28 26 28 30 34 36 34 28 20 24 27 24 20 18 19 22 22 22 22 23 23
23 16 17 17 19 22 19 21 19 15 13 15 17 17 16 11 12 18 17 15 15 22 29 28 29 25 25 26 25 24 24 27 31 32 29 31 33 38 38 33 26 22 23 25 23 20 17 17 18 19 20 22 22 22
24 26 26 23 22 23 21 19 17 16 18 20 19 17 13 15 22 22 26 28 29 30 28 26 25 24 25 28 30 31 31 33 34 34 33 33 35 36 34 30 27 24 22 20 20 20 19 18 18 20 21 21 22 24
29 27 25 23 19 19 20 21 22 22 21 21 21 21 26 29 29 29 28 27 24 24 26 27 28 27 30 30 29 29 31 32 34 34 34 34 30 28 27 26 26 24 22 21 20 21 20 19 20 21 22 24 26 28
22 18 18 18 20 22 20 21 22 21 23 22 23 28 31 29 25 26 27 26 25 22 19 23 28 31 29 28 26 23 25 25 26 30 32 32 30 26 23 22 22 22 20 20 20 21 22 23 25 25 24 24 25 26
17 18 20 20 20 18 19 19 20 19 20 22 26 29 29 29 28 27 25 19 18 18 26 31 29 27 27 28 26 24 23 23 24 26 27 28 25 21 20 19 19 20 21 23 24 25 25 26 26 28 29 29 30 30
13 15 15 14 12 11 12 16 18 22 25 26 27 28 28 30 34 30 22 20 21 26 31 29 28 28 29 27 27 27 29 28 28 27 26 25 23 20 19 18 18 19 20 20 20 20 20 22 23 25 26 28 29 30
11 8 9 12 14 14 13 13 16 20 24 27 27 28 28 24 25 27 25 26 30 32 34 35 34 32 32 30 29 30 30 29 28 26 25 24 22 21 21 22 23 23 23 24 24 24 24 24 25 26 27 28 28 29

GFSWCAN_700_spd_048.txt.gz
Wind_Speed
48 42 30 29 26 23 16 11 7 3 6 10 13 12 12 14 16 19 17 12 8 4 4 5 5 9 8 9 11 9 10 9 10 8 4 4 3 4 4 6 3 5 4 6 7 6 6 8 9 7 13 15 17 17
52 41 32 36 29 24 19 14 10 7 9 10 12 11 12 14 17 19 17 18 14 10 8 5 3 4 9 10 10 14 12 4 8 8 9 6 6 5 5 4 5 5 8 4 7 5 8 19 16 15 18 18 19 21
54 45 40 37 32 27 23 17 12 10 9 12 14 12 11 14 16 20 16 23 21 12 15 11 5 1 2 6 13 10 11 12 12 8 9 8 7 6 7 8 11 12 15 17 19 11 11 11 20 27 24 20 14 10
50 45 45 39 35 30 24 19 15 12 11 13 15 13 12 13 15 17 19 17 19 26 24 20 15 10 5 2 6 13 15 11 10 9 10 10 7 6 10 12 18 18 20 23 28 29 31 29 26 23 17 16 18 19
57 49 48 42 39 33 27 22 18 14 13 14 15 14 13 12 10 13 16 16 17 17 20 19 17 14 11 9 8 7 13 15 11 12 12 10 8 10 13 14 4 5 12 19 27 27 31 31 25 26 25 18 13 15
54 52 50 45 40 34 31 25 21 17 16 15 16 14 15 13 11 9 12 11 11 9 9 8 14 17 18 14 6 8 2 11 13 10 11 11 10 9 8 5 6 13 22 28 34 32 31 31 32 25 28 23 19 15
53 56 51 45 40 37 32 28 23 19 16 12 13 13 16 17 15 14 13 10 9 11 8 5 6 12 17 14 7 5 4 3 9 14 17 18 16 14 11 5 13 20 24 23 22 25 24 25 27 26 27 32 27 20
54 58 50 45 43 39 35 30 25 20 18 15 12 10 13 12 13 14 16 18 12 16 10 12 9 10 18 15 12 9 7 5 6 9 7 6 6 4 0 14 18 23 24 19 19 22 23 22 22 23 21 29 36 27
64 56 52 48 45 40 35 30 26 21 19 16 12 11 9 9 8 8 9 12 15 18 13 13 18 13 19 19 15 11 6 4 2 0 2 2 3 4 18 22 25 27 28 26 24 22 25 26 27 26 24 22 35 31
63 54 52 49 45 40 35 30 25 21 16 14 12 11 8 6 4 4 4 4 4 13 13 15 16 18 20 19 14 9 4 5 3 0 2 9 21 19 22 24 26 27 28 28 28 24 20 22 26 28 22 20 27 37
60 56 53 49 44 39 34 29 25 20 17 15 12 8 7 4 4 4 3 2 1 1 7 11 14 17 19 20 15 9 5 5 3 2 3 6 16 19 21 23 25 27 30 32 28 30 26 25 24 20 13 18 18 25
58 57 53 48 44 39 35 28 23 21 17 14 11 9 7 6 5 5 4 2 2 1 5 8 12 15 15 17 12 10 4 4 3 8 2 2 16 21 22 21 23 26 27 29 32 30 27 22 18 15 12 15 17 27
58 56 52 48 43 39 29 28 25 20 17 14 11 8 5 6 6 6 6 3 2 5 7 10 13 15 13 13 6 4 1 0 8 3 4 7 16 23 26 26 25 26 28 28 27 30 30 24 19 16 13 13 16 14
59 55 52 47 41 31 32 28 23 19 17 12 7 7 5 4 4 4 2 6 9 11 12 11 11 11 13 11 4 4 3 3 4 6 8 9 21 28 30 31 30 30 30 30 31 28 28 28 22 20 18 16 17 18
58 54 50 41 37 35 32 28 24 17 12 7 5 4 5 3 5 8 12 15 15 15 14 13 14 13 11 7 5 4 4 4 7 8 13 20 28 32 36 32 30 31 31 32 32 33 28 27 27 22 22 20 18 20
57 53 47 43 39 35 32 29 22 16 11 8 8 9 5 7 9 9 10 13 14 15 15 14 9 6 7 5 6 6 6 8 11 17 24 29 33 37 38 36 37 34 31 32 34 35 34 28 25 23 19 26 24 22
52 49 46 42 38 36 33 28 22 16 9 8 11 5 1 7 11 11 11 12 15 16 13 9 4 5 6 7 8 8 11 17 22 28 32 35 39 41 41 40 39 38 34 30 32 34 34 32 27 23 21 20 22 27
48 44 39 38 37 34 29 26 21 11 10 9 9 5 5 8 15 16 14 15 15 15 15 13 15 17 11 14 17 16 22 27 34 40 42 37 35 39 37 37 35 34 33 31 32 32 29 30 28 24 20 20 20 21
44 42 40 40 36 32 28 23 18 11 11 9 10 9 8 12 17 18 17 16 17 17 15 16 11 17 21 25 25 27 29 33 40 42 39 35 35 37 34 31 29 29 29 31 31 31 27 27 26 24 21 19 18 22
45 42 40 36 31 27 22 12 16 15 11 11 11 11 12 14 18 20 20 20 20 21 22 27 28 27 25 25 29 33 34 36 40 42 40 35 33 30 24 24 24 23 23 23 24 25 24 25 25 23 24 22 20 19
43 39 35 31 27 25 18 12 14 11 11 10 11 13 16 17 20 23 25 26 26 27 26 25 26 22 24 29 31 34 34 36 38 39 36 32 28 28 24 25 28 20 22 26 28 26 24 24 25 26 23 23 21 19
40 36 32 29 27 25 20 16 14 13 12 13 15 18 18 20 25 24 24 24 26 25 23 24 25 29 30 29 28 29 29 29 29 28 26 28 30 30 30 28 31 29 30 32 31 30 26 24 24 25 25 21 21 20
37 35 33 29 25 22 16 18 17 15 12 17 18 18 22 26 25 23 19 23 25 18 20 22 24 23 23 23 25 27 25 24 24 23 25 28 31 33 35 35 35 35 37 36 34 31 28 26 24 25 26 23 20 19
32 32 28 21 20 13 14 14 15 13 16 21 21 22 26 23 23 23 24 20 16 20 19 17 14 16 22 24 22 19 19 22 24 25 26 31 32 32 33 31 30 32 34 38 35 31 28 26 26 24 24 25 24 21
29 22 18 22 19 14 14 15 16 20 23 20 22 21 22 22 19 20 18 10 12 11 8 10 15 21 23 21 18 18 19 23 27 31 29 29 26 29 31 30 30 30 34 37 34 30 27 26 26 22 23 23 25 25
19 17 16 15 16 18 20 19 21 19 19 17 18 18 16 15 15 12 17 9 11 12 15 20 24 25 21 20 22 24 24 25 28 32 30 30 33 35 36 35 35 32 35 31 29 28 27 24 24 23 19 21 22 23
21 15 17 19 19 20 20 20 18 15 17 18 19 17 15 9 8 13 10 14 18 20 21 22 22 22 24 27 28 28 30 31 32 32 32 32 33 34 36 37 37 37 36 29 26 26 24 20 22 21 18 18 19 19
24 24 22 19 17 17 20 20 18 20 20 20 20 20 11 8 16 19 20 21 22 21 18 20 22 24 28 30 29 30 32 33 31 31 31 30 29 30 32 33 37 36 33 27 23 23 21 18 19 18 18 17 18 19
27 26 24 22 21 21 24 24 24 22 21 21 21 21 23 24 22 27 25 23 20 19 21 23 23 24 28 29 32 33 33 33 32 31 30 28 27 28 30 33 32 29 26 24 23 21 19 20 22 21 18 18 19 20
23 22 23 22 20 19 18 17 16 16 17 21 24 27 28 28 29 29 26 23 22 20 20 22 24 27 30 33 35 33 32 31 32 33 30 29 30 29 29 30 28 25 24 23 22 22 21 19 21 23 24 25 26 26
20 19 20 18 15 13 14 16 19 22 24 26 28 31 31 30 25 23 22 22 18 16 18 21 26 31 34 34 35 36 36 34 32 32 33 32 31 29 28 28 26 23 21 20 20 19 18 18 21 25 27 27 27 28
13 14 13 13 12 12 14 16 18 22 25 28 29 29 29 30 25 22 24 18 18 19 23 29 34 35 36 37 39 38 35 34 32 31 34 34 31 29 28 27 25 23 24 24 23 23 22 22 21 21 21 22 23 24
10 9 9 10 9 8 10 15 18 21 21 22 23 24 24 25 27 28 23 25 29 33 34 34 36 39 40 39 36 34 31 29 29 30 30 29 28 27 27 27 27 26 26 26 26 26 27 26 26 26 26 26 26 26

GFSWCAN_700_spd_051.txt.gz
Wind_Speed
48 39 44 35 38 30 27 22 17 12 6 3 1 5 9 13 15 17 14 11 8 8 9 8 8 8 8 9 7 8 7 7 8 7 5 3 3 5 4 4 2 4 3 5 6 6 4 2 8 6 10 13 18 19
44 45 45 37 43 33 29 23 19 13 9 6 5 9 12 15 17 20 19 17 15 11 11 8 4 3 6 6 7 9 7 4 7 7 7 5 4 3 4 2 3 4 7 3 5 3 7 18 18 12 15 19 26 22
42 39 50 45 42 36 29 25 20 15 11 9 8 10 14 15 18 20 20 24 16 16 17 12 8 5 3 3 9 7 9 9 8 5 7 6 4 3 4 5 7 8 11 10 13 13 16 16 15 21 28 31 26 22
47 41 43 49 43 38 32 28 22 17 14 11 12 14 16 16 16 18 17 17 19 20 24 21 17 13 10 5 2 8 13 9 7 5 6 7 5 4 5 7 10 14 15 16 18 19 22 21 20 26 31 32 26 20
43 51 43 44 41 40 35 30 25 19 17 14 16 16 15 15 14 15 15 15 16 16 19 18 16 16 14 10 12 6 6 9 10 8 6 5 5 5 6 6 1 3 9 19 27 27 30 25 19 18 22 28 31 28
55 50 42 44 47 42 37 33 27 23 19 18 16 18 17 16 14 14 14 12 10 7 9 11 15 18 16 14 9 9 8 1 9 9 7 6 7 7 5 2 5 11 19 25 30 30 29 25 23 24 26 24 22 32
57 48 44 41 50 45 41 35 30 26 22 20 21 21 23 22 19 17 19 16 12 12 8 7 9 15 17 12 8 6 4 3 1 5 10 11 13 14 14 7 7 14 18 20 21 25 24 22 25 25 26 26 25 21
63 49 48 41 52 46 42 38 33 29 25 23 20 19 18 17 16 17 16 17 16 16 14 11 8 14 17 16 11 9 4 1 1 2 1 2 2 1 3 12 12 15 16 19 20 19 24 27 26 26 29 30 28 29
59 56 40 56 54 49 43 39 35 30 26 22 20 16 14 13 12 13 13 12 12 14 8 11 14 11 18 19 14 8 4 4 4 4 6 6 9 5 7 10 12 16 21 23 24 26 23 26 25 24 27 30 31 26
59 57 55 60 54 49 44 40 36 32 27 24 20 18 15 11 9 8 6 3 4 10 10 10 11 10 13 15 15 7 3 2 3 6 11 9 7 4 6 10 12 17 21 25 26 27 29 27 28 22 25 25 25 23
55 62 62 59 54 50 47 42 37 32 26 23 19 15 14 11 9 6 4 3 3 2 2 5 7 8 10 11 9 5 2 2 3 3 3 6 1 4 8 11 14 16 18 22 24 27 29 32 32 31 25 22 21 18
61 64 64 58 55 51 46 40 34 28 26 21 16 13 12 9 4 5 5 5 4 4 1 5 8 10 9 9 5 3 3 5 5 6 5 7 7 4 8 12 17 19 20 21 24 26 29 31 31 31 31 26 23 19
61 69 64 57 54 50 45 39 32 31 24 19 16 13 7 8 6 5 7 5 4 1 6 8 10 13 8 7 7 5 5 4 5 5 5 9 11 7 12 18 20 23 24 24 24 27 29 30 32 32 30 32 26 21
71 64 60 58 54 49 41 37 33 25 21 18 13 10 7 4 5 5 6 4 5 8 10 10 11 10 12 9 6 5 5 5 5 6 5 13 19 14 20 29 32 31 26 24 25 26 28 30 32 32 33 32 31 26
69 64 60 57 53 46 43 34 29 24 18 17 10 7 8 9 6 2 5 9 10 10 11 10 12 13 12 8 6 6 5 5 6 6 10 15 18 22 28 33 36 36 32 30 31 32 30 30 31 32 32 33 33 33
68 64 60 57 51 46 36 31 27 23 22 14 9 14 16 11 8 5 4 4 6 9 10 10 8 6 5 5 6 6 4 4 7 13 17 22 28 32 35 38 37 37 37 37 35 31 30 29 31 33 31 29 31 33
69 67 62 55 48 41 33 35 30 27 16 11 18 16 11 6 3 5 8 9 10 11 9 7 4 4 5 6 6 6 7 15 22 26 31 35 38 40 40 38 37 36 37 36 35 34 33 32 32 31 30 26 26 30
63 60 56 50 41 35 40 36 30 18 15 17 21 13 8 4 3 5 9 11 14 13 11 10 11 13 8 10 14 16 23 29 32 38 41 42 41 38 39 38 36 34 32 28 28 31 30 31 31 29 27 25 24 24
60 56 46 37 38 45 41 36 29 15 18 19 13 11 8 7 6 8 10 14 17 16 14 14 9 12 15 18 21 25 33 37 40 40 39 38 39 39 37 34 31 28 25 24 28 27 26 28 30 28 25 24 23 22
54 45 42 46 46 43 33 25 28 12 16 16 12 10 8 8 10 12 14 18 21 21 20 20 19 17 21 25 31 32 33 34 37 38 36 31 31 32 29 26 25 25 28 31 31 25 26 28 29 28 25 22 22 20
57 53 51 45 44 35 21 21 23 16 15 13 11 10 10 11 13 15 18 22 24 24 22 19 20 21 23 27 28 30 29 30 30 31 32 32 30 28 26 23 24 27 29 32 33 30 30 31 30 29 27 22 22 19
52 51 44 41 41 33 21 22 18 15 13 9 10 10 12 15 16 16 21 26 25 16 20 22 24 26 27 24 23 23 24 27 28 28 26 25 23 23 26 28 29 28 29 30 31 32 33 33 32 28 26 25 22 19
44 41 39 38 28 24 18 19 16 14 10 11 13 14 17 17 17 21 23 25 24 21 23 23 23 23 20 18 19 23 26 27 26 27 28 28 27 27 29 30 29 29 31 30 30 32 35 34 32 27 24 24 23 18
42 40 40 32 24 17 17 19 19 16 14 16 16 17 18 19 22 26 28 25 18 20 18 18 16 13 14 17 20 19 18 21 24 26 26 27 29 30 31 29 29 28 31 31 32 33 33 33 29 25 23 22 24 18
38 31 29 23 22 19 18 16 15 16 17 16 17 16 17 21 23 27 26 17 18 17 14 13 14 15 18 19 18 18 19 23 26 29 28 31 32 32 31 30 29 29 30 31 32 32 30 29 26 24 21 22 23 17
24 14 18 18 21 17 16 15 13 16 18 17 14 17 21 22 21 15 19 12 13 12 13 14 17 18 18 18 20 21 23 26 29 32 33 33 32 33 34 34 31 28 30 32 34 31 27 24 22 22 18 21 20 16
23 18 23 20 16 15 17 20 20 19 15 15 19 21 19 12 12 11 7 11 13 15 15 16 17 19 21 23 24 25 24 26 31 34 36 35 33 32 35 35 34 35 35 36 35 30 24 20 20 19 15 18 17 15
20 14 13 16 13 12 15 17 16 15 19 21 22 22 12 8 10 14 18 20 21 18 19 17 20 24 24 24 26 28 28 30 34 37 38 35 32 31 33 33 35 34 34 33 31 26 23 20 19 15 15 15 13 14
16 14 15 16 17 17 18 19 20 22 23 23 23 20 23 25 24 23 22 24 25 23 21 19 21 24 24 26 28 30 32 36 38 38 37 34 32 30 29 32 32 34 32 30 28 25 22 19 18 17 16 17 19 17
19 18 18 20 21 20 20 19 21 20 20 20 21 24 26 27 26 26 25 22 22 20 21 23 24 24 27 30 32 35 37 41 42 42 41 36 32 30 30 32 32 34 31 27 24 23 21 19 18 18 20 21 20 20
22 24 23 20 19 19 19 18 19 20 20 20 22 25 25 26 21 17 17 15 14 15 17 18 20 24 30 34 37 40 40 41 42 41 38 35 33 29 31 32 32 33 29 25 24 24 24 23 22 20 19 18 19 22
21 21 18 16 14 15 17 17 17 18 17 17 18 19 20 21 20 17 16 14 12 15 21 25 29 31 32 34 36 40 44 44 39 35 33 31 30 28 28 28 28 30 28 26 26 27 28 28 26 25 24 22 22 22
15 14 12 12 12 12 11 12 14 17 17 17 19 19 20 22 22 20 17 16 22 26 30 33 35 36 36 37 41 41 36 33 30 29 27 26 25 24 24 25 26 27 27 28 29 29 29 28 28 28 28 27 26 26

GFSWCAN_700_spd_054.txt.gz
Wind_Speed
54 50 50 46 34 35 31 27 28 23 19 15 9 8 8 9 11 11 11 12 11 9 12 12 11 12 10 10 9 8 9 10 10 11 9 8 7 9 6 6 4 5 3 3 4 5 6 8 4 6 10 17 20 18
53 54 49 46 38 41 34 29 30 25 19 15 12 12 13 13 15 16 16 18 16 10 15 12 9 8 8 10 10 10 7 10 11 11 9 7 6 8 8 4 7 4 7 2 5 3 6 10 20 21 21 24 23 24
53 58 42 40 40 39 38 34 29 24 21 17 17 17 15 17 18 22 20 21 21 19 19 14 12 8 5 7 8 10 12 10 8 8 7 6 4 6 4 6 7 7 9 10 10 11 16 19 22 25 30 32 32 36
50 52 36 38 43 37 37 35 30 26 22 20 22 20 17 17 18 23 21 24 23 23 26 21 18 14 11 7 3 10 13 10 9 7 8 8 7 5 5 5 7 10 11 13 16 15 18 17 17 24 28 30 32 34
60 53 40 38 48 38 37 37 29 28 25 25 25 22 20 19 18 22 22 17 14 14 21 22 17 12 10 8 11 5 8 9 10 8 8 9 9 7 7 5 7 6 5 10 15 17 21 20 20 19 21 21 21 23
53 40 40 50 50 33 41 37 34 31 28 27 26 24 23 20 19 22 23 19 17 14 15 19 16 12 9 7 8 6 6 4 7 9 9 9 7 6 5 7 5 8 9 13 16 17 19 20 20 21 22 25 25 22
50 43 50 48 42 47 45 39 37 34 32 30 29 28 25 23 20 19 19 20 20 17 15 11 14 16 11 8 7 5 2 2 2 5 9 9 9 11 12 13 10 3 7 10 14 17 14 15 20 22 24 23 21 21
54 38 53 52 51 51 47 43 39 36 35 33 32 32 29 29 26 23 23 22 20 17 13 8 10 13 15 11 8 5 4 3 2 3 5 6 6 8 5 5 3 4 5 7 11 14 18 20 19 22 24 23 21 22
54 43 59 48 54 55 48 45 42 41 39 37 37 35 31 26 22 21 20 17 13 12 9 8 7 6 10 12 10 6 4 4 1 3 4 4 7 4 5 2 2 4 8 12 15 16 17 19 21 23 26 26 24 22
48 57 60 53 56 54 51 48 45 43 41 36 34 32 28 24 21 18 16 13 10 12 11 9 8 5 5 8 9 4 2 2 3 3 4 5 7 6 6 6 6 9 11 13 15 16 18 19 20 22 24 26 29 26
53 67 62 53 60 56 53 50 47 44 38 36 32 26 25 21 17 9 7 6 5 5 5 4 3 4 5 6 7 3 3 2 3 5 6 6 9 10 7 4 5 8 12 17 19 21 23 25 26 24 22 23 27 28
60 68 62 58 62 57 52 50 44 38 38 32 24 25 22 15 7 5 7 6 6 6 6 1 2 5 6 6 4 4 5 4 4 8 6 5 12 16 11 6 9 13 16 19 23 25 26 28 30 31 29 26 23 25
66 68 63 64 60 55 51 47 44 41 37 29 27 19 12 7 5 6 8 7 8 8 3 3 7 9 6 5 6 6 5 5 6 6 6 10 14 19 18 15 15 21 26 28 29 30 30 30 31 32 32 30 27 26
72 62 68 67 60 55 51 48 43 38 33 27 18 16 7 6 6 7 7 7 6 3 6 9 11 8 10 8 7 5 6 6 5 7 8 12 16 22 24 24 25 31 35 39 38 34 31 31 33 34 35 34 33 29
71 68 69 64 57 55 51 47 41 35 28 18 14 9 9 7 8 8 6 4 5 5 6 9 11 11 11 8 6 7 5 6 7 6 8 12 15 20 24 29 36 42 45 41 37 37 36 35 34 32 35 37 37 35
69 72 67 62 58 53 49 44 40 32 25 19 12 9 11 14 12 10 7 5 4 4 3 4 5 5 5 5 6 7 5 5 5 10 14 17 21 26 33 39 44 42 41 39 37 36 33 31 32 32 31 32 35 36
74 75 67 61 57 53 49 45 35 28 16 15 14 15 20 18 13 9 5 4 4 6 5 4 2 3 5 7 6 7 9 15 16 20 25 31 35 39 41 40 40 39 37 33 30 26 25 26 29 30 31 31 32 31
77 72 66 60 57 53 49 40 31 15 19 21 24 24 20 14 9 5 2 1 3 6 9 4 8 11 7 8 12 16 20 24 28 32 34 35 34 35 36 36 34 32 28 24 23 25 27 34 33 33 29 31 32 26
75 71 64 59 55 52 43 35 27 19 24 25 27 24 17 12 9 6 3 5 6 9 10 9 7 8 11 15 20 25 28 32 35 32 30 27 28 30 32 31 29 25 23 23 23 29 30 36 33 29 32 32 31 29
68 63 61 57 52 45 33 30 27 25 26 28 28 22 16 13 11 7 6 8 11 13 14 15 16 17 19 22 26 27 26 27 28 28 25 24 26 26 26 26 23 23 24 24 25 29 30 28 27 29 33 32 30 26
66 62 58 54 46 38 24 33 25 21 26 29 25 20 16 13 11 9 9 12 16 18 17 20 21 22 23 24 24 23 22 21 21 24 27 27 26 25 25 24 23 25 26 24 26 27 28 29 29 31 33 31 27 23
66 60 56 49 39 31 24 32 29 23 23 23 22 19 16 14 12 12 14 18 20 16 24 26 23 22 22 21 21 18 18 20 23 24 24 23 22 21 22 24 26 28 28 28 30 31 32 31 32 33 33 30 24 21
60 55 49 42 35 23 22 28 29 25 17 19 18 18 16 15 14 14 18 20 23 23 27 23 21 21 18 16 13 14 19 22 20 19 21 23 24 26 28 29 31 32 32 31 32 33 34 33 34 34 33 29 22 20
50 45 34 30 27 19 28 25 25 28 20 19 17 17 15 14 16 19 24 25 24 28 23 20 18 16 15 14 15 17 20 20 20 23 26 26 26 28 30 30 29 30 32 32 31 32 34 34 35 34 31 25 20 19
33 26 18 20 25 29 23 29 26 25 18 17 16 15 13 16 18 24 27 28 26 22 19 17 15 15 15 16 18 19 18 20 23 23 20 23 27 30 32 31 28 28 30 31 30 31 31 33 30 27 25 20 18 17
31 13 21 23 28 24 24 25 27 23 18 16 14 15 17 18 20 20 28 22 17 15 15 15 16 17 18 20 21 20 23 24 24 25 23 25 30 33 36 37 34 31 30 31 34 34 33 32 26 23 21 20 18 15
23 11 26 28 26 21 19 20 18 18 17 16 17 17 19 15 15 19 20 17 16 18 17 16 17 20 21 21 24 25 26 27 28 28 29 31 33 35 38 40 39 36 34 32 33 35 33 29 24 21 18 18 14 12
13 13 18 21 19 16 14 16 18 18 18 18 18 17 12 13 21 23 20 21 22 24 22 19 19 21 24 26 27 28 30 32 33 33 35 37 39 38 39 40 39 35 33 30 30 33 31 27 22 19 17 15 15 16
12 13 17 18 18 16 17 19 18 17 17 17 19 19 21 20 19 20 21 22 23 24 22 20 19 22 24 27 30 32 33 34 36 38 41 45 44 44 43 39 35 33 29 28 29 31 30 26 21 18 18 16 16 16
18 17 18 17 18 18 16 16 16 17 18 19 19 18 17 16 17 20 21 21 22 20 18 18 17 20 23 24 27 29 32 37 41 44 44 44 44 42 38 33 30 29 26 26 27 28 28 26 24 22 21 20 18 18
17 20 20 18 16 15 15 16 19 18 17 16 16 16 16 15 10 9 13 14 15 15 15 16 20 23 26 30 33 36 37 38 40 41 43 42 36 34 32 28 27 28 25 25 27 29 27 27 27 27 26 24 23 21
24 20 18 19 20 21 20 18 17 15 13 14 13 12 13 13 13 14 14 13 11 13 18 21 25 29 33 35 37 38 39 40 42 40 35 32 29 29 28 26 26 26 25 26 28 29 28 29 29 29 28 28 27 25
23 22 21 18 18 17 16 14 14 14 13 11 12 13 13 13 14 12 15 15 17 20 23 27 30 33 36 36 39 39 36 32 30 29 29 28 26 27 27 26 25 25 25 27 27 28 29 29 28 27 26 25 24 24

GFSWCAN_700_spd_057.txt.gz
Wind_Speed
40 37 30 51 50 51 38 33 31 27 33 25 20 15 13 11 10 11 13 13 14 12 18 18 16 17 16 14 12 9 9 11 10 8 5 4 2 6 4 6 6 6 5 5 6 5 8 9 10 8 10 16 19 22
48 28 41 59 51 50 30 37 34 32 31 26 17 16 14 14 13 14 15 16 18 14 18 17 13 15 14 13 12 12 11 10 11 11 10 7 7 7 7 5 11 6 11 7 7 6 9 10 14 18 23 27 30 31
46 26 46 58 47 42 34 33 32 32 31 25 19 19 18 17 17 18 19 19 21 18 20 17 14 12 12 12 13 13 13 7 12 11 9 9 5 9 6 8 8 13 11 10 9 13 17 17 19 24 28 29 29 29
39 30 49 54 48 40 35 34 38 33 29 23 22 23 21 21 23 23 21 24 22 13 26 21 17 13 11 8 10 11 13 12 11 10 11 11 9 9 12 10 13 13 9 12 16 18 20 19 20 24 28 29 31 30
27 33 57 62 41 34 41 34 43 35 29 26 26 26 24 24 26 28 26 28 27 12 26 23 18 14 14 11 8 6 11 11 11 11 11 12 13 11 11 12 13 14 13 9 9 16 19 18 20 21 22 22 23 27
30 32 45 49 38 36 47 33 41 34 31 28 29 27 26 25 29 31 28 22 27 24 24 23 15 13 11 9 8 7 6 6 8 11 11 12 11 10 7 7 11 8 10 11 10 9 11 13 15 15 19 20 21 22
42 48 52 50 43 43 45 49 41 37 34 34 33 28 26 26 29 29 26 29 24 28 27 19 13 14 12 9 7 6 4 5 5 7 9 9 10 12 14 11 16 15 12 11 11 11 10 12 14 15 16 18 20 19
25 40 59 46 45 49 48 46 40 38 37 37 34 29 28 27 23 24 28 27 24 14 11 9 15 14 13 11 9 7 5 4 5 5 6 8 9 12 9 11 8 7 11 12 12 14 17 16 16 16 18 20 20 20
29 46 53 47 55 50 53 49 44 39 40 39 34 31 29 27 27 28 26 22 17 9 7 10 12 9 9 9 8 6 5 4 4 6 7 6 9 7 7 8 9 8 9 11 12 11 13 16 18 21 23 23 23 22
34 45 48 54 55 57 56 48 42 42 43 40 37 37 32 30 28 25 21 14 10 10 9 13 9 8 5 4 3 1 3 4 4 6 6 10 13 11 11 11 12 12 11 11 13 15 18 21 25 26 28 29 29 28
50 52 47 60 57 55 55 47 45 46 45 44 43 40 36 32 27 18 10 7 7 7 8 10 8 5 2 0 3 2 3 4 4 6 7 6 8 14 15 15 14 13 13 14 16 19 24 28 31 34 34 34 35 34
54 49 51 60 54 58 53 47 49 51 50 46 41 37 37 26 9 6 9 8 6 6 10 8 4 1 2 4 4 5 5 5 5 6 6 5 10 14 18 19 17 17 18 19 23 28 33 38 41 42 39 38 39 38
58 56 56 56 61 58 50 49 49 48 48 41 36 36 21 10 8 9 10 8 8 10 10 5 1 5 5 5 5 5 5 6 5 6 5 11 12 14 19 22 23 24 25 28 33 40 44 42 39 38 38 38 39 40
52 56 61 61 64 56 52 51 53 51 47 34 28 16 9 8 9 8 9 7 10 11 6 4 6 5 7 6 5 4 6 5 4 5 7 12 11 13 17 22 27 31 35 39 42 47 47 45 41 37 35 36 37 38
57 60 59 66 64 57 52 54 52 45 38 21 11 9 13 12 11 10 7 8 8 6 4 3 4 6 6 5 4 5 4 5 6 7 8 8 10 13 18 23 27 33 41 44 43 42 38 34 33 29 26 28 30 32
61 62 63 69 62 56 54 53 48 42 28 15 10 14 18 15 11 7 9 9 9 7 3 2 2 3 3 3 5 6 5 6 9 10 11 15 19 23 30 35 38 39 39 37 35 34 32 29 29 31 29 36 36 34
64 65 72 67 61 54 53 52 45 28 18 12 18 19 17 11 12 15 13 11 8 5 2 2 1 2 3 5 7 9 12 15 15 16 19 24 30 36 37 36 34 32 32 32 31 30 29 28 29 32 34 35 31 29
69 70 73 69 61 56 56 49 36 20 18 24 23 15 11 17 18 14 10 8 4 1 3 2 5 7 5 10 16 18 19 21 22 24 26 31 33 31 29 29 30 30 30 28 28 28 28 29 33 35 35 35 32 34
69 74 72 63 58 59 51 39 29 19 26 23 20 15 22 20 16 11 7 5 2 3 6 7 5 9 14 18 22 23 23 24 25 26 26 26 23 24 26 26 27 28 27 25 27 29 29 30 31 32 34 34 35 36
69 74 67 61 59 52 27 30 27 27 28 21 21 27 25 19 14 10 8 6 6 8 9 11 13 16 19 21 22 22 22 23 24 24 21 19 21 20 20 23 24 27 28 29 31 32 31 33 34 35 36 36 37 38
76 68 64 62 57 36 29 32 26 26 25 26 30 29 24 19 15 13 11 10 11 12 14 15 18 21 22 21 20 21 22 21 19 18 20 18 16 16 18 22 25 29 32 32 33 34 35 34 35 37 37 36 37 36
74 65 65 62 43 31 30 27 19 23 28 31 31 29 24 20 17 15 13 15 16 13 16 20 21 24 23 21 21 21 20 18 17 18 18 17 17 21 23 25 29 32 34 34 33 34 33 33 34 35 37 38 38 35
69 66 57 45 33 22 27 26 24 27 23 27 29 29 26 21 19 16 18 18 17 17 21 23 24 24 21 21 19 19 20 20 19 17 19 21 20 22 22 23 28 31 33 33 33 33 32 33 35 34 36 38 35 29
64 56 41 29 26 16 31 28 29 27 25 27 28 28 26 23 18 19 21 19 19 22 24 24 23 20 19 19 18 18 21 24 23 20 22 24 23 22 24 26 29 32 33 35 35 35 34 34 35 35 36 37 31 27
47 31 24 25 19 22 25 29 29 26 24 28 28 30 23 17 18 21 22 23 23 22 23 21 18 17 18 20 19 19 23 26 26 23 24 25 24 25 27 30 33 37 40 40 40 37 35 34 34 36 35 34 29 24
30 11 17 25 25 24 29 31 30 28 24 25 22 21 18 18 18 18 23 20 21 23 20 18 17 19 20 20 21 23 24 27 28 28 27 27 28 30 33 35 39 42 42 42 41 39 34 32 32 34 32 30 28 25
10 10 21 29 28 26 25 26 25 25 24 20 21 19 16 12 13 18 18 21 25 22 19 19 20 22 23 24 26 27 28 29 31 32 32 32 34 35 38 42 45 46 47 44 40 36 33 30 30 31 29 26 26 22
13 15 24 23 24 23 20 22 24 25 25 23 19 17 13 16 18 22 24 23 22 21 21 23 24 25 28 30 31 31 29 30 32 34 34 34 37 40 43 46 47 47 44 39 34 30 29 28 29 28 26 24 22 22
18 18 21 23 22 22 23 22 23 22 18 15 15 16 19 21 22 23 22 21 22 24 26 26 26 27 26 26 27 28 30 32 33 35 38 40 43 46 47 47 46 42 36 32 29 28 27 27 27 27 25 24 23 22
18 22 24 24 23 20 20 18 17 16 15 15 17 19 21 20 21 22 22 22 22 23 22 21 21 21 22 24 27 29 32 36 40 44 47 46 46 45 45 43 37 33 30 29 26 24 26 26 27 28 27 25 25 24
22 22 24 23 22 16 13 12 12 13 15 18 18 18 19 18 16 16 18 19 20 20 19 19 21 24 27 30 33 36 38 41 43 44 43 42 39 35 33 30 29 29 29 29 27 26 26 26 28 28 28 28 28 27
26 25 23 20 15 14 15 16 17 17 16 16 16 16 15 15 14 15 15 16 18 19 20 22 24 27 31 34 36 38 40 42 37 34 34 33 33 31 29 28 28 28 28 28 26 26 27 27 28 29 28 28 27 25
26 24 23 22 20 18 17 16 15 14 15 15 13 12 13 14 13 14 16 17 19 20 22 24 27 30 33 35 37 34 28 31 33 33 30 27 26 28 29 28 27 26 25 25 25 25 26 26 26 25 24 23 22 21

GFSWCAN_700_spd_060.txt.gz
Wind_Speed
32 31 27 26 32 18 36 24 36 17 30 30 29 20 17 15 15 15 15 18 17 16 19 22 19 22 18 18 14 13 12 12 12 8 6 4 3 5 3 3 3 3 1 3 5 4 5 7 8 8 8 11 15 18
31 30 26 25 30 31 40 41 27 26 31 27 32 20 17 16 15 17 17 17 19 18 18 20 19 19 18 17 15 14 12 13 12 10 8 6 5 4 6 2 9 7 9 5 4 5 7 8 10 13 19 22 25 29
30 28 22 30 32 39 39 35 24 28 33 32 24 23 19 16 16 16 18 19 21 17 22 21 20 19 18 18 17 15 13 9 14 12 8 7 5 6 4 8 7 9 11 13 13 11 15 15 18 22 25 26 27 30
29 25 21 39 25 39 40 41 30 29 34 38 27 23 18 18 19 20 20 22 22 23 19 22 18 17 16 16 16 15 14 11 11 12 12 11 9 8 12 11 10 13 11 12 12 16 18 19 21 24 25 27 27 27
28 24 23 30 35 38 39 32 25 31 37 33 24 22 20 19 21 25 24 23 23 16 25 24 20 16 14 14 15 15 14 13 11 12 12 11 11 10 11 12 14 15 17 16 16 12 14 17 17 18 19 19 20 22
28 23 34 33 40 48 39 33 32 38 34 28 25 24 23 25 27 29 28 24 20 23 26 24 20 17 14 13 13 13 12 11 10 11 11 11 10 8 6 9 14 12 13 10 12 14 16 16 14 15 16 18 20 21
25 22 33 27 33 46 40 36 41 37 31 30 29 27 26 27 29 30 26 22 28 26 21 19 16 16 14 13 13 13 11 10 8 6 7 6 8 10 14 17 12 11 15 18 15 13 13 15 16 17 15 15 18 21
28 26 34 28 31 38 39 39 44 38 35 33 31 29 29 30 31 22 29 31 26 22 12 8 17 16 15 14 12 11 10 9 8 6 5 7 9 11 8 11 10 11 10 10 12 12 13 15 14 15 18 22 24 27
44 44 44 44 40 34 39 42 46 37 34 34 34 32 32 32 29 29 28 30 19 9 7 14 17 17 14 14 12 10 8 7 6 6 7 6 10 8 9 10 10 8 11 11 14 15 14 15 17 20 22 25 29 32
45 43 45 47 43 35 38 53 44 38 40 39 36 34 34 30 25 29 26 22 11 7 8 17 12 15 12 11 8 6 6 5 4 6 7 10 16 15 13 14 13 13 14 15 14 14 16 17 19 22 27 34 39 41
39 30 46 48 41 43 49 50 42 44 43 42 39 36 32 26 30 25 13 11 9 7 11 14 12 9 8 5 3 2 2 3 4 4 6 5 8 13 16 17 17 18 18 18 18 20 23 27 32 37 42 44 44 43
42 34 41 49 42 46 52 49 47 48 46 41 35 30 33 29 16 7 13 8 9 7 15 14 11 8 5 2 2 3 4 4 4 4 5 5 10 12 13 17 19 20 20 21 24 28 31 38 43 47 49 50 47 44
39 40 39 45 42 55 57 48 44 45 43 38 26 34 28 11 10 10 12 10 9 14 17 13 8 4 2 2 3 4 4 5 4 5 4 9 8 10 12 16 19 21 24 27 30 34 39 44 47 47 44 39 38 36
42 45 42 48 50 62 50 45 48 47 43 31 25 22 13 8 9 10 15 9 11 16 15 9 3 2 2 3 4 4 5 3 3 4 4 8 8 7 9 13 17 21 24 30 36 40 41 39 37 33 32 34 32 33
48 49 45 51 59 58 47 49 48 46 35 23 14 12 13 14 19 17 14 12 14 12 7 4 2 2 3 3 3 4 3 4 5 5 6 8 9 12 15 19 24 30 33 34 33 33 32 31 31 30 31 31 31 34
50 44 47 54 62 51 51 51 50 43 24 21 10 14 21 22 15 12 11 9 8 7 7 4 2 2 3 3 3 4 3 3 7 11 12 14 17 21 25 29 31 31 30 29 29 30 30 30 31 31 30 30 31 35
51 52 56 66 57 52 51 51 50 32 14 13 17 29 27 20 16 11 5 6 12 10 6 3 1 2 1 2 2 4 7 13 16 17 19 21 24 27 30 30 28 27 26 26 28 28 28 29 31 32 32 31 33 34
55 51 59 64 57 54 54 52 38 21 19 19 28 25 25 16 7 10 14 15 10 6 3 2 1 2 1 5 11 15 17 19 20 20 22 24 26 27 27 25 24 24 24 25 27 28 30 32 33 34 35 38 38 38
57 59 70 63 59 56 55 46 30 19 24 30 27 21 15 12 12 15 15 11 7 3 2 3 1 5 9 13 16 18 19 19 20 22 23 25 24 22 23 20 19 21 23 27 30 33 34 33 34 36 36 37 38 38
55 70 67 58 56 44 31 35 23 25 34 31 25 23 16 12 17 16 12 7 3 1 4 6 8 12 14 17 19 20 20 20 21 23 22 21 20 19 17 17 21 25 26 27 29 32 34 35 35 36 37 37 38 38
67 74 64 58 52 37 24 36 21 30 35 32 25 21 18 20 18 14 10 7 5 4 7 10 14 17 20 20 23 22 21 21 21 21 20 20 20 15 14 19 24 22 22 25 30 33 35 37 37 36 38 38 39 40
75 71 64 60 46 32 28 34 24 32 31 30 23 21 25 25 20 15 12 11 8 6 9 13 17 21 22 24 24 23 22 21 19 19 20 23 21 18 19 22 22 23 25 28 32 35 39 41 41 40 40 39 40 40
74 66 60 50 35 23 28 32 29 28 25 27 24 26 27 25 21 16 15 14 10 8 13 18 21 22 24 25 23 22 22 21 20 20 22 25 25 23 24 24 26 27 29 31 34 38 41 42 44 43 39 37 38 39
70 59 46 35 24 17 33 30 31 31 33 28 28 29 28 26 20 20 19 16 12 13 17 20 22 25 24 22 21 22 23 23 24 23 24 26 26 26 28 27 28 30 33 35 37 41 43 46 46 41 36 34 35 37
53 37 24 24 22 25 30 28 29 29 27 27 31 30 26 22 22 23 22 16 15 17 19 22 25 24 21 20 21 22 24 26 28 28 24 27 28 30 30 30 31 32 34 37 40 45 47 48 46 37 32 32 33 33
22 22 23 28 25 27 30 29 24 26 27 29 27 27 24 22 22 18 17 14 17 18 21 26 25 23 22 23 23 24 25 28 31 31 28 30 31 33 34 34 33 34 39 43 47 50 49 47 42 34 29 29 30 30
10 22 22 30 24 29 34 29 26 29 24 24 25 22 21 18 15 15 15 17 18 23 25 26 25 24 24 26 26 26 27 28 29 30 30 33 34 34 35 38 40 43 46 49 50 49 48 42 36 30 27 26 26 27
13 26 29 29 27 27 29 27 22 23 20 19 18 15 15 12 12 14 18 21 23 26 26 26 26 26 26 24 24 24 25 27 29 31 33 34 37 39 42 44 47 48 49 49 48 45 38 35 32 28 26 26 24 24
17 31 30 30 29 27 24 25 22 22 20 19 17 18 16 16 16 19 21 24 26 26 25 24 23 22 21 22 24 27 30 32 35 37 39 42 44 46 48 48 46 44 41 37 33 32 31 30 29 27 26 26 24 23
28 29 30 30 29 25 22 20 18 15 16 17 14 13 13 16 19 23 25 25 23 20 20 20 20 21 23 24 26 28 31 35 39 43 45 45 44 40 37 36 34 34 32 31 29 28 28 28 27 26 27 27 27 26
29 28 25 22 20 17 17 16 16 17 16 13 12 15 17 18 21 22 21 20 18 18 18 18 20 23 25 28 30 32 35 38 41 39 35 36 38 37 33 30 29 30 30 29 28 27 26 24 24 24 25 25 25 25
26 25 26 23 21 18 17 16 13 11 13 16 16 18 19 18 17 16 16 16 15 15 18 21 24 26 27 30 33 36 39 38 29 29 34 34 31 29 28 30 30 30 28 26 25 24 24 23 23 23 23 23 22 21
24 23 22 21 21 21 18 16 14 14 15 15 16 16 17 15 13 13 12 12 14 18 21 23 25 26 29 29 33 33 31 26 26 31 32 29 26 29 30 28 28 26 25 24 23 23 22 21 20 19 19 20 20 19

GFSWCAN_700_spd_063.txt.gz
Wind_Speed
33 31 27 25 19 16 12 16 20 24 23 14 17 31 23 21 21 21 21 22 24 20 16 22 21 23 21 21 20 19 17 15 18 14 9 6 6 7 7 6 6 5 5 5 6 4 5 4 6 6 8 9 12 18
32 28 24 21 18 14 18 22 26 28 25 18 25 27 22 20 21 21 20 21 23 23 15 22 22 21 18 16 16 17 13 18 15 12 9 7 7 8 9 7 9 7 7 5 5 6 6 8 9 11 14 17 22 25
27 23 21 18 16 15 24 27 32 27 27 19 26 29 20 21 20 17 18 20 23 22 14 24 24 22 20 19 16 13 14 16 13 13 11 8 6 9 10 11 9 8 10 10 9 10 13 15 14 16 19 20 22 24
24 20 17 16 12 12 26 30 31 24 19 19 22 37 21 22 19 19 19 22 24 19 14 25 23 22 21 20 19 17 15 12 15 14 13 10 8 8 10 9 10 11 10 8 12 15 16 17 15 16 16 17 17 17
20 19 15 18 11 14 22 12 27 19 19 20 32 35 23 22 20 21 21 21 22 19 13 25 22 21 20 19 18 17 16 14 12 12 11 11 12 9 10 12 13 15 15 14 14 14 14 13 14 13 12 13 16 17
19 18 17 16 20 20 28 30 17 21 15 27 37 28 25 24 23 24 24 23 20 15 18 23 19 19 18 18 18 18 17 16 14 14 12 14 12 10 6 8 8 9 12 14 13 12 13 15 16 15 15 16 16 15
19 16 24 19 30 30 36 29 24 18 19 32 28 28 26 26 26 25 20 23 21 17 21 20 19 18 17 16 16 16 16 15 14 12 13 11 11 13 14 14 10 10 10 11 13 16 16 15 15 15 15 14 15 17
17 21 24 26 28 31 38 27 27 29 36 32 29 29 30 30 30 21 22 21 25 21 16 9 15 20 19 17 17 15 15 14 13 12 10 11 11 11 8 10 11 11 13 13 14 14 16 15 16 16 17 18 18 20
20 25 24 33 31 22 37 32 38 44 32 31 30 30 32 33 22 21 23 29 24 13 7 13 19 20 20 18 17 15 13 12 10 11 12 8 11 9 10 9 9 10 12 13 14 15 17 18 19 20 22 25 27 30
28 33 31 29 23 30 38 39 41 41 34 34 31 36 35 26 21 26 29 25 16 8 8 19 19 17 20 18 15 11 9 8 5 10 9 11 14 16 14 14 14 14 14 15 17 19 21 22 24 26 29 33 40 43
42 44 41 37 28 34 42 48 48 39 41 39 39 35 34 26 31 22 13 16 7 6 13 21 14 17 16 13 10 7 4 5 4 5 6 5 9 10 11 13 17 16 17 18 21 22 24 27 31 34 36 39 41 39
46 52 45 42 41 43 51 51 42 45 42 39 34 35 29 26 14 7 13 10 10 8 17 18 17 14 13 9 5 6 4 4 2 3 5 4 7 7 8 11 13 16 18 20 22 24 28 31 35 40 39 37 35 33
49 51 48 44 41 41 53 46 43 43 40 37 30 32 25 12 12 11 14 12 11 14 22 20 17 13 10 6 5 4 3 4 3 4 3 2 6 7 8 8 10 11 14 19 22 27 33 36 34 33 32 30 31 31
48 44 40 42 41 45 53 46 48 46 43 33 24 18 13 8 10 13 20 17 11 18 23 19 13 8 7 6 4 4 4 2 3 3 2 7 8 8 8 9 11 15 20 26 29 29 27 27 26 25 26 26 28 29
45 45 41 43 48 56 51 49 50 46 37 22 10 12 10 12 20 21 13 14 16 21 17 14 10 7 7 5 5 3 3 3 4 4 10 12 12 12 13 15 19 23 26 25 24 23 22 23 24 23 24 26 28 29
43 42 41 45 54 56 50 53 51 42 27 22 9 15 15 24 23 20 19 18 17 16 14 11 7 5 4 5 4 3 1 1 7 15 15 16 16 16 19 22 25 26 23 22 20 21 21 23 26 28 29 30 32 34
53 50 46 50 59 54 51 55 49 31 18 16 13 23 26 29 23 12 16 12 12 13 12 6 5 3 5 4 2 1 4 13 16 18 19 18 19 21 24 25 25 22 20 18 18 20 24 27 30 32 33 31 33 33
53 49 53 61 64 54 54 53 40 18 21 22 17 29 29 27 22 15 6 6 11 11 7 6 5 6 3 1 4 8 11 15 18 19 19 20 22 23 24 23 23 21 17 18 21 22 22 25 27 29 31 33 34 36
56 57 60 68 64 59 58 47 30 20 26 23 28 35 29 20 14 8 10 16 13 9 7 6 5 2 4 6 9 12 14 17 19 19 19 21 23 23 22 24 23 20 19 22 22 20 22 26 30 33 35 36 39 41
54 58 67 63 56 52 36 35 28 27 30 35 35 29 25 19 14 15 18 14 10 7 5 4 4 6 9 11 13 16 19 21 20 19 20 21 22 21 22 24 22 23 24 24 23 24 27 28 32 36 38 41 43 44
51 65 65 59 60 38 24 35 26 27 37 38 32 28 23 17 20 21 18 13 8 4 2 3 7 11 14 16 17 19 21 21 20 21 20 20 21 21 22 22 24 26 28 26 28 28 30 33 35 39 42 42 45 44
67 71 68 63 45 28 29 34 26 37 37 37 31 25 22 23 20 18 15 12 7 3 1 4 10 14 17 19 20 21 21 20 20 21 22 22 22 23 24 24 26 28 29 29 30 31 33 36 37 40 43 43 45 42
71 68 63 50 34 18 32 33 31 39 34 36 31 27 26 24 22 20 17 12 6 4 5 8 12 15 19 21 22 22 21 21 21 22 22 23 25 26 28 27 28 31 31 29 32 34 35 36 39 41 43 44 44 40
69 65 40 27 24 14 40 33 33 36 32 36 32 25 23 21 22 24 19 13 7 6 9 12 14 17 22 23 22 22 22 23 22 21 22 26 28 28 29 30 31 32 34 34 33 34 36 39 41 42 43 44 42 36
56 33 18 23 24 25 37 37 35 33 34 37 30 23 22 21 24 24 20 13 10 10 12 13 16 21 23 23 22 22 23 23 24 25 22 27 30 32 31 31 32 32 33 36 38 40 43 45 44 43 41 39 36 31
32 19 18 29 31 30 32 35 32 34 35 34 31 25 21 21 18 17 17 14 13 12 13 16 20 23 23 22 22 22 23 23 25 26 26 28 31 35 36 37 37 39 43 45 46 46 46 43 40 36 31 29 29 27
19 14 26 34 33 30 32 27 32 32 30 26 28 21 19 16 13 16 17 15 13 13 16 20 22 23 23 22 22 21 22 23 25 27 29 32 35 38 41 43 43 43 43 41 39 37 36 34 31 29 26 25 25 24
17 27 34 34 35 34 34 31 30 32 29 23 24 21 11 12 16 10 8 10 12 17 19 22 23 22 21 21 21 21 23 25 28 30 32 35 38 41 41 38 37 37 36 35 33 32 32 31 30 28 27 27 23 22
29 34 33 33 31 31 31 32 25 24 25 22 21 21 18 14 11 11 11 12 15 19 20 21 20 20 20 20 21 24 27 30 32 35 36 37 34 31 35 35 34 33 32 31 31 32 31 30 29 28 27 26 23 21
37 36 36 35 34 28 29 27 25 24 19 21 20 17 16 16 13 11 14 16 18 19 18 18 18 18 18 21 24 27 29 32 34 35 34 29 28 33 34 31 33 34 33 32 31 29 28 27 26 26 26 25 24 23
35 36 32 28 27 27 29 30 25 21 21 19 18 16 12 10 12 15 17 18 16 15 15 16 17 18 21 23 25 27 28 30 31 30 26 26 31 33 31 30 33 34 33 32 29 27 25 23 23 22 21 21 21 21
28 29 32 32 29 27 25 23 20 18 18 19 16 11 12 16 16 16 15 15 14 13 14 16 18 21 22 24 23 26 29 30 28 26 25 27 30 30 29 30 33 30 29 27 25 25 23 22 21 20 19 19 19 18
29 26 24 27 26 25 24 22 20 20 19 17 17 15 15 16 16 16 14 12 12 13 15 18 19 19 19 21 24 28 29 29 27 25 25 28 30 28 29 30 29 27 24 23 23 22 22 21 21 20 19 19 18 16

GFSWCAN_700_spd_066.txt.gz
Wind_Speed
29 29 28 25 22 17 11 2 7 17 19 27 24 29 26 29 29 30 25 26 23 20 27 28 23 21 21 22 20 20 20 21 20 14 10 6 7 10 8 8 10 12 11 11 12 7 8 12 13 12 9 10 11 13
29 26 25 23 18 15 8 7 11 16 17 26 22 23 27 27 28 29 26 27 25 22 20 27 22 20 20 20 20 17 15 19 15 16 10 7 8 10 10 8 12 10 9 8 10 8 7 7 9 10 12 14 15 18
26 22 20 19 15 14 12 14 14 20 20 21 21 25 30 28 27 27 26 26 26 22 11 24 24 21 19 16 18 15 17 15 14 17 9 8 7 11 11 13 12 13 12 11 11 13 14 14 14 11 15 15 14 15
21 17 17 15 12 13 9 14 23 22 20 19 17 30 28 27 26 24 24 25 26 21 11 25 24 23 21 18 17 15 17 13 15 14 11 9 8 8 12 10 13 13 11 13 17 16 15 16 16 14 13 12 12 13
19 14 15 11 11 9 7 7 13 22 22 20 20 31 24 25 24 24 23 23 24 20 8 26 24 21 22 19 19 17 16 14 12 15 14 14 13 11 11 13 14 15 16 14 14 13 15 16 14 14 15 17 17 16
15 12 10 11 14 14 14 13 15 22 23 21 23 30 26 26 25 25 26 27 24 22 6 25 23 23 21 19 19 19 17 16 14 13 14 14 12 10 7 10 12 14 14 15 15 16 15 15 15 17 17 17 18 18
12 9 13 17 20 26 17 15 25 19 23 20 27 31 26 26 26 26 21 26 23 17 11 15 18 21 20 19 19 18 17 17 16 15 15 14 13 15 17 15 10 9 10 12 13 14 15 17 18 18 19 19 19 21
13 13 14 20 26 31 22 17 24 21 20 24 30 26 26 28 26 21 18 24 22 17 14 7 12 20 19 19 19 18 16 15 15 14 13 14 14 13 10 13 12 13 13 13 15 16 17 16 17 19 20 21 22 24
17 16 16 26 29 26 21 24 19 20 30 28 29 25 27 30 24 22 26 23 24 13 7 7 19 20 21 19 17 16 14 14 12 15 15 10 15 11 14 12 10 11 12 13 15 15 16 17 19 21 23 26 29 32
20 18 27 29 36 28 25 26 20 27 37 34 30 33 34 27 26 28 24 23 14 10 6 12 23 18 24 22 18 13 11 11 6 13 13 16 20 19 18 16 14 14 15 15 17 17 18 21 24 25 28 32 36 38
20 23 28 38 36 27 20 26 35 36 37 38 40 38 30 29 28 20 15 12 10 7 9 19 18 19 21 19 16 12 4 6 5 7 8 6 9 8 9 11 12 13 15 16 18 19 21 23 25 29 31 34 35 33
24 30 34 36 30 26 31 42 43 40 40 38 36 34 34 25 14 7 15 11 10 9 17 23 18 20 20 17 11 9 6 4 4 4 6 3 2 5 6 6 8 10 12 14 17 19 22 26 30 33 33 31 30 30
30 43 44 36 30 36 45 50 37 39 40 38 37 31 25 11 12 10 14 12 10 15 25 23 22 19 17 11 6 5 4 4 3 4 3 2 6 8 9 9 9 10 12 15 19 23 28 29 28 28 27 27 28 29
49 55 51 44 39 47 52 44 41 43 37 38 22 17 12 8 10 11 22 22 13 18 25 23 20 15 11 10 5 4 5 3 3 3 3 6 11 12 12 13 13 15 17 21 25 26 25 24 22 20 21 24 28 29
53 54 49 44 46 52 49 45 45 42 37 25 10 10 11 11 18 20 24 20 13 22 25 22 18 9 10 6 6 5 5 4 4 3 8 14 15 15 15 15 17 19 22 24 23 23 22 20 19 20 23 26 29 31
50 47 48 46 46 51 49 51 47 42 30 22 10 12 15 19 21 23 22 18 19 25 23 18 12 5 7 5 6 5 4 4 4 11 15 16 17 16 17 19 21 23 24 23 22 21 19 21 22 21 20 24 26 28
51 47 48 46 52 53 54 53 46 31 22 14 15 19 19 24 23 21 21 21 21 20 19 10 8 7 6 5 5 4 3 8 11 13 15 16 17 17 20 22 24 24 24 24 22 22 22 24 23 23 25 26 29 31
54 49 48 48 55 61 56 52 36 22 23 23 25 22 31 31 24 17 18 16 12 14 15 9 7 8 6 5 2 4 8 10 13 15 16 17 18 20 22 23 24 24 26 25 24 25 27 28 27 28 30 31 32 36
58 52 51 57 65 61 57 46 32 20 30 23 25 34 32 28 25 20 16 17 18 15 12 10 6 6 4 1 3 7 9 11 15 16 16 18 20 22 23 24 24 26 28 27 28 29 31 31 31 32 33 34 37 39
56 49 60 65 64 50 30 35 30 24 34 24 29 35 33 28 23 21 22 21 17 14 10 7 8 6 4 4 6 8 11 14 16 16 17 19 21 22 24 26 27 29 30 30 31 32 33 33 33 35 35 36 38 40
59 54 67 66 56 35 14 36 27 25 32 28 40 38 32 27 23 21 24 20 16 11 11 10 6 3 4 8 11 13 14 16 17 17 17 19 22 23 24 27 30 31 32 32 32 33 34 34 35 36 37 36 39 41
59 65 70 66 42 30 23 34 26 31 36 40 42 36 32 29 27 27 23 20 15 11 9 5 0 2 6 11 15 16 16 17 18 19 20 21 23 25 26 28 31 32 31 32 34 35 35 37 37 37 38 39 41 42
66 72 66 47 36 20 29 36 26 34 32 43 38 35 33 29 28 25 21 20 15 10 6 3 4 6 10 14 17 17 18 18 19 21 23 25 26 28 30 31 33 35 36 33 35 35 35 37 39 41 43 44 42 39
70 66 38 27 26 15 39 38 32 35 35 41 39 34 30 27 25 25 23 20 16 11 7 5 7 10 13 17 19 20 20 20 20 23 25 27 28 27 29 30 32 34 36 38 39 40 41 42 43 42 40 38 37 34
63 35 18 22 27 26 38 40 36 42 42 44 34 32 30 25 24 26 22 20 16 13 12 10 11 13 17 19 22 22 21 21 21 21 24 27 29 30 31 32 34 37 39 39 39 38 36 36 35 33 31 30 28 25
27 17 18 28 28 31 35 37 40 40 42 34 25 27 27 24 21 14 21 21 18 14 13 12 13 16 19 22 23 22 21 22 24 25 25 29 32 35 35 37 35 34 37 37 37 35 33 32 31 31 29 27 27 26
21 15 24 32 29 32 33 31 34 41 41 26 34 30 27 22 13 18 15 12 15 14 13 13 15 17 21 22 21 20 21 22 24 27 30 31 32 34 36 33 33 35 33 32 33 32 32 33 32 30 29 26 26 25
20 21 35 31 31 34 33 35 37 38 35 26 25 27 21 11 16 9 16 16 13 12 12 15 17 20 21 20 20 20 22 25 27 30 30 30 32 32 30 30 33 31 30 33 33 32 32 32 30 28 26 24 21 21
20 25 35 34 30 32 34 35 28 35 36 33 27 23 23 23 18 15 14 12 11 13 14 18 20 21 19 19 20 22 25 28 28 26 26 28 27 26 28 29 30 28 30 32 31 31 31 31 30 28 26 24 21 20
32 30 36 39 38 34 31 29 29 29 31 28 25 19 16 17 16 14 12 13 13 14 17 19 19 18 18 18 21 25 27 26 26 28 29 28 26 27 27 29 28 29 31 31 29 29 28 28 27 27 26 24 23 22
36 37 37 36 31 28 33 35 35 33 29 24 22 22 20 19 17 17 16 14 15 17 18 17 16 16 17 20 23 25 24 25 27 29 28 26 25 26 29 28 28 30 29 27 26 27 26 26 24 23 23 22 21 20
40 36 33 29 31 31 31 30 28 28 25 23 22 22 20 19 18 16 14 16 18 17 16 15 14 16 19 21 22 22 23 26 28 27 25 24 24 26 25 26 28 26 25 25 26 25 24 23 23 22 22 21 20 19
31 27 28 27 26 28 27 29 28 27 26 26 23 22 21 20 18 18 18 17 17 15 14 14 16 18 19 20 21 22 24 27 27 25 23 22 24 23 24 26 25 23 23 22 22 22 22 22 22 22 21 20 19 19

GFSWCAN_700_spd_069.txt.gz
Wind_Speed
37 37 27 20 19 18 11 10 3 5 6 9 10 14 17 20 26 27 25 21 18 19 29 27 24 23 20 20 20 20 18 19 19 14 8 4 4 9 6 8 6 10 7 7 8 5 7 9 12 12 9 10 11 12
37 32 21 19 18 12 7 12 7 6 11 12 4 9 19 25 35 28 26 22 19 14 27 28 24 22 20 20 19 15 17 17 15 14 9 7 6 7 9 6 11 9 11 5 8 5 7 5 12 12 16 16 17 19
34 26 17 16 13 7 10 12 13 6 6 15 4 9 19 27 31 29 24 24 20 16 19 26 23 19 18 20 18 15 18 7 19 17 10 8 6 7 9 12 10 15 12 14 11 14 15 13 14 16 18 19 20 21
26 22 17 14 9 5 13 14 17 9 6 12 7 11 24 28 27 27 23 25 20 17 10 26 23 20 19 18 17 18 17 10 16 12 15 9 8 6 10 10 10 14 12 16 19 18 17 17 17 19 19 19 18 16
24 19 16 12 5 8 13 15 19 11 7 8 14 20 32 27 26 27 24 25 23 17 5 20 23 22 20 18 17 17 16 15 14 14 14 13 11 9 10 13 14 16 18 18 19 17 18 17 18 19 19 18 18 20
21 15 12 6 6 11 11 17 15 11 10 15 17 26 25 24 24 25 24 25 25 21 1 19 22 23 22 20 19 18 15 16 14 14 14 16 14 11 7 11 15 17 18 19 20 21 19 19 18 17 18 19 21 21
18 12 7 5 14 16 14 17 10 12 15 19 27 28 26 25 26 27 19 24 25 19 5 12 14 22 22 21 19 18 17 16 15 15 15 14 13 15 21 21 15 12 11 14 15 17 17 16 17 19 21 21 21 23
12 10 7 10 19 21 16 20 14 17 17 25 34 29 27 26 26 20 17 25 24 14 11 4 8 21 23 21 19 18 16 15 16 16 15 15 16 17 12 15 15 16 17 18 18 17 17 18 18 18 19 21 23 26
10 11 11 16 24 23 17 23 19 19 19 30 33 29 26 25 23 19 18 26 20 14 6 4 7 17 23 21 19 16 14 14 12 14 16 12 14 11 13 12 11 12 13 14 16 16 16 16 17 19 21 24 27 29
12 14 16 21 29 27 20 21 18 21 19 33 30 26 25 25 20 23 26 22 19 12 8 6 12 14 23 22 18 14 11 11 5 11 12 17 24 21 20 18 16 16 16 17 18 17 17 17 19 22 25 28 32 35
16 18 19 26 30 31 23 24 20 26 26 32 31 29 28 24 29 19 13 13 10 7 10 9 18 13 21 21 17 12 4 6 5 7 9 5 7 6 6 8 11 13 14 15 16 16 17 19 22 25 28 32 35 34
19 22 22 30 37 40 27 26 21 28 31 33 30 29 33 26 10 7 14 9 9 9 10 17 21 19 21 18 10 9 5 5 5 4 6 4 4 3 5 6 8 11 13 13 15 17 19 23 27 31 33 32 31 29
20 24 26 36 42 41 30 27 22 28 34 33 31 32 22 12 12 10 16 12 9 11 17 24 21 21 19 13 7 5 5 5 3 5 4 5 2 8 10 10 10 12 13 15 18 21 24 27 31 31 30 29 29 28
21 26 33 42 48 39 32 32 38 38 38 36 28 17 12 9 11 8 16 19 10 15 24 22 22 16 17 13 6 4 5 4 4 4 3 3 9 13 13 14 15 15 16 18 22 26 28 29 28 27 28 28 30 31
24 30 41 42 40 37 37 43 44 42 39 29 12 11 11 9 14 15 23 24 11 20 27 23 21 13 15 6 5 5 4 4 4 3 4 10 13 15 16 16 17 18 21 23 26 28 28 29 30 26 26 30 32 28
32 41 44 31 42 48 51 50 47 44 36 24 9 10 12 15 18 18 25 23 15 24 28 24 18 7 8 5 6 6 4 4 4 6 12 14 16 17 18 17 19 21 24 27 28 28 29 30 30 29 30 32 33 31
44 48 54 40 48 54 53 54 48 41 29 16 12 16 15 17 17 22 26 20 22 29 28 18 11 9 6 6 6 6 5 6 10 12 14 16 17 18 18 19 21 24 27 28 29 31 32 32 33 34 36 36 35 33
50 56 58 46 51 58 57 55 51 20 26 25 21 16 15 20 23 24 25 25 27 28 24 15 11 10 6 6 7 6 7 10 12 13 15 17 17 18 20 22 24 27 29 31 32 33 33 34 36 37 38 38 37 37
60 61 61 51 54 60 56 55 36 18 28 28 23 17 22 26 28 27 26 24 22 19 17 13 6 10 8 6 5 5 7 10 12 14 16 17 18 20 22 25 27 29 31 32 33 34 35 35 36 38 39 38 37 37
64 59 56 46 58 56 39 45 29 23 31 31 24 25 35 34 29 27 24 22 20 18 14 12 8 8 7 5 2 3 7 10 13 15 17 18 19 22 25 27 29 30 32 33 35 36 37 37 37 39 38 38 38 38
56 55 51 55 64 39 21 42 26 26 34 35 27 34 35 32 31 27 24 23 21 18 14 11 10 9 6 2 2 7 11 13 14 16 18 19 20 23 26 28 29 32 34 35 37 37 37 37 37 38 38 39 41 43
56 51 55 65 55 36 25 40 25 35 39 37 30 39 35 32 29 29 28 26 21 16 14 13 10 6 3 2 6 11 13 16 17 17 17 19 22 24 26 28 30 31 33 36 37 38 38 40 41 41 41 40 39 38
57 56 65 64 42 22 30 38 26 40 33 32 37 40 39 35 34 32 28 27 21 17 16 13 9 6 3 6 11 14 17 20 21 20 19 21 23 25 26 29 33 36 36 35 36 36 37 38 39 39 37 35 34 34
55 69 63 37 29 15 41 39 33 37 37 38 42 42 40 38 35 34 26 27 22 19 17 14 9 6 6 10 14 18 21 23 22 21 22 23 23 25 29 32 35 35 36 33 34 34 33 34 34 34 32 31 30 29
42 37 25 30 23 24 42 41 36 40 39 39 43 39 38 36 34 32 25 23 22 20 17 15 12 10 11 13 18 21 23 23 22 23 25 26 28 29 30 31 32 33 31 32 32 30 30 31 31 30 28 27 27 25
29 21 23 31 25 31 37 37 38 41 40 40 33 38 37 33 27 21 25 21 18 20 18 17 16 14 14 16 20 22 23 23 22 23 25 28 30 31 31 31 31 31 31 32 31 31 33 33 31 29 27 26 25 25
16 23 30 37 37 34 36 32 29 38 37 27 36 41 35 23 26 28 28 23 23 24 24 19 18 16 16 18 21 23 23 23 23 24 27 29 30 31 32 32 32 31 30 31 30 33 34 32 30 27 25 24 25 24
21 24 31 35 32 35 34 36 35 37 34 33 38 35 29 23 24 21 18 16 18 20 22 21 18 16 17 19 21 22 22 22 24 27 28 29 31 33 32 32 31 30 31 30 32 32 30 28 27 26 25 23 22 22
20 26 35 35 33 36 34 38 35 33 38 35 36 35 33 32 25 22 19 14 20 20 20 17 15 16 18 20 20 21 22 24 26 26 27 28 30 31 31 29 28 29 28 29 30 28 27 26 25 24 25 25 24 23
33 31 34 36 37 34 29 27 26 29 30 31 32 29 27 25 24 20 19 21 21 20 17 15 15 17 18 19 20 21 22 24 25 26 28 29 30 30 27 25 26 26 28 27 25 24 23 23 24 25 25 25 25 24
34 34 35 33 29 28 29 27 27 28 30 31 33 31 29 28 20 19 20 21 19 17 16 15 16 17 18 19 20 21 23 24 25 26 29 30 30 27 24 25 24 26 26 24 22 21 21 23 24 24 24 24 23 22
35 37 35 33 30 28 28 29 32 34 33 29 28 23 20 22 22 22 21 20 20 18 16 16 16 18 19 19 20 22 23 23 24 27 28 28 26 23 23 22 24 25 22 21 20 21 22 22 22 22 22 22 21 21
32 30 31 29 27 28 28 28 30 30 28 24 21 20 23 25 26 26 24 22 18 16 15 16 18 19 18 19 20 21 20 22 24 27 27 25 23 22 20 21 23 21 19 19 20 20 21 21 22 21 21 21 21 20

GFSWCAN_700_spd_072.txt.gz
Wind_Speed
38 39 31 25 20 15 13 6 4 6 10 12 12 3 12 20 27 25 18 12 20 13 24 21 20 21 18 16 15 16 15 15 14 10 5 2 1 5 4 4 3 6 4 5 7 4 5 5 6 8 7 9 10 11
38 32 25 23 18 11 8 4 4 10 8 14 9 7 14 17 26 26 19 16 20 9 23 22 21 20 16 15 14 11 9 11 10 10 6 5 3 3 6 3 9 5 8 3 6 4 5 6 7 9 13 15 16 17
35 28 26 19 15 10 4 5 10 10 12 11 12 3 16 20 24 25 21 18 19 6 20 22 22 19 16 15 13 13 13 4 13 12 6 6 4 4 5 9 9 10 11 12 10 9 12 14 13 14 15 17 20 22
31 26 24 18 12 8 6 10 10 13 12 6 5 6 12 19 27 25 23 18 16 13 14 23 21 16 17 17 15 14 12 13 8 13 11 10 7 6 8 10 8 11 12 13 16 16 16 17 17 17 19 21 23 23
27 24 20 16 7 6 8 12 16 17 14 7 4 4 16 21 27 22 22 19 16 10 9 24 20 17 18 17 17 16 15 14 9 12 11 14 12 11 12 13 15 14 15 16 18 17 18 18 18 19 21 22 22 22
25 22 15 10 5 4 9 16 21 16 11 3 2 11 20 17 21 22 18 21 19 14 2 18 21 21 19 18 15 14 14 13 14 10 13 14 15 12 9 10 11 11 15 18 20 20 20 20 20 20 21 21 22 24
23 18 11 6 1 6 4 16 20 14 8 6 8 22 23 20 22 25 18 20 21 14 2 10 9 22 20 19 17 16 14 12 13 13 14 14 13 14 21 25 20 20 19 17 16 17 19 19 19 20 21 22 23 23
21 15 8 3 10 9 9 17 13 11 10 13 14 22 20 20 20 21 15 16 20 16 6 4 5 16 21 21 19 17 16 14 14 15 15 14 16 18 16 16 11 13 15 16 18 20 20 20 21 21 21 22 23 25
16 12 8 4 16 14 17 17 17 14 13 15 20 22 20 19 20 18 13 18 22 14 6 5 7 9 21 20 19 15 15 13 14 15 16 14 18 12 11 10 11 13 14 15 17 18 19 20 21 22 22 24 27 29
14 10 9 9 19 19 18 16 12 15 14 19 28 22 20 20 17 14 14 20 19 15 10 7 7 10 18 21 18 12 9 11 5 10 12 17 25 22 21 21 20 18 17 17 18 18 20 20 21 23 24 27 31 33
13 13 12 12 24 24 19 17 15 14 19 30 30 24 21 20 15 14 10 13 12 8 12 13 10 9 16 20 15 12 4 5 4 6 7 6 8 7 8 8 10 11 13 14 16 18 19 20 22 24 27 31 35 38
14 17 17 17 26 30 24 20 16 18 22 31 28 19 23 18 9 7 11 10 9 12 8 16 13 14 18 18 12 11 4 4 5 5 5 4 6 4 5 8 9 10 12 14 16 17 19 22 25 28 32 35 36 37
17 20 22 21 28 31 29 25 20 24 23 28 22 24 16 12 12 10 14 12 11 13 12 17 23 20 20 12 7 7 5 5 4 5 4 5 5 5 11 11 11 12 14 15 17 19 22 25 29 33 34 36 38 38
20 24 24 25 29 32 34 30 24 29 30 26 21 18 15 10 11 13 16 19 14 11 13 23 22 17 17 14 5 5 5 4 4 4 4 5 6 12 14 14 15 15 16 18 20 22 26 28 30 32 34 37 38 37
23 28 28 29 32 35 39 31 28 36 39 20 16 12 16 12 8 15 15 21 16 14 23 25 23 12 17 7 7 5 5 4 5 5 5 6 12 15 16 16 17 18 19 21 23 26 29 31 33 32 33 35 36 38
27 32 34 32 37 39 41 34 34 42 39 22 15 11 19 17 14 19 19 24 16 21 29 24 15 8 9 6 7 7 5 5 4 6 8 13 15 17 17 18 19 20 21 24 27 29 31 33 34 35 35 36 38 40
34 38 30 33 41 43 40 42 45 50 32 18 25 15 16 21 18 21 20 27 21 31 32 13 12 10 7 7 8 6 6 8 8 11 13 16 17 17 18 19 20 22 24 26 28 30 33 35 37 38 39 38 38 39
40 32 31 40 44 46 44 49 51 28 30 29 32 18 19 20 19 21 24 27 26 33 29 14 15 11 6 5 5 5 5 7 10 12 14 16 16 17 18 20 22 24 26 28 31 33 36 37 37 37 38 39 39 39
39 36 43 44 55 51 56 60 54 19 30 37 34 23 18 18 21 23 27 27 32 32 25 16 8 9 10 8 6 6 6 7 9 12 14 16 17 18 19 21 24 26 29 31 33 35 36 36 37 38 40 41 43 41
41 43 49 42 47 56 50 31 55 23 25 41 38 28 19 21 26 28 29 32 34 27 22 18 15 8 7 8 6 4 4 7 10 12 15 17 18 19 20 23 26 28 30 32 34 36 37 36 37 38 39 40 41 40
45 46 54 52 48 57 42 25 47 29 27 38 38 31 22 27 30 32 33 33 29 25 21 17 13 10 9 7 5 2 4 7 11 14 16 17 18 20 22 24 27 29 32 35 36 36 37 36 37 37 36 38 38 37
50 54 57 59 49 60 41 25 44 28 31 40 39 33 28 34 37 36 33 32 29 23 18 14 12 11 10 7 5 3 7 11 15 18 19 19 19 22 24 26 28 30 33 36 37 36 35 36 35 35 35 37 37 35
60 54 57 57 40 42 30 33 39 33 30 41 38 29 33 38 39 37 33 30 26 22 19 16 15 12 10 9 6 7 11 15 18 20 20 19 20 23 25 29 31 33 34 35 35 34 34 33 34 36 36 36 35 33
57 57 50 35 31 29 35 40 36 35 37 43 42 32 34 40 39 36 33 29 26 24 22 19 17 14 12 10 9 12 15 18 20 21 20 20 22 24 28 30 33 35 35 34 34 32 33 32 34 36 35 34 33 31
52 32 22 23 32 35 35 42 36 40 40 41 41 35 35 39 41 38 34 29 28 26 23 20 18 16 13 12 13 15 17 19 21 22 22 22 23 27 29 31 33 34 34 33 31 31 30 31 33 32 32 31 31 28
29 14 17 27 40 34 33 40 36 43 41 37 35 35 38 36 33 28 36 27 26 25 22 18 17 16 16 16 17 18 18 21 23 23 23 24 26 27 29 31 32 33 33 32 30 29 30 30 29 29 30 29 28 27
22 13 25 35 39 44 36 39 33 36 35 29 35 35 32 19 22 23 27 29 24 23 22 21 21 21 21 20 20 18 20 23 23 23 23 25 26 28 31 33 34 33 31 30 29 30 30 28 28 28 27 28 28 26
14 24 36 33 36 38 35 37 32 36 34 29 34 32 24 25 21 26 26 22 22 18 18 20 28 29 25 22 20 19 22 23 22 22 24 25 27 30 32 34 34 31 30 28 28 29 28 28 27 26 27 26 26 25
25 28 36 34 32 36 33 39 28 30 28 32 33 32 29 29 25 27 23 22 21 18 19 23 26 25 23 21 19 21 22 21 20 22 23 25 28 31 33 34 32 29 27 28 29 27 27 26 25 26 26 25 24 23
32 35 39 39 35 32 31 31 28 23 24 31 32 32 30 30 27 24 23 23 24 23 23 24 23 22 20 18 19 21 20 19 20 22 23 25 28 31 32 32 29 26 25 27 25 24 24 25 26 25 24 24 23 23
33 30 36 38 36 31 28 26 26 26 28 29 29 28 29 29 30 29 29 28 27 23 22 23 22 19 17 18 20 19 17 19 20 22 24 26 29 31 31 27 25 23 25 24 23 22 23 23 22 22 22 22 22 22
33 33 35 34 31 30 30 33 32 35 36 32 33 37 30 29 29 30 30 31 27 24 24 21 18 17 17 18 18 17 17 19 20 22 24 27 28 30 28 24 21 23 24 22 21 21 21 21 22 22 21 21 20 20
37 32 31 33 34 35 35 36 37 35 32 29 27 29 33 30 31 25 24 25 24 23 22 20 18 16 17 17 16 16 17 18 20 22 24 26 28 28 24 20 22 22 20 19 20 20 20 21 21 21 20 20 19 19

GFSWCAN_700_spd_075.txt.gz
Wind_Speed
36 37 31 27 20 17 7 2 5 10 14 15 16 6 4 13 12 12 10 9 16 13 19 17 15 16 17 12 13 13 12 12 9 6 3 2 2 1 1 1 1 2 2 2 4 4 4 2 4 4 5 6 8 10
36 35 30 25 19 14 5 1 10 14 17 17 13 8 10 17 16 13 10 14 11 17 18 17 14 13 12 11 9 9 4 8 6 6 2 1 1 2 2 2 3 2 4 1 5 3 3 5 6 8 9 11 12 14
35 31 28 25 18 8 0 5 11 15 14 17 12 10 12 14 14 12 9 12 12 5 16 15 14 14 12 11 9 7 7 3 5 4 1 1 2 3 3 4 6 5 8 8 7 6 7 8 9 11 13 14 16 19
33 29 26 22 16 3 5 11 10 14 13 15 12 11 11 11 17 15 11 12 11 11 10 16 16 15 14 12 12 10 7 8 6 3 7 7 4 4 6 7 8 8 9 10 12 12 14 13 14 16 17 18 20 22
30 26 24 20 10 1 8 15 15 17 13 14 13 10 8 15 18 17 14 13 12 4 10 17 15 12 12 13 13 12 11 9 8 8 8 8 10 11 13 16 16 13 13 14 17 15 16 16 17 19 20 20 22 22
26 23 22 18 7 3 9 16 16 16 15 14 13 12 14 17 16 14 15 14 14 5 6 16 15 14 14 14 13 13 12 11 11 10 8 12 11 12 10 12 8 6 7 9 14 15 17 18 18 19 20 21 22 23
23 19 16 16 3 2 11 20 20 14 12 12 11 16 17 17 18 16 10 13 13 10 1 10 8 20 17 14 15 13 12 12 11 12 13 12 13 15 22 25 17 16 16 16 18 18 18 19 19 20 21 22 23 25
21 14 12 12 3 3 10 21 16 11 10 13 15 20 18 17 15 16 9 8 14 13 4 3 5 11 19 17 17 15 13 12 12 13 13 14 15 16 12 8 7 7 9 11 13 14 16 17 19 20 21 22 24 26
20 12 7 8 4 10 14 19 14 13 14 18 21 20 18 14 12 12 10 9 14 15 5 6 7 4 16 18 17 14 13 12 13 15 14 13 16 11 9 11 12 13 14 15 16 15 16 18 20 21 22 24 26 28
19 13 7 7 8 15 12 13 13 15 18 19 20 20 14 12 11 11 11 9 14 19 18 12 8 10 10 20 17 13 8 11 6 8 9 14 20 15 17 18 17 15 14 14 14 14 16 18 20 21 23 25 29 33
18 14 10 9 9 18 16 16 15 20 21 23 21 16 13 15 13 10 8 10 12 7 14 19 15 10 11 19 17 12 4 6 5 5 6 6 6 5 5 4 5 8 10 12 14 16 17 19 21 22 25 29 33 37
18 16 13 12 13 22 19 19 15 19 23 25 20 12 15 17 8 9 8 9 8 11 10 13 16 14 14 19 14 12 7 6 5 5 5 4 5 4 3 5 8 9 11 13 15 16 18 20 23 25 29 33 36 38
20 17 16 16 17 21 23 19 17 23 27 22 18 16 12 12 13 10 14 12 13 10 11 11 18 17 17 15 8 9 7 6 5 6 5 6 5 5 6 10 11 12 13 14 16 18 19 22 26 29 32 35 37 39
22 19 19 19 22 19 26 23 20 25 27 21 14 17 13 10 12 20 15 17 16 6 7 12 18 18 18 15 6 6 8 6 5 6 4 6 5 6 11 13 14 14 15 16 17 19 22 25 27 31 35 37 38 39
24 23 22 23 24 22 27 27 25 22 32 16 15 13 20 15 11 12 17 15 18 16 10 16 25 12 19 8 8 7 7 5 6 4 4 5 6 11 14 15 15 16 17 18 20 22 26 29 32 33 34 35 37 38
27 29 26 24 27 26 28 33 29 30 30 19 16 15 17 22 18 13 19 16 19 17 14 25 21 8 10 7 9 9 6 6 4 4 6 8 11 13 15 16 16 17 17 20 22 26 29 32 35 36 36 36 37 37
31 35 25 26 30 31 33 38 34 36 26 34 22 23 15 19 23 18 19 19 21 19 25 18 13 10 7 9 10 9 8 7 6 6 9 11 13 14 15 16 16 17 20 23 25 28 32 35 37 38 38 37 36 37
37 36 26 29 35 38 38 41 40 36 44 48 36 27 20 19 26 24 20 21 24 23 29 21 14 13 7 8 9 6 5 5 7 8 9 11 13 14 15 15 17 19 22 26 28 31 35 37 37 37 36 36 36 36
39 38 29 33 38 42 43 48 49 39 46 47 49 30 27 21 23 26 23 25 27 28 36 27 10 14 16 10 7 6 5 5 5 7 9 11 12 14 15 17 19 22 24 27 31 34 36 37 37 36 36 36 34 35
40 38 33 36 44 44 44 41 51 51 35 40 41 44 34 25 21 24 24 27 29 35 37 26 22 9 8 8 8 6 6 4 4 5 7 10 12 14 16 18 21 23 26 29 33 35 35 34 35 34 33 33 35 36
37 36 33 41 45 44 46 42 41 46 49 32 31 39 45 35 24 23 26 29 36 42 38 32 24 20 13 10 9 7 6 5 4 6 9 12 15 16 18 20 22 24 27 30 31 33 34 35 34 32 32 34 34 34
45 45 46 47 51 54 46 39 44 41 50 45 28 36 45 37 29 26 30 37 40 40 38 31 21 16 13 12 11 9 7 5 6 9 12 16 18 19 19 21 23 26 29 31 33 34 35 34 31 30 32 33 32 33
46 50 49 54 50 44 28 40 37 37 36 44 38 35 43 37 31 29 38 41 41 37 33 25 20 19 17 14 13 11 8 8 9 12 16 19 21 20 20 22 24 27 30 32 34 34 34 31 29 31 31 31 31 31
50 56 56 46 37 29 29 34 40 41 37 37 37 35 35 38 30 35 42 41 38 35 32 26 22 20 18 17 14 11 10 11 12 16 19 21 22 21 22 24 26 29 31 32 32 32 30 28 29 30 30 30 31 31
56 44 43 37 31 28 29 40 39 43 32 39 36 36 31 34 33 41 45 43 38 34 29 27 24 22 19 18 14 13 13 13 15 18 20 22 22 22 24 26 28 31 32 32 31 28 26 27 28 28 29 29 29 29
35 22 34 36 28 32 33 40 44 45 35 41 39 37 30 30 33 30 45 40 33 30 27 25 23 21 20 18 17 16 16 16 17 19 21 22 22 23 24 26 29 31 31 30 27 24 25 26 25 26 27 28 28 28
33 12 35 31 33 33 33 36 32 40 33 32 39 40 28 20 23 30 31 39 34 28 26 22 19 18 19 21 21 19 19 19 19 20 23 23 22 23 24 26 29 31 30 27 24 24 25 24 24 25 27 28 28 28
28 11 27 41 29 38 37 38 34 35 36 29 37 35 25 25 26 20 27 30 34 30 28 27 26 23 22 24 24 23 21 20 20 22 24 22 22 22 24 27 29 30 27 24 22 24 23 23 23 25 26 26 26 26
29 28 26 37 36 39 36 36 32 37 41 39 39 39 30 33 24 22 22 32 32 31 27 27 22 20 24 26 26 25 22 19 21 23 22 21 21 22 24 27 29 28 25 22 23 23 23 23 24 24 24 25 25 25
32 36 29 38 42 33 39 36 36 37 40 37 34 35 30 27 24 22 23 26 29 32 26 19 18 21 22 24 24 22 20 19 22 21 20 20 20 21 24 27 27 25 22 22 23 22 22 24 25 26 26 25 24 23
43 41 38 38 39 34 38 35 32 30 33 31 30 36 32 28 29 30 30 30 28 24 20 19 23 22 24 23 22 19 18 19 20 19 18 18 18 21 25 27 26 22 21 22 21 20 21 22 23 23 23 22 22 21
44 38 39 40 38 34 35 36 35 35 33 33 37 37 35 32 34 33 29 27 24 25 25 27 21 20 22 21 18 16 18 19 18 16 16 16 18 21 24 25 23 20 20 20 19 20 21 22 22 22 21 20 20 19
44 36 39 41 39 39 39 36 36 35 34 33 31 28 30 27 32 32 30 31 28 22 20 22 23 25 24 19 16 16 17 16 15 14 14 15 18 21 24 23 20 19 19 18 18 20 21 21 21 20 19 19 19 18

GFSWCAN_700_spd_081.txt.gz
Wind_Speed
24 24 22 8 9 11 9 8 7 8 14 16 19 19 18 18 20 22 19 16 16 18 21 17 16 14 14 10 7 7 6 3 5 2 2 1 1 2 1 3 2 2 2 2 2 3 3 5 3 2 4 5 7 7
21 21 22 14 11 16 11 10 8 8 11 14 17 17 14 16 18 15 13 16 18 15 19 16 16 14 11 10 4 7 2 4 3 2 1 1 1 1 2 2 4 2 6 3 5 4 4 4 6 8 9 10 10 12
17 18 19 14 8 18 12 10 11 10 11 10 12 11 10 12 14 16 14 18 13 15 16 16 16 14 12 10 7 7 3 5 4 3 3 2 3 4 3 6 9 7 9 8 6 6 7 9 10 11 12 14 14 16
15 17 17 16 6 18 16 14 12 11 11 11 10 9 9 9 10 14 15 10 12 12 9 15 16 15 13 11 9 9 7 5 3 3 5 7 8 7 8 10 11 11 9 8 9 10 11 12 12 13 14 16 18 18
14 15 15 14 5 15 20 17 13 11 9 11 11 8 6 8 8 9 12 11 11 6 5 12 14 17 16 14 13 11 10 9 8 8 9 11 10 12 14 17 17 11 14 13 9 12 13 15 15 16 18 19 20 21
14 12 13 13 7 11 19 19 16 13 12 12 13 11 9 9 9 8 8 9 8 1 8 10 10 13 17 16 15 14 13 13 13 13 13 13 11 11 9 10 6 7 10 11 12 12 15 17 17 19 20 20 21 23
14 13 10 12 7 11 16 21 20 16 14 13 15 14 13 14 12 10 5 7 8 5 4 7 6 15 14 14 18 18 16 16 15 16 18 17 15 15 20 23 15 15 15 15 15 16 17 17 18 18 20 21 22 24
16 13 12 10 10 8 13 17 19 17 15 13 15 16 17 18 15 13 8 7 9 9 7 5 6 8 11 16 14 16 16 16 17 17 18 16 16 17 13 6 7 9 9 10 11 14 16 18 18 20 21 22 23 25
19 14 11 14 11 8 12 17 22 21 17 13 17 17 17 20 18 15 11 8 10 13 6 8 9 5 8 13 17 14 15 15 16 20 19 15 20 14 7 10 11 13 14 15 16 16 16 17 18 20 21 22 24 27
20 17 12 12 15 11 6 13 20 22 19 17 17 16 17 17 15 16 13 13 12 17 21 18 13 11 6 5 15 11 9 10 9 11 11 20 28 18 20 19 19 18 17 15 14 15 16 17 19 21 22 24 26 30
21 18 15 13 13 14 8 9 17 25 23 17 15 17 17 16 16 13 9 8 8 7 12 17 23 17 11 9 12 11 6 6 6 7 8 8 13 11 11 12 13 13 13 12 14 16 17 18 20 21 23 26 29 33
22 20 18 16 14 12 13 10 14 18 20 16 13 16 15 13 8 9 8 9 9 7 10 11 15 22 17 9 11 10 9 6 7 8 7 8 14 12 9 9 10 11 11 12 14 16 17 18 20 22 24 28 31 35
24 23 20 18 16 15 15 14 15 18 20 15 13 14 9 13 16 11 10 9 7 8 4 8 12 18 20 16 10 7 7 9 6 8 7 13 11 10 8 10 11 11 13 13 14 15 17 19 21 23 26 29 33 36
28 27 23 21 19 19 18 19 18 17 18 17 15 14 12 11 11 19 19 11 14 9 7 7 12 13 17 14 10 6 9 8 7 8 10 9 12 9 10 11 12 13 13 13 14 15 17 19 22 25 28 32 36 38
32 31 26 25 22 21 21 21 21 21 21 20 12 11 18 21 14 11 14 18 15 11 12 5 12 15 13 9 9 9 7 8 9 10 11 10 9 9 11 12 13 13 12 12 14 15 17 20 23 27 30 34 37 38
36 37 34 27 23 23 24 25 25 26 28 26 20 17 14 16 21 19 15 11 15 13 13 14 11 8 12 9 10 11 7 8 8 8 10 8 10 10 12 13 12 12 12 13 14 16 19 22 24 28 32 34 36 37
43 40 31 28 26 27 26 28 29 30 19 23 27 34 31 20 14 16 18 18 16 17 17 12 9 11 7 10 13 15 28 18 9 9 11 12 12 13 12 12 11 11 11 13 15 18 21 24 27 30 32 35 34 31
46 36 32 31 31 30 31 34 33 28 37 42 38 32 32 35 34 25 16 14 20 21 22 28 19 19 12 11 15 17 21 24 19 17 15 15 15 13 11 11 10 11 12 14 16 19 22 25 28 31 33 33 30 26
43 37 33 36 32 31 34 39 44 31 36 42 45 41 38 37 33 32 36 35 27 23 24 29 22 25 31 32 25 15 13 14 13 14 17 17 14 11 10 10 11 12 12 15 17 20 23 26 29 32 33 31 26 27
42 38 35 36 31 33 37 34 41 49 30 38 43 44 40 38 38 38 38 37 36 32 32 40 44 35 23 14 16 24 29 23 20 19 19 16 13 10 10 11 12 12 13 16 19 21 24 27 30 32 31 28 26 27
44 42 40 38 33 37 39 26 28 31 41 46 44 40 35 35 37 39 39 42 49 53 50 47 42 34 30 34 25 19 21 22 20 19 17 14 11 9 10 12 12 13 14 17 20 22 25 28 31 31 28 26 27 27
48 44 43 38 38 43 41 38 34 37 34 32 32 34 37 40 43 40 40 43 50 55 53 51 41 30 28 31 29 28 24 22 22 20 17 14 11 12 11 12 13 14 16 19 21 23 25 28 30 28 25 26 26 26
46 47 46 43 38 35 35 48 48 47 40 32 33 37 42 45 45 40 47 51 48 40 41 46 45 39 28 28 29 27 28 26 24 21 17 15 14 12 12 13 14 16 18 20 22 24 26 29 29 26 25 25 25 26
47 46 45 33 33 32 38 38 42 45 44 42 38 33 36 37 40 43 53 52 44 41 39 38 36 42 37 32 34 27 29 29 25 23 18 18 15 14 13 14 16 18 19 21 22 24 27 28 27 24 24 24 25 26
45 38 29 31 37 40 44 42 43 44 47 45 41 40 35 32 37 45 51 47 36 37 36 33 36 38 39 31 34 32 31 30 26 21 22 20 18 15 15 17 19 20 21 21 23 25 27 27 25 24 23 23 24 25
33 26 30 29 43 42 45 44 46 44 37 37 40 43 42 44 48 41 41 47 43 34 28 29 33 39 34 30 34 34 32 30 26 26 24 22 19 17 17 19 21 21 21 21 23 26 27 26 24 23 22 23 24 24
26 29 42 46 37 41 44 37 38 35 39 37 33 35 39 36 35 46 43 40 38 29 28 23 28 36 27 28 36 33 31 30 30 23 25 24 22 19 19 22 21 20 21 22 24 26 26 24 24 22 22 22 23 22
44 47 46 45 48 48 37 36 41 41 42 39 36 40 39 39 48 50 42 32 27 22 19 25 28 34 35 31 37 32 32 37 30 29 27 24 22 19 20 24 21 20 21 22 24 25 24 23 22 21 22 23 22 21
42 43 46 39 31 32 40 45 49 48 44 41 42 44 46 45 44 43 40 33 26 25 27 26 28 32 34 36 38 38 39 34 30 29 26 23 20 20 21 22 20 20 20 22 24 24 23 22 21 20 22 22 20 19
41 38 38 42 44 49 45 38 37 37 41 44 44 44 42 41 42 41 37 34 32 30 28 29 30 26 36 36 38 41 37 35 33 31 27 22 20 19 21 21 19 19 20 22 24 23 22 20 20 21 22 20 19 19
41 41 36 32 40 44 41 34 34 33 36 41 43 42 42 41 41 40 37 32 34 34 28 30 30 29 37 37 37 35 30 30 28 25 24 18 15 21 20 20 19 19 20 22 23 22 20 19 19 21 20 19 18 18
50 44 39 41 44 40 33 34 38 39 39 39 40 39 39 40 39 38 40 37 39 36 29 29 29 25 36 38 35 33 32 26 20 21 21 13 19 20 19 18 18 18 20 21 21 19 18 18 19 20 20 19 18 18
44 44 41 39 39 36 32 30 35 38 38 39 41 40 37 38 41 38 36 37 37 34 28 26 32 28 31 36 36 35 31 29 30 20 13 16 20 19 18 17 16 18 20 20 19 17 16 17 18 19 18 17 17 17

GFSWCAN_700_spd_087.txt.gz
Wind_Speed
17 20 16 16 16 16 15 9 8 11 6 2 5 7 10 14 15 15 12 13 11 10 14 14 11 8 6 5 5 5 3 1 1 1 1 1 3 3 5 6 6 4 3 2 3 4 4 2 3 4 5 7 8 9
17 16 16 15 15 15 17 10 6 7 7 3 5 7 9 13 16 14 13 12 12 10 14 14 14 12 10 8 5 6 4 3 2 3 3 3 5 5 7 5 6 5 5 4 5 4 6 7 7 10 12 11 11 12
18 14 17 12 14 14 17 14 10 2 4 3 4 6 9 10 13 14 14 13 13 14 10 15 16 14 13 11 8 8 7 6 7 7 7 7 7 10 8 9 13 11 12 13 11 7 11 14 12 13 13 14 15 15
19 14 15 12 12 13 15 17 15 7 1 5 5 7 6 8 9 11 14 15 14 13 12 13 17 16 15 15 13 12 11 9 9 10 11 12 12 12 15 16 20 17 16 14 14 13 15 15 14 14 15 15 16 17
20 16 12 13 11 12 12 18 18 14 5 5 7 7 10 9 8 11 13 13 13 14 9 14 18 19 18 17 16 16 15 15 14 15 16 17 18 19 22 26 24 17 19 21 21 14 15 13 13 14 14 16 18 19
21 19 12 13 11 10 10 16 20 18 14 9 9 11 11 12 11 11 12 12 13 14 16 13 13 19 20 22 21 20 20 19 20 21 21 22 20 19 16 21 14 11 11 10 11 12 14 14 15 17 18 18 20 20
23 23 16 12 15 10 10 11 16 18 20 15 14 13 16 14 15 14 12 11 13 15 15 9 11 17 19 21 21 23 23 23 23 24 26 25 24 24 35 36 24 22 22 21 19 17 17 16 18 18 19 20 20 21
23 24 20 13 15 13 11 9 13 17 19 17 17 16 15 19 18 17 17 14 14 14 14 9 11 12 12 15 20 19 20 21 25 26 30 29 28 27 26 15 11 12 15 17 17 16 16 15 16 18 19 19 20 21
25 24 22 17 15 16 12 13 12 15 18 19 18 17 14 17 18 17 19 18 16 14 9 11 11 9 6 8 12 17 20 22 22 24 25 23 28 26 9 9 10 11 11 10 12 14 16 17 18 17 19 20 21 22
27 25 23 21 16 17 16 13 15 14 18 17 16 13 13 14 13 14 17 18 21 23 29 30 24 19 16 13 10 9 10 8 11 14 16 19 33 24 21 28 24 16 14 14 16 17 18 17 16 17 19 21 23 23
28 27 25 23 19 16 18 15 14 13 12 15 14 13 14 12 11 11 10 9 8 9 13 15 12 18 20 18 14 8 7 7 6 7 9 8 22 14 13 13 16 21 22 23 21 20 17 15 18 19 20 22 23 25
29 29 27 26 21 17 19 16 14 13 10 13 14 13 12 10 10 10 10 10 12 10 11 9 9 10 12 14 9 7 8 6 6 6 6 8 12 15 13 10 9 9 11 13 15 14 15 17 19 20 21 23 24 27
32 32 29 27 25 18 19 18 15 16 14 13 12 10 8 11 15 11 15 14 12 11 9 7 7 7 8 11 8 5 5 7 8 6 7 13 13 15 13 10 8 8 10 12 12 14 17 19 20 20 22 24 26 28
34 34 31 29 26 21 19 20 19 19 17 15 12 10 9 10 10 16 17 12 15 12 10 9 9 6 8 6 8 6 8 6 6 7 8 13 14 14 12 9 8 10 12 13 15 17 18 18 20 22 23 25 27 29
37 37 35 34 30 28 25 22 22 22 22 21 11 10 16 16 14 9 11 15 15 15 14 12 12 11 9 8 7 8 6 7 9 5 9 15 17 12 7 7 11 12 14 16 18 18 19 18 20 22 24 26 28 30
38 38 43 39 36 34 32 29 27 27 29 29 19 15 12 14 16 17 16 13 12 12 11 13 11 7 12 8 10 10 7 10 6 9 14 16 17 13 11 13 14 15 17 18 18 17 19 20 22 23 25 27 29 31
40 45 45 43 41 38 36 36 33 34 26 24 32 34 32 21 13 15 17 20 19 17 14 11 9 11 8 10 14 18 28 23 23 24 20 18 19 20 19 18 16 18 19 19 18 17 19 22 23 24 26 28 30 33
46 47 46 44 44 42 42 40 36 35 38 45 33 31 30 29 25 26 21 19 21 20 20 23 20 22 15 24 30 27 19 20 23 21 21 25 24 23 19 20 20 20 19 19 17 17 20 25 26 25 26 28 31 33
47 44 49 48 48 48 47 44 45 41 42 43 35 32 32 33 26 22 25 25 25 24 24 25 19 26 32 33 31 28 30 30 29 28 25 23 26 26 21 21 21 20 19 18 18 19 23 24 26 26 27 29 31 33
47 43 47 47 50 52 50 45 46 52 35 38 38 34 31 33 32 31 31 33 34 37 40 44 43 39 40 35 37 35 32 35 37 36 32 30 27 26 29 24 22 21 21 18 18 21 21 26 28 27 28 30 32 33
39 41 41 44 52 55 54 46 40 47 51 54 42 33 33 35 35 35 35 34 43 53 49 39 35 32 32 31 33 37 38 39 38 38 34 30 31 31 28 27 25 22 21 19 19 19 22 26 28 27 30 31 32 32
42 43 46 47 54 55 56 51 46 46 38 36 32 33 37 35 34 34 35 44 53 52 43 37 29 28 30 32 32 34 35 38 39 40 44 39 34 30 28 27 26 23 20 19 18 19 23 25 26 28 31 31 31 31
47 49 52 53 43 54 44 54 52 48 35 33 36 32 33 30 29 29 42 51 49 42 36 32 28 33 34 30 33 34 37 41 41 38 36 38 33 32 29 29 29 26 21 18 17 21 23 26 25 28 30 30 31 30
47 53 57 44 35 27 44 48 50 50 47 41 34 30 31 28 30 36 50 49 38 30 30 28 29 30 35 36 34 30 33 35 38 38 34 37 35 32 28 28 28 25 22 17 18 21 29 29 23 29 30 30 30 29
57 41 32 34 43 48 49 46 51 52 48 46 46 42 29 30 32 43 53 46 28 27 23 25 27 31 34 33 33 33 30 34 36 37 35 37 37 34 30 29 29 27 21 18 19 25 33 23 23 29 29 29 29 27
35 29 35 35 50 55 56 44 50 48 41 42 39 41 38 35 37 42 38 25 25 18 15 17 21 24 26 25 27 27 26 30 35 36 33 35 36 33 28 26 28 24 19 19 22 30 30 20 23 28 28 28 28 26
27 26 47 56 47 51 55 48 47 38 42 45 39 37 35 27 32 45 46 17 15 14 16 19 22 24 20 17 18 22 24 27 29 29 31 34 35 31 28 27 26 21 21 21 27 32 24 18 25 27 27 27 26 25
35 44 51 57 58 57 50 51 52 49 46 35 35 37 26 29 34 33 26 27 26 23 21 20 18 18 18 16 16 16 21 25 23 24 32 35 39 32 32 31 30 23 23 28 30 29 21 18 26 26 26 25 25 22
48 56 52 46 50 54 55 56 57 54 50 40 38 37 41 39 34 31 32 30 25 23 23 23 22 22 22 24 20 18 20 22 30 30 31 33 35 33 31 30 24 23 28 33 26 22 17 20 25 25 23 24 23 20
59 56 53 54 53 54 55 54 48 44 44 44 43 42 41 38 35 33 28 25 23 20 22 23 24 24 24 23 23 26 24 25 30 30 27 27 27 23 27 26 22 26 28 28 26 20 16 22 24 23 22 22 20 19
57 56 56 56 56 57 55 50 45 41 39 36 34 36 38 37 34 30 27 26 27 25 23 21 24 24 22 21 20 21 24 25 27 29 26 26 25 27 26 24 24 25 30 29 24 15 18 22 22 21 21 19 18 19
56 56 54 53 51 47 41 38 37 36 34 33 36 37 34 29 27 22 21 22 23 25 23 22 21 20 21 24 22 22 25 24 24 24 23 23 31 33 27 24 26 29 28 27 19 14 19 21 20 20 18 16 17 17
40 41 43 43 40 39 37 33 35 36 37 37 36 30 27 28 31 24 20 17 17 19 20 21 21 20 20 20 25 27 23 22 20 24 30 31 30 30 27 27 28 27 25 23 14 14 19 19 18 17 14 15 16 14

GFSWCAN_700_spd_090.txt.gz
Wind_Speed
16 15 16 17 16 16 12 7 6 8 10 11 7 6 6 10 13 12 12 12 11 7 9 10 10 8 5 4 4 3 4 5 5 4 4 4 4 4 6 7 8 5 4 4 4 5 5 5 5 6 5 7 8 8
15 13 14 15 15 16 12 11 5 6 5 9 8 6 7 6 11 12 11 11 12 11 9 14 14 13 12 9 8 7 7 7 4 5 5 5 8 8 9 6 7 6 7 4 6 5 7 8 9 10 12 12 12 12
15 16 15 13 14 15 13 11 11 7 6 5 7 5 7 8 10 12 14 13 13 13 12 13 17 16 16 16 15 13 11 10 10 10 10 9 8 12 11 11 14 14 14 15 13 7 10 12 13 13 14 13 14 15
17 15 14 14 13 14 14 11 14 13 10 8 7 5 5 7 10 12 15 18 17 15 15 15 14 18 18 18 18 16 14 14 14 13 14 15 16 16 18 21 27 25 24 19 19 15 16 14 13 15 15 15 15 16
19 18 14 14 14 15 14 12 13 16 16 12 11 11 9 8 8 11 12 13 16 16 17 16 16 21 22 21 19 17 17 17 18 19 20 21 23 25 29 30 25 11 13 19 23 17 17 15 14 14 14 15 16 18
21 21 17 13 15 14 14 13 13 18 20 19 16 15 14 11 11 13 13 13 13 16 20 21 17 20 19 21 22 23 23 22 22 22 24 26 24 23 19 28 26 16 15 13 12 11 12 14 14 14 16 17 18 19
25 23 20 15 15 16 15 13 13 14 22 23 22 20 16 13 14 13 14 13 12 12 15 13 13 10 11 17 20 23 24 24 25 27 30 28 28 27 38 40 25 20 21 22 22 21 18 16 17 16 17 18 19 19
27 25 23 19 15 17 17 16 14 12 16 23 25 25 22 17 16 17 14 16 18 18 16 9 12 12 11 11 13 15 19 21 24 25 30 28 28 29 31 23 17 14 13 13 18 18 17 15 15 16 18 19 19 19
26 26 25 22 18 16 17 18 16 16 12 17 22 26 26 21 18 17 16 18 19 19 12 14 15 12 8 8 10 12 15 18 19 22 23 18 26 24 18 22 22 18 12 12 10 9 11 12 15 17 18 17 19 20
28 27 26 25 21 17 18 20 18 17 18 14 17 23 24 21 18 15 16 17 23 26 31 32 27 23 20 19 15 11 10 8 9 12 12 14 27 13 13 15 21 27 22 12 12 12 13 15 16 16 16 18 19 20
31 28 28 26 25 20 19 21 20 19 19 15 15 19 20 16 12 14 12 11 11 12 15 20 17 18 15 19 18 9 7 7 6 6 7 8 12 11 16 19 18 18 22 26 21 18 19 18 16 16 17 18 20 21
35 32 31 29 28 24 21 21 20 19 19 16 16 17 17 13 10 11 10 12 14 12 14 13 10 9 8 8 7 6 7 6 7 8 7 6 9 15 16 16 14 10 8 9 13 15 15 15 15 18 19 19 21 22
39 36 33 32 31 28 23 22 21 21 20 19 19 15 8 11 16 11 14 13 11 13 11 11 9 8 7 7 6 7 6 8 8 8 7 6 14 18 18 16 11 7 4 5 7 10 12 15 16 18 19 20 22 24
38 36 35 32 33 30 28 25 25 24 23 23 17 16 13 11 12 22 21 14 17 12 9 9 8 6 8 7 8 6 8 7 7 9 8 9 9 14 16 13 8 7 7 8 9 11 13 15 16 18 19 21 24 28
42 38 36 35 37 35 33 30 30 28 29 25 14 14 20 20 21 14 13 15 16 15 14 11 10 10 9 8 7 8 6 8 9 8 10 10 12 16 16 11 8 11 14 13 13 15 16 16 17 18 20 22 25 28
46 40 40 36 40 40 37 34 34 33 35 35 23 16 17 18 18 20 18 15 14 16 15 14 11 7 11 8 8 11 7 11 14 14 16 14 20 20 18 18 17 17 17 17 17 17 17 17 17 18 20 24 26 29
48 49 44 40 41 42 40 41 40 40 28 34 41 37 29 18 15 19 20 20 19 20 18 13 9 9 8 10 14 19 19 15 19 18 20 20 19 18 19 22 22 22 20 19 19 19 19 18 18 19 21 25 29 30
50 52 48 43 43 44 45 46 41 35 46 50 41 31 35 34 29 24 21 23 24 25 25 24 21 22 15 21 26 21 19 19 16 20 27 28 28 30 28 22 20 20 20 20 20 21 21 19 19 19 20 26 28 30
43 49 45 47 47 53 53 53 51 48 50 53 47 39 34 30 28 30 32 30 28 28 31 32 22 32 30 24 18 20 20 20 23 29 29 28 25 24 26 28 25 22 21 22 23 24 22 20 20 18 24 25 27 29
35 43 41 45 50 55 58 51 56 56 43 49 47 42 38 36 33 32 31 32 33 38 41 48 48 36 29 27 31 30 31 34 35 35 32 34 39 39 38 33 30 28 26 27 26 25 24 22 19 18 24 23 26 28
36 40 34 38 47 51 53 48 51 56 61 56 44 34 36 36 35 33 34 36 43 52 52 49 40 28 30 31 32 33 35 35 37 37 37 39 41 41 38 36 35 32 28 28 27 25 24 22 20 19 22 28 31 24
36 36 44 44 49 56 58 51 52 57 53 51 44 46 46 45 43 39 37 42 51 54 46 38 34 32 34 29 30 34 34 37 39 42 42 43 43 40 39 37 40 38 32 27 26 25 24 22 20 19 26 31 28 24
39 42 49 53 49 40 36 56 54 56 51 48 46 39 40 40 41 36 41 49 50 43 33 34 31 32 37 33 36 36 36 36 40 42 43 46 44 41 40 39 35 36 33 30 28 26 24 22 20 21 28 32 24 24
40 44 54 36 38 25 33 41 52 55 55 53 49 37 38 40 42 42 50 53 50 40 28 32 32 30 33 34 34 33 33 38 40 43 44 46 46 42 39 39 37 36 33 30 30 28 24 21 21 22 28 30 22 25
44 41 34 29 33 41 41 42 51 53 54 57 56 46 30 30 34 46 57 52 51 35 30 31 31 33 34 32 29 30 31 36 39 42 42 45 45 43 41 40 38 35 33 31 29 25 22 22 22 25 29 29 20 25
37 26 31 26 48 51 57 54 53 50 47 47 43 40 36 38 38 36 46 40 13 16 27 37 29 25 26 30 32 32 33 36 38 39 36 38 40 40 40 39 36 34 31 28 25 25 23 23 23 26 30 25 19 25
26 18 37 48 46 50 52 47 47 44 49 44 38 41 32 26 30 39 37 27 14 14 18 19 24 28 30 30 32 34 37 37 37 32 31 32 32 33 32 31 29 27 27 23 23 24 23 24 25 26 28 21 19 25
23 40 45 51 55 56 52 53 51 49 53 41 38 38 28 32 34 25 23 24 18 18 21 25 28 30 32 33 34 34 34 33 28 25 28 26 19 21 23 25 27 28 29 29 26 24 25 24 25 26 23 16 21 24
39 49 50 45 49 52 53 55 56 56 57 51 50 48 51 49 39 28 25 25 25 29 32 30 29 32 34 35 35 33 34 33 31 31 28 22 24 24 23 21 25 30 28 28 26 25 22 23 25 23 15 16 21 24
53 53 53 53 53 53 52 50 54 53 52 50 47 47 45 39 32 30 30 32 34 34 33 32 31 33 33 33 33 33 32 33 34 34 31 22 21 26 26 26 27 25 26 29 26 23 22 24 24 21 13 18 22 23
54 54 52 52 52 55 55 53 49 44 44 44 40 40 40 35 32 32 32 32 33 36 36 34 36 35 34 32 30 30 31 32 31 31 31 31 29 29 26 26 24 25 27 26 21 21 24 23 24 16 13 19 22 22
48 55 54 54 55 53 49 47 43 42 40 40 41 40 39 37 40 39 38 34 35 35 33 33 35 35 32 31 28 27 28 30 30 27 26 24 26 27 25 29 30 29 25 20 21 27 22 23 19 11 15 20 21 20
45 45 49 51 43 41 44 40 40 39 40 39 39 36 35 37 42 41 37 28 28 27 27 27 29 30 28 27 25 25 26 23 24 28 24 25 25 19 28 32 33 26 22 22 24 17 18 18 11 11 17 19 19 18

GFSWCAN_700_spd_093.txt.gz
Wind_Speed
21 14 12 10 7 11 14 9 6 4 3 4 5 5 7 10 13 11 10 9 9 10 8 9 8 7 6 6 6 7 8 7 8 5 4 4 5 5 8 9 11 7 5 4 5 7 6 5 6 7 7 8 9 9
19 14 13 15 8 10 11 8 10 9 7 5 4 6 7 9 12 15 13 12 13 13 13 13 15 14 14 14 13 11 9 12 6 7 7 7 11 13 12 8 10 7 7 7 7 7 10 11 11 13 13 14 13 13
20 19 14 16 14 9 11 11 10 14 10 11 7 5 5 7 8 12 15 14 13 15 17 18 17 18 19 19 19 18 17 16 14 13 13 10 10 14 13 15 17 15 14 19 20 9 9 11 13 15 15 15 14 15
21 21 19 16 17 14 11 12 11 15 16 13 14 10 9 8 7 9 12 14 15 16 18 18 18 18 18 19 21 21 20 20 17 17 17 19 19 18 22 26 34 31 32 32 31 24 22 18 16 16 16 16 16 16
22 23 22 18 17 18 15 13 13 13 18 17 16 14 14 12 11 10 11 12 12 13 16 19 22 22 22 21 20 21 20 19 20 21 23 23 26 27 31 33 29 11 11 15 18 15 17 19 18 17 16 15 16 18
28 25 25 20 19 18 18 16 14 14 15 21 20 19 16 15 15 14 14 14 13 14 16 18 13 18 20 23 20 18 20 21 23 25 26 29 26 24 21 32 32 21 19 18 22 20 16 14 13 14 15 17 18 19
32 28 26 24 21 21 20 19 17 15 14 18 24 22 20 18 17 18 17 13 13 13 13 11 13 7 8 10 11 16 19 22 23 26 29 29 28 28 38 40 29 23 21 21 22 23 22 18 18 17 17 17 18 19
31 26 27 28 23 23 23 22 21 18 17 16 21 25 25 22 22 22 21 20 18 17 17 9 12 13 10 12 13 12 14 16 20 22 27 28 30 29 23 9 9 10 11 13 15 16 18 18 16 15 15 17 18 19
36 29 26 28 24 25 25 25 23 20 18 19 18 22 26 26 25 24 24 23 23 21 14 17 16 13 9 9 10 11 13 14 17 19 19 16 24 20 18 20 21 22 23 20 16 12 10 11 11 12 14 16 17 18
37 34 28 28 26 26 26 27 26 23 21 20 19 21 23 25 25 23 22 23 26 28 32 34 30 26 21 19 16 10 10 9 9 11 12 15 20 7 8 12 16 17 17 19 17 14 13 10 11 13 15 15 16 18
38 39 36 29 28 28 28 28 29 28 25 23 22 22 21 18 15 15 14 14 14 18 26 29 27 30 28 24 21 10 7 7 6 7 8 8 12 10 12 16 19 19 19 18 20 22 15 14 15 15 14 15 17 18
46 35 37 35 29 28 31 31 31 29 27 21 24 21 19 18 12 12 12 14 17 15 18 15 15 16 15 15 12 9 10 7 8 10 7 7 11 13 15 17 19 17 15 12 11 16 18 17 15 14 15 17 17 17
48 46 38 39 36 33 32 35 32 31 28 25 22 19 10 14 20 14 16 16 14 15 16 13 13 14 12 10 9 8 7 8 8 8 8 12 13 11 12 14 16 15 10 7 5 6 8 11 13 16 17 17 17 17
43 44 39 38 38 35 34 38 37 35 32 28 23 19 15 13 14 29 26 17 20 13 10 12 15 13 12 9 9 6 9 8 7 8 11 12 11 9 9 14 16 12 9 9 12 12 12 14 16 17 18 18 18 18
35 44 40 40 38 36 36 41 40 39 37 32 20 15 23 25 24 16 19 21 18 18 14 14 14 13 12 10 7 9 7 9 10 9 7 10 13 13 14 16 13 12 12 14 15 16 17 18 19 19 19 18 17 19
35 39 46 40 39 36 37 40 39 41 41 36 31 28 23 18 26 28 21 18 19 19 19 19 13 8 13 9 12 13 8 11 5 8 10 13 16 17 17 17 15 16 20 20 21 20 20 19 20 20 20 19 18 19
28 36 44 39 39 39 38 45 43 45 34 45 54 49 34 26 19 18 22 22 20 22 24 15 10 12 9 10 14 17 24 15 12 12 13 14 19 21 22 25 27 27 23 21 22 22 21 21 20 20 21 21 19 21
30 31 35 42 41 34 42 47 48 42 50 56 53 50 44 41 36 26 23 23 29 26 26 29 23 21 12 20 25 17 10 13 14 15 16 19 24 27 29 29 29 23 20 22 23 24 24 24 23 24 25 23 21 22
32 25 27 32 40 42 48 53 56 52 59 60 59 53 42 37 35 39 36 32 30 29 31 35 25 31 42 39 34 28 22 22 23 25 24 25 28 32 31 29 28 29 32 34 31 28 29 30 28 26 24 23 21 23
35 32 28 29 33 39 55 47 59 62 53 57 58 55 48 45 40 38 37 38 39 38 43 51 52 48 41 34 34 29 25 28 33 35 33 33 35 36 37 39 40 42 41 37 34 31 30 31 28 26 26 24 22 23
35 33 30 32 38 39 48 38 42 59 64 62 54 41 41 44 44 42 43 45 45 53 56 50 40 33 35 39 38 42 43 41 42 43 44 42 36 38 39 41 43 43 41 38 38 37 33 30 28 28 27 25 23 23
31 27 30 41 45 51 51 42 47 52 55 59 49 49 48 43 42 38 37 43 50 58 54 44 35 30 34 31 31 35 36 41 43 45 43 43 42 41 42 44 46 45 44 40 37 37 35 32 31 29 27 24 22 23
29 30 34 46 54 43 31 48 53 51 49 51 52 50 50 50 46 44 48 55 57 54 49 43 31 28 34 34 34 32 33 38 42 42 43 45 45 46 47 47 47 46 44 39 36 36 33 32 31 28 27 23 22 23
31 29 39 41 43 26 26 33 45 48 50 53 47 42 44 45 51 54 61 61 56 51 49 41 37 40 42 41 37 31 31 37 39 40 38 41 43 41 44 44 42 40 39 37 38 36 34 32 29 28 27 23 22 23
32 32 37 20 23 35 38 36 45 50 52 53 52 48 36 36 41 50 61 57 52 48 42 37 37 41 43 41 37 30 30 34 36 34 31 37 37 37 36 35 36 35 34 34 33 33 31 30 27 29 25 22 22 23
26 27 23 30 34 41 47 46 52 49 47 50 46 47 43 41 41 45 55 45 43 34 28 29 28 29 35 33 29 29 25 29 33 33 30 34 34 33 31 30 29 27 27 27 28 28 27 26 26 26 23 22 22 25
27 16 22 34 35 38 45 49 48 47 50 46 40 42 37 30 36 53 44 42 19 5 13 21 27 28 27 26 24 24 27 29 30 31 32 31 30 30 28 28 26 21 20 20 22 23 23 24 26 24 21 21 23 25
30 27 29 36 40 47 47 49 52 53 52 46 40 41 31 32 40 27 16 16 20 23 23 21 20 20 20 24 26 27 28 30 32 34 33 30 29 29 27 26 26 19 19 19 19 23 26 25 24 21 20 22 24 22
38 35 37 37 37 44 49 52 54 53 52 51 51 48 55 54 49 43 35 29 32 31 28 21 22 25 28 30 30 29 30 33 33 32 32 29 29 29 29 27 28 30 27 21 20 23 26 24 22 21 21 20 21 19
39 36 37 38 42 46 49 49 52 51 51 50 47 46 47 47 43 39 34 37 35 30 26 25 31 34 34 33 31 32 34 33 29 28 28 27 26 26 26 27 27 27 27 24 23 26 28 26 23 20 17 19 19 18
43 44 47 47 46 44 44 44 46 46 46 44 42 42 42 42 40 39 36 34 31 31 31 33 36 36 32 31 34 35 35 32 28 25 25 24 23 24 26 25 26 28 28 22 26 25 21 23 21 18 17 19 17 15
40 41 42 43 45 46 44 43 43 44 44 45 46 46 45 43 44 40 35 34 35 36 36 34 34 31 30 34 36 34 32 29 29 26 24 22 23 24 23 22 25 27 23 22 21 23 23 20 17 16 19 17 13 14
34 34 35 37 40 40 40 40 43 43 42 43 43 40 39 39 43 39 37 35 34 29 27 25 26 30 33 34 33 28 25 24 25 25 22 21 23 24 25 26 26 20 24 23 24 24 21 17 15 16 14 10 13 16

GFSWCAN_700_spd_096.txt.gz
Wind_Speed
19 23 17 17 18 15 15 14 11 10 6 3 3 6 8 9 10 11 13 12 10 10 11 11 10 10 10 9 9 10 12 9 10 7 5 4 6 6 9 12 13 9 6 5 4 7 7 3 6 7 8 11 12 12
19 21 20 14 17 19 15 16 15 14 11 8 6 6 9 8 10 13 15 16 16 15 14 15 15 15 16 16 16 16 14 13 9 8 9 10 13 17 14 9 12 8 7 8 8 8 15 20 22 20 18 17 16 16
19 20 23 18 17 20 18 16 17 16 17 12 11 9 7 10 9 11 14 17 18 19 18 20 19 17 15 16 18 18 17 17 17 17 17 15 14 17 16 17 20 17 14 21 27 14 13 15 18 17 17 17 16 16
21 18 23 26 18 20 18 19 19 18 16 19 14 13 12 11 10 10 12 15 17 19 21 20 20 19 18 17 19 18 18 20 20 19 20 22 22 19 23 24 34 33 33 32 30 20 17 20 22 20 20 17 16 17
32 23 21 25 28 23 20 18 19 22 19 17 20 16 16 16 14 13 13 14 15 15 19 18 18 21 24 25 23 23 22 22 22 23 24 25 27 27 31 33 29 10 18 19 22 20 18 15 14 17 19 18 17 17
35 32 26 25 26 29 24 22 21 21 23 19 20 22 18 18 18 18 15 16 16 17 20 22 15 17 20 21 21 21 23 23 22 25 26 29 27 23 19 29 31 27 27 25 24 24 24 23 18 15 15 16 17 18
37 31 31 27 27 27 27 24 24 23 24 23 21 22 23 21 20 20 20 16 15 15 17 13 15 12 10 10 13 17 18 21 22 25 29 30 30 29 38 38 23 14 14 17 18 20 21 20 22 19 17 17 17 18
35 33 25 28 27 27 26 26 25 25 25 26 23 23 23 24 24 23 24 23 23 21 21 13 16 18 17 16 15 14 15 16 23 25 30 29 29 28 26 12 12 16 17 18 19 20 18 17 19 20 18 17 16 17
33 32 29 27 25 27 26 25 27 27 27 27 25 24 25 24 24 24 25 25 25 26 20 23 24 17 16 14 12 13 14 18 22 27 27 18 25 22 15 19 17 15 15 18 18 19 19 16 14 15 15 15 17 18
36 31 35 34 28 28 26 25 28 31 29 28 27 26 25 24 21 23 25 26 29 31 38 42 38 32 26 22 19 15 12 11 12 15 15 19 27 20 17 14 13 16 19 20 18 16 19 17 15 14 12 14 15 16
36 33 33 41 35 30 30 27 31 34 33 31 29 25 25 23 19 19 11 11 11 14 25 37 39 42 36 29 23 12 9 8 7 11 11 10 26 17 16 15 14 15 16 15 16 17 17 18 15 13 14 14 15 16
37 33 33 37 42 34 35 31 32 33 34 32 31 26 24 23 14 12 10 10 14 11 18 19 18 23 31 30 22 12 14 9 9 13 9 11 25 21 18 13 10 9 12 13 12 10 10 13 16 17 15 15 17 18
37 34 34 37 43 39 38 36 36 33 36 36 32 28 15 16 21 14 17 16 14 15 14 14 13 16 17 17 13 10 9 9 9 9 9 22 18 15 13 10 9 12 16 12 9 6 5 7 11 14 15 17 19 20
30 30 32 38 42 42 39 38 40 38 37 37 34 26 16 16 15 28 29 25 24 22 15 11 11 11 14 12 12 7 9 8 8 9 14 11 10 11 12 11 13 11 11 9 11 11 10 12 13 15 17 18 19 19
27 26 26 34 42 43 40 43 43 42 41 40 28 19 27 33 27 13 15 20 22 24 17 14 15 17 12 10 7 8 7 8 9 7 3 6 9 11 12 13 13 12 12 12 14 17 19 18 18 19 19 20 21 21
31 31 34 31 34 40 45 40 41 44 46 40 38 35 35 24 26 30 34 24 17 17 18 17 17 9 13 10 10 11 8 9 3 3 7 8 11 14 15 16 18 20 21 23 25 22 20 20 22 23 22 21 22 22
32 34 28 28 29 29 41 38 45 49 44 40 51 56 53 40 25 23 24 29 24 22 22 17 13 13 10 11 17 22 29 21 13 12 11 12 14 17 20 22 24 25 26 24 22 20 19 20 22 25 24 25 26 24
39 32 26 23 23 25 34 41 48 50 40 53 55 57 54 49 41 30 22 20 24 24 22 28 25 24 17 21 26 17 9 7 9 13 16 17 17 20 25 28 30 30 27 26 26 27 28 29 29 28 28 30 27 26
40 34 32 27 26 26 30 49 58 39 56 58 57 58 54 47 43 43 41 31 28 27 26 32 27 38 46 46 39 34 35 34 32 34 31 24 23 27 33 36 37 38 38 36 35 35 35 37 34 30 29 29 27 28
40 38 36 32 31 33 34 40 54 59 44 53 57 60 57 54 47 44 43 43 45 43 43 53 56 50 43 38 36 36 37 38 39 36 32 33 38 45 42 41 42 42 42 42 42 41 40 36 33 32 31 29 29 28
36 39 37 36 37 40 40 33 35 43 52 54 58 52 46 50 50 47 46 47 48 50 55 57 52 41 39 36 37 38 39 41 41 39 37 41 40 42 41 42 43 44 43 42 42 41 41 38 34 32 32 31 29 28
34 33 36 36 37 38 40 44 32 42 41 43 46 51 56 49 44 43 42 48 53 56 58 56 50 42 38 37 36 37 36 38 40 37 36 38 39 38 39 40 43 43 44 43 42 41 38 35 34 33 32 30 30 29
29 30 32 32 32 37 39 41 45 51 44 42 42 45 49 52 52 49 49 55 58 58 55 51 46 42 40 37 39 41 38 36 37 36 35 38 38 37 38 37 38 40 41 38 38 37 35 32 32 31 30 29 28 28
32 34 34 32 32 29 31 31 38 48 46 48 50 42 44 44 45 45 57 62 58 57 55 53 50 46 42 42 43 40 39 39 41 40 40 40 38 33 33 31 33 34 35 34 32 32 31 29 28 26 26 26 26 25
33 32 32 27 32 33 45 42 40 44 48 49 48 51 43 37 38 44 57 56 52 52 49 44 39 36 34 33 35 37 36 39 42 41 38 35 34 31 29 30 30 28 29 29 27 26 26 25 23 22 23 24 24 23
33 33 18 25 33 30 31 37 42 47 49 47 48 45 47 42 39 40 55 50 48 44 39 34 33 32 34 33 33 33 30 32 39 40 26 27 26 28 27 26 23 21 24 24 21 19 21 22 21 21 21 21 22 22
37 21 35 40 37 34 33 36 37 39 45 46 45 41 37 29 35 51 49 43 34 26 21 15 18 20 21 25 30 27 23 23 25 22 22 23 24 24 23 22 18 18 19 17 15 16 19 19 18 18 19 20 21 21
30 25 34 32 33 38 42 43 42 43 46 47 44 40 33 36 44 39 34 21 12 6 8 17 25 28 25 22 25 23 18 17 20 21 21 21 21 20 20 19 17 16 17 18 20 22 22 20 16 17 18 19 20 20
46 46 40 35 36 33 33 37 41 42 43 44 47 45 50 49 46 42 39 35 28 31 30 30 31 32 29 24 24 24 21 22 22 21 22 20 18 17 19 17 16 15 17 19 20 20 20 19 17 18 21 21 23 20
47 46 46 42 39 45 50 48 42 38 39 40 43 46 48 46 42 40 39 35 32 31 29 30 36 34 27 23 26 28 29 28 25 26 26 20 18 17 15 16 16 16 17 18 20 22 22 20 19 21 21 20 18 20
45 48 49 53 55 51 44 41 46 47 43 40 40 40 39 42 41 39 38 35 32 32 31 32 35 35 31 31 32 33 35 31 29 30 28 23 19 16 17 17 16 16 17 18 18 21 19 14 13 16 18 19 18 18
45 47 47 48 51 51 48 48 48 48 45 42 43 42 42 44 45 39 35 34 34 35 34 31 30 29 29 28 30 33 33 32 35 31 26 22 19 17 17 18 18 16 17 18 24 20 15 18 19 18 16 16 16 19
41 44 44 46 47 46 44 41 38 37 36 36 36 36 37 38 43 42 36 31 31 31 33 32 30 30 31 32 32 33 36 38 31 23 20 18 17 18 20 21 19 19 20 23 21 16 16 17 17 17 16 16 18 15